[[{"header":{"parameterUnit":"m.s-1","parameterCategory":1,"la1":31.0,"la2":29.5877,"lo1":-88.7671,"lo2":-86.6584,"dy":0.0162,"dx":0.0185,"nx":115,"ny":88,"refTime":"2024-05-17T06:00:00:Z","depth":0,"parameterNumber":2,"parameterNumberName":"U-component_of_WINDS"},"data":[0.0,0.0,0.0,0.0,0.0,0.0,0.0,0.0,0.0,0.0,0.0,0.0,0.0,0.0,0.0,0.0,0.0,0.0,0.0,0.0,0.0,0.0,0.0,0.0,0.0,0.0,0.0,0.0,0.0,0.0,0.0,0.0,0.0,0.0,0.0,0.0,0.0,0.0,0.0,0.0,0.0,0.0,0.0,0.0,0.0,0.0,0.0,0.0,0.0,0.0,0.0,0.0,0.0,0.0,0.0,0.0,0.0,0.0,0.0,0.0,0.0,0.0,0.0,0.0,0.0,0.0,0.0,0.0,0.0,0.0,0.0,0.0,0.0,0.0,0.0,0.0,0.0,0.0,0.0,0.0,0.0,0.0,0.0,0.0,0.0,0.0,0.0,0.0,0.0,0.0,0.0,0.0,0.0,0.0,0.0,0.0,0.0,0.0,0.0,0.0,0.0,0.0,0.0,0.0,0.0,0.0,0.0,0.0,0.0,0.0,0.0,0.0,0.0,0.0,0.0,0.0,0.0,0.0,0.0,0.0,0.0,0.0,0.0,0.0,0.0,0.0,0.0,0.0,0.0,0.0,0.0,0.0,0.0,0.0,0.0,0.0,0.0,0.0,0.0,0.0,0.0,0.0,0.0,0.0,0.0,0.0,0.0,0.0,0.0,0.0,0.0,0.0,0.0,0.0,0.0,0.0,0.0,0.0,0.0,0.0,0.0,0.0,0.0,0.0,0.0,0.0,0.0,0.0,0.0,0.0,0.0,0.0,0.0,0.0,0.0,0.0,0.0,0.0,0.0,0.0,0.0,0.0,0.0,0.0,0.0,0.0,0.0,0.0,0.0,0.0,0.0,0.0,0.0,0.0,0.0,0.0,0.0,0.0,0.0,0.0,0.0,0.0,0.0,0.0,0.0,0.0,0.0,0.0,0.0,0.0,0.0,0.0,0.0,0.0,0.0,0.0,0.0,0.0,0.0,0.0,0.0,0.0,0.0,0.0,0.0,0.0,0.0,0.0,0.0,0.0,0.0,0.0,0.0,0.0,0.0,0.0,0.0,0.0,0.0,0.0,0.0,0.0,0.0,0.0,0.0,0.0,0.0,0.0,0.0,0.0,0.0,0.0,0.0,0.0,0.0,0.0,0.0,0.0,0.0,0.0,0.0,0.0,0.0,0.0,0.0,0.0,0.0,0.0,0.0,0.0,0.0,0.0,0.0,0.0,0.0,0.0,0.0,0.0,0.0,0.0,0.0,0.0,0.0,0.0,0.0,0.0,0.0,0.0,0.0,0.0,0.0,0.0,0.0,0.0,0.0,0.0,0.0,0.0,0.0,0.0,0.0,0.0,0.0,0.0,0.0,0.0,0.0,0.0,0.0,0.0,0.0,0.0,0.0,0.0,0.0,0.0,0.0,0.0,0.0,0.0,0.0,0.0,0.0,0.0,0.0,0.0,0.0,0.0,0.0,0.0,0.0,0.0,0.0,0.0,0.0,0.0,0.0,0.0,0.0,0.0,0.0,0.0,0.0,0.0,0.0,0.0,0.0,0.0,0.0,0.0,0.0,0.0,0.0,0.0,0.0,0.0,0.0,0.0,0.0,0.0,0.0,0.0,0.0,0.0,0.0,0.0,0.0,0.0,0.0,0.0,0.0,0.0,0.0,0.0,0.0,0.0,0.0,0.0,0.0,0.0,0.0,0.0,0.0,0.0,0.0,0.0,0.0,0.0,0.0,0.0,0.0,0.0,0.0,0.0,0.0,0.0,0.0,0.0,0.0,0.0,0.0,0.0,0.0,0.0,0.0,0.0,0.0,0.0,0.0,0.0,0.0,0.0,0.0,0.0,0.0,0.0,0.0,0.0,0.0,0.0,0.0,0.0,0.0,0.0,0.0,0.0,0.0,0.0,0.0,0.0,0.0,0.0,0.0,0.0,0.0,0.0,0.0,0.0,0.0,0.0,0.0,0.0,0.0,0.0,0.0,0.0,0.0,0.0,0.0,0.0,0.0,0.0,0.0,0.0,0.0,0.0,0.0,0.0,0.0,0.0,0.0,0.0,0.0,0.0,0.0,0.0,0.0,0.0,0.0,0.0,0.0,0.0,0.0,0.0,0.0,0.0,0.0,0.0,0.0,0.0,0.0,0.0,0.0,0.0,0.0,0.0,0.0,0.0,0.0,0.0,0.0,0.0,0.0,0.0,0.0,0.0,0.0,0.0,0.0,0.0,0.0,0.0,0.0,0.0,0.0,0.0,0.0,0.0,0.0,0.0,0.0,0.0,0.0,0.0,0.0,0.0,0.0,0.0,0.0,0.0,0.0,0.0,0.0,0.0,0.0,0.0,0.0,0.0,0.0,0.0,0.0,0.0,0.0,0.0,0.0,0.0,0.0,0.0,0.0,0.0,0.0,0.0,0.0,0.0,0.0,0.0,0.0,0.0,0.0,0.0,0.0,0.0,0.0,0.0,0.0,0.0,0.0,0.0,0.0,0.0,0.0,0.0,0.0,0.0,0.0,0.0,0.0,0.0,0.0,0.0,0.0,0.0,0.0,0.0,0.0,0.0,0.0,0.0,0.0,0.0,0.0,0.0,0.0,0.0,0.0,0.0,0.0,0.0,0.0,0.0,0.0,0.0,0.0,0.0,0.0,0.0,0.0,0.0,0.0,0.0,0.0,0.0,0.0,0.0,0.0,0.0,0.0,0.0,0.0,0.0,0.0,0.0,0.0,0.0,0.0,0.0,0.0,0.0,0.0,0.0,0.0,0.0,0.0,0.0,0.0,0.0,0.0,0.0,0.0,0.0,0.0,0.0,0.0,0.0,0.0,0.0,0.0,0.0,0.0,0.0,0.0,0.0,0.0,0.0,0.0,0.0,0.0,0.0,0.0,0.0,0.0,0.0,0.0,0.0,0.0,0.0,0.0,0.0,0.0,0.0,0.0,0.0,0.0,0.0,0.0,0.0,0.0,0.0,0.0,0.0,0.0,0.0,0.0,0.0,0.0,0.0,0.0,0.0,0.0,0.0,0.0,0.0,0.0,0.0,0.0,0.0,0.0,0.0,0.0,0.0,0.0,0.0,0.0,0.0,0.0,0.0,0.0,0.0,0.0,0.0,0.0,0.0,0.0,0.0,0.0,0.0,0.0,0.0,0.0,0.0,0.0,0.0,0.0,0.0,0.0,0.0,0.0,0.0,0.0,0.0,0.0,0.0,0.0,0.0,0.0,0.0,0.0,0.0,0.0,0.0,0.0,0.0,0.0,0.0,0.0,0.0,0.0,0.0,0.0,0.0,0.0,0.0,0.0,0.0,0.0,0.0,0.0,0.0,0.0,0.0,0.0,0.0,0.0,0.0,0.0,0.0,0.0,0.0,0.0,0.0,0.0,0.0,0.0,0.0,0.0,0.0,0.0,0.0,0.0,0.0,0.0,0.0,0.0,0.0,0.0,0.0,0.0,0.0,0.0,0.0,0.0,0.0,0.0,0.0,0.0,0.0,0.0,0.0,0.0,0.0,0.0,0.0,0.0,0.0,0.0,0.0,0.0,0.0,0.0,0.0,0.0,0.0,0.0,0.0,0.0,0.0,0.0,0.0,0.0,0.0,0.0,0.0,0.0,0.0,0.0,0.0,0.0,0.0,0.0,0.0,0.0,0.0,0.0,0.0,0.0,0.0,0.0,0.0,0.0,0.0,0.0,0.0,0.0,0.0,0.0,0.0,0.0,0.0,0.0,0.0,0.0,0.0,0.0,0.0,0.0,0.0,0.0,0.0,0.0,0.0,0.0,0.0,0.0,0.0,0.0,0.0,0.0,0.0,0.0,0.0,0.0,0.0,0.0,0.0,0.0,0.0,0.0,0.0,0.0,0.0,0.0,0.0,0.0,0.0,0.0,0.0,0.0,0.0,0.0,0.0,0.0,0.0,0.0,0.0,0.0,0.0,0.0,0.0,0.0,0.0,0.0,0.0,0.0,0.0,0.0,0.0,0.0,0.0,0.0,0.0,0.0,0.0,0.0,0.0,0.0,0.0,0.0,0.0,0.0,0.0,0.0,0.0,0.0,0.0,0.0,0.0,0.0,0.0,0.0,0.0,0.0,0.0,0.0,0.0,0.0,0.0,0.0,0.0,0.0,0.0,0.0,0.0,0.0,0.0,0.0,0.0,0.0,0.0,0.0,0.0,0.0,0.0,0.0,0.0,0.0,0.0,0.0,0.0,0.0,0.0,0.0,0.0,0.0,0.0,0.0,0.0,0.0,0.0,0.0,0.0,0.0,0.0,0.0,0.0,0.0,0.0,0.6798,0.0,0.0,0.0,0.0,0.0,0.0,0.0,0.0,0.0,0.0,0.0,0.0,0.0,0.0,0.0,0.0,0.0,0.0,0.0,0.0,0.0,0.0,0.0,0.0,0.0,0.0,0.0,0.0,0.0,0.0,0.0,0.0,0.0,0.0,0.0,0.0,0.0,0.0,0.0,0.0,0.0,0.0,0.0,0.0,0.0,0.0,0.0,0.0,0.0,0.0,0.0,0.0,0.0,0.0,0.0,0.0,0.0,0.0,0.0,0.0,0.0,0.0,0.0,0.0,0.0,0.0,0.0,0.0,0.0,0.0,0.0,0.0,0.0,0.0,0.0,0.0,0.0,0.0,0.0,0.0,0.0,0.0,0.0,0.0,0.0,0.0,0.0,0.0,0.0,0.0,0.0,0.0,0.0,0.0,0.0,0.0,0.0,0.0,0.0,0.0,0.0,0.0,0.0,0.0,0.0,0.0,0.0,0.0,0.0,0.0,0.8303,0.8758,0.87,0.8363,0.7632,0.0,0.0,0.0,0.0,0.0,0.0,0.0,0.0,0.0,0.0,0.0,0.0,0.0,0.0,0.0,0.0,0.0,0.0,0.0,0.0,0.0,0.0,0.0,0.0,0.0,0.0,0.0,0.0,0.0,0.0,0.0,0.0,0.0,0.0,0.0,0.0,0.0,0.0,0.0,0.0,0.0,0.0,0.0,0.0,0.0,0.0,0.0,0.0,0.0,0.0,0.0,0.0,0.0,0.0,0.0,0.0,0.0,0.0,0.0,0.0,0.0,0.0,0.0,0.0,0.0,0.0,0.0,0.0,0.0,0.0,0.0,0.0,0.0,0.0,0.0,0.0,0.0,0.0,0.0,0.0,0.0,0.0,0.0,0.0,0.0,0.0,0.0,0.0,0.0,0.0,0.0,0.0,0.0,0.0,0.0,0.0,0.0,0.0,0.0,0.0,0.0,0.0,0.0,0.0,0.0,0.0,0.0,0.0,0.0,0.0,0.0,0.0,0.9504,0.8943,0.7845,0.0,0.0,0.0,0.0,0.0,0.0,0.0,0.0,0.0,0.0,0.0,0.0,0.0,0.0,0.0,0.0,0.0,0.0,0.0,0.0,0.0,0.0,0.0,0.0,0.0,0.0,0.0,0.0,0.0,0.0,0.0,0.0,0.0,0.0,0.0,0.0,0.0,0.0,0.0,0.0,0.0,0.0,0.0,0.0,0.0,0.0,0.0,0.0,0.0,0.0,0.0,0.0,0.0,0.0,0.0,0.0,0.0,0.0,0.0,0.0,0.0,0.0,0.0,0.0,0.0,0.0,0.0,0.0,0.0,0.0,0.0,0.0,0.0,0.0,0.0,0.0,0.0,0.0,0.0,0.0,0.0,0.0,0.0,0.0,0.0,0.0,0.0,0.0,0.0,0.0,0.0,0.0,0.0,0.0,0.0,0.0,0.0,0.0,0.0,0.0,0.0,0.0,0.0,0.0,0.0,0.0,0.0,0.0,0.0,0.0,0.9656,1.0024,0.9902,0.0,0.7181,0.0,0.0,0.0,0.0,0.0,0.0,0.0,0.0,0.0,0.0,0.0,0.0,0.0,0.0,0.0,0.0,0.0,0.0,0.0,0.0,0.0,0.0,0.0,0.0,0.0,0.0,0.0,0.0,0.0,0.0,0.0,0.0,0.0,0.0,0.0,0.0,0.0,0.0,0.0,0.0,0.0,0.0,0.0,0.0,0.0,0.0,0.0,0.0,0.0,0.0,0.0,0.0,0.0,0.0,0.0,0.0,0.0,0.0,0.0,0.0,0.0,0.0,0.0,0.0,0.0,0.0,0.0,0.0,0.0,0.0,0.0,0.0,0.0,0.0,0.0,0.0,0.0,0.0,0.0,0.0,0.0,0.0,0.0,0.0,0.0,0.0,0.0,0.0,0.0,0.0,0.0,0.0,0.0,0.0,0.0,0.0,0.0,0.0,0.0,0.0,0.0,0.0,0.0,0.0,0.0,0.0,0.0,0.0,0.0,0.0,0.9543,0.9988,0.949,0.8538,0.0,0.0,0.0,0.0,0.0,0.0,0.0,0.0,0.0,0.0,0.0,0.0,0.0,0.0,0.0,0.0,0.0,0.0,0.0,0.0,0.0,0.0,0.0,0.0,0.0,0.0,0.0,0.0,0.0,0.0,0.0,0.0,0.0,0.0,0.0,0.0,0.0,0.0,0.0,0.0,0.0,0.0,0.0,0.0,0.0,0.0,0.0,0.0,0.0,0.0,0.0,0.0,0.0,0.0,0.0,0.0,0.0,0.0,0.0,0.0,0.0,0.0,0.0,0.0,0.0,0.0,0.0,0.0,0.0,0.0,0.0,0.0,0.0,0.0,0.0,0.0,0.0,0.0,0.0,0.0,0.0,0.0,0.0,0.0,0.0,0.0,0.0,0.0,0.0,0.0,0.0,0.0,0.0,0.0,0.0,0.0,0.0,0.0,0.0,0.0,0.0,0.0,0.0,0.0,0.0,0.0,0.0,0.0,0.0,0.0,0.8785,0.9001,0.9346,0.8718,0.7779,0.6722,0.0,0.0,0.0,0.0,0.0,0.0,0.0,0.0,0.0,0.0,0.0,0.0,0.0,0.0,0.0,0.0,0.0,0.0,0.0,0.0,0.0,0.0,0.0,0.0,0.0,0.0,0.0,0.0,0.0,0.0,0.0,0.0,0.0,0.0,0.0,0.0,0.0,0.0,0.0,0.0,0.0,0.0,0.0,0.0,0.0,0.0,0.0,0.0,0.0,0.0,0.0,0.0,0.0,0.0,0.0,0.0,0.0,0.0,0.0,0.0,0.0,0.0,0.0,0.0,0.0,0.0,0.0,0.0,0.0,0.0,0.0,0.0,0.0,0.0,0.0,0.0,0.0,0.0,0.0,0.0,0.0,0.0,0.0,0.0,0.0,0.0,0.0,0.0,0.0,0.0,0.0,0.0,0.0,0.0,0.0,0.0,0.0,0.0,0.0,0.0,0.0,0.0,0.0,0.0,0.0,0.0,0.0,0.0,0.0,0.7948,0.7916,0.8143,0.7676,0.6822,0.0,0.0,0.0,0.0,0.0,0.0,0.0,0.0,0.0,0.0,0.0,0.0,0.0,0.0,0.0,0.0,0.0,0.0,0.0,0.0,0.0,0.0,0.0,0.0,0.0,0.0,0.0,0.0,0.0,0.0,0.0,0.0,0.0,0.0,0.0,0.0,0.0,0.0,0.0,0.0,0.0,0.0,0.0,0.0,0.0,0.0,0.0,0.0,0.0,0.0,0.0,0.0,0.0,0.0,0.0,0.0,0.0,0.0,0.0,0.0,0.0,0.0,0.0,0.0,0.0,0.0,0.0,0.0,0.0,0.0,0.0,0.0,0.0,0.0,0.0,0.0,0.0,0.0,0.0,0.0,0.0,0.0,0.0,0.0,0.0,0.0,0.0,0.0,0.0,0.0,0.0,0.0,0.0,0.0,0.0,0.0,0.0,0.0,0.0,0.0,0.0,0.0,0.0,0.0,0.0,0.0,0.0,0.0,0.0,0.7291,0.6942,0.6738,0.6689,0.6625,0.5795,0.0,0.0,0.0,0.0,0.0,0.0,0.0,0.0,0.0,0.0,0.0,0.0,0.0,0.0,0.0,0.0,0.0,0.0,0.0,0.0,0.0,0.0,0.0,0.0,0.0,0.0,0.0,0.0,0.0,0.0,0.0,0.0,0.0,0.0,0.0,0.0,0.0,0.0,0.0,0.0,0.0,0.0,0.0,0.0,0.0,0.0,0.0,0.0,0.0,0.0,0.0,0.0,0.0,0.0,0.0,0.0,0.0,0.0,0.0,0.0,0.0,0.0,0.0,0.0,0.0,0.0,0.0,0.0,0.0,0.0,0.0,0.0,0.0,0.0,0.0,0.0,0.0,0.0,0.0,0.0,0.0,0.0,0.0,0.0,0.0,0.0,0.0,0.0,0.0,0.0,0.0,0.0,0.0,0.0,0.0,0.0,0.0,0.0,0.0,0.0,0.0,0.0,0.0,0.0,0.0,0.0,0.0,0.0,0.0,0.6529,0.0,0.4967,0.0,0.4432,0.356,0.0,0.0,0.0,0.0,0.0,0.0,0.0,0.0,0.0,0.0,0.0,0.0,0.0,0.0,0.0,0.0,0.0,0.0,0.0,0.0,0.0,0.0,0.0,0.0,0.0,0.0,0.0,0.0,0.0,0.0,0.0,0.0,0.0,0.0,0.0,0.0,0.0,0.0,0.0,0.0,0.0,0.0,0.0,0.0,0.0,0.0,0.0,0.0,0.0,0.0,0.0,0.0,0.0,0.0,0.0,0.0,0.0,0.0,0.0,0.0,0.0,0.0,0.0,0.0,0.0,0.0,0.0,0.0,0.0,0.0,0.0,0.0,0.0,0.0,0.0,0.0,0.0,0.0,0.0,0.0,0.0,0.0,0.0,0.0,0.0,0.0,0.0,0.0,0.0,0.0,0.0,0.0,0.0,0.0,0.0,0.0,0.0,0.0,0.0,0.0,0.0,0.0,0.0,0.0,0.0,0.0,0.0,0.0,0.6237,0.5777,0.3922,0.2508,0.1696,0.0926,-0.0,0.0,0.0,0.0,0.0,0.0,0.0,0.0,0.0,0.0,0.0,0.0,0.0,0.0,0.0,0.0,0.0,0.0,0.0,0.0,0.0,0.0,0.0,0.0,0.0,0.0,0.0,0.0,0.0,0.0,0.0,0.0,0.0,0.0,0.0,0.0,0.0,0.0,0.0,0.0,0.0,0.0,0.0,0.0,0.0,0.0,0.0,0.0,0.0,0.0,0.0,0.0,0.0,0.0,0.0,0.0,0.0,0.0,0.0,0.0,0.0,0.0,0.0,0.0,0.0,0.0,0.0,0.0,0.0,0.0,0.0,0.0,0.0,0.0,0.0,0.0,0.0,0.0,0.0,0.0,0.0,0.0,0.0,0.0,0.0,0.0,0.0,0.0,0.0,0.0,0.0,0.0,0.0,0.0,0.0,0.0,0.0,0.0,0.0,0.0,0.0,0.0,0.0,0.0,0.0,0.0,0.0,0.0,0.0,0.0,0.2391,0.0578,-0.0925,-0.1928,-0.2564,-0.3595,0.0,0.0,0.0,0.0,0.0,0.0,0.0,0.0,0.0,0.0,0.0,0.0,0.0,0.0,0.0,0.0,0.0,0.0,0.0,0.0,0.0,0.0,0.0,0.0,0.0,0.0,0.0,0.0,0.0,0.0,0.0,0.0,0.0,0.0,0.0,0.0,0.0,0.0,0.0,0.0,0.0,0.0,0.0,0.0,0.0,0.0,0.0,0.0,0.0,0.0,0.0,0.0,0.0,0.0,0.0,0.0,0.0,0.0,0.0,0.0,0.0,0.0,0.0,0.0,0.0,0.0,0.0,0.0,0.0,0.0,0.0,0.0,0.0,0.0,0.0,0.0,0.0,0.0,0.0,0.0,0.0,0.0,0.0,0.0,0.0,0.0,0.0,0.0,0.0,0.0,0.0,0.0,0.0,0.0,0.0,0.0,0.0,0.0,0.0,0.0,0.0,0.0,0.0,0.0,0.0,0.0,0.0,0.0,0.0,-0.2687,-0.3685,-0.5385,-0.7774,-0.7658,-0.806,-0.9122,0.0,0.0,0.0,0.0,0.0,0.0,0.0,0.0,0.0,0.0,0.0,0.0,0.0,0.0,0.0,0.0,0.0,0.0,0.0,0.0,0.0,0.0,0.0,0.0,0.0,0.0,0.0,0.0,0.0,0.0,0.0,0.0,0.0,0.0,0.0,0.0,0.0,0.0,0.0,0.0,0.0,0.0,0.0,0.0,0.0,0.0,0.0,0.0,0.0,0.0,0.0,0.0,0.0,0.0,0.0,0.0,0.0,0.0,0.0,0.0,0.0,0.0,0.0,0.0,0.0,0.0,0.0,0.0,0.0,0.0,0.0,0.0,0.0,0.0,0.0,0.0,0.0,0.0,0.0,0.0,0.0,0.0,0.0,0.0,0.0,0.0,0.0,0.0,0.0,0.0,0.0,0.0,0.0,0.0,0.0,0.0,0.0,0.0,0.0,0.0,0.0,0.0,0.0,0.0,0.0,0.0,0.0,0.0,-0.9243,-0.8965,-1.0794,-1.4916,-1.3879,-1.3319,0.0,0.0,0.0,0.0,0.0,0.0,0.0,0.0,0.0,0.0,0.0,0.0,0.0,0.0,0.0,0.0,0.0,0.0,0.0,0.0,0.0,0.0,0.0,0.0,0.0,0.0,0.0,0.0,0.0,0.0,0.0,0.0,0.0,0.0,0.0,0.0,0.0,0.0,0.0,0.0,0.0,0.0,0.0,0.0,0.0,0.0,0.0,0.0,0.0,0.0,0.0,0.0,0.0,0.0,0.0,0.0,0.0,0.0,0.0,0.0,0.0,0.0,0.0,0.0,0.0,0.0,0.0,0.0,0.0,0.0,0.0,0.0,0.0,0.0,0.0,0.0,0.0,0.0,0.0,0.0,0.0,0.0,0.0,0.0,0.0,0.0,0.0,0.0,0.0,0.0,0.0,0.0,0.0,0.0,0.0,0.0,0.0,0.0,0.0,0.0,0.0,0.0,0.0,0.0,0.0,0.0,0.0,0.0,0.0,-1.5196,-1.6553,-1.7414,-1.8203,-1.8233,-1.8175,0.0,0.0,0.0,0.0,0.0,0.0,0.0,0.0,0.0,0.0,0.0,0.0,0.0,0.0,0.0,0.0,0.0,0.0,0.0,0.0,0.0,0.0,0.0,0.0,0.0,0.0,0.0,0.0,0.0,0.0,0.0,0.0,0.0,0.0,0.0,0.0,0.0,0.0,0.0,0.0,0.0,0.0,0.0,0.0,0.0,0.0,0.0,0.0,0.0,0.0,0.0,0.0,0.0,0.0,0.0,0.0,0.0,0.0,0.0,0.0,0.0,0.0,0.0,0.0,0.0,0.0,0.0,0.0,0.0,0.0,0.0,0.0,0.0,0.0,0.0,0.0,0.0,0.0,0.0,0.0,0.0,0.0,0.0,0.0,0.0,0.0,0.0,0.0,0.0,0.0,0.0,0.0,0.0,0.0,0.0,0.0,0.0,0.0,0.0,0.0,0.0,0.0,0.0,0.0,0.0,0.0,0.0,0.0,-0.9917,-1.7463,-2.0798,-2.3062,-2.4189,-2.3362,-2.2537,0.0,0.0,0.0,0.0,0.0,0.0,0.0,0.0,0.0,0.0,0.0,0.0,0.0,0.0,0.0,0.0,0.0,0.0,0.0,0.0,0.0,0.0,0.0,0.0,0.0,0.0,0.0,0.0,0.0,0.0,0.0,0.0,0.0,0.0,0.0,0.0,0.0,0.0,0.0,0.0,0.0,0.0,0.0,0.0,0.0,0.0,0.0,0.0,0.0,0.0,0.0,0.0,0.0,0.0,0.0,0.0,0.0,0.0,0.0,0.0,0.0,0.0,0.0,0.0,0.0,0.0,0.0,0.0,0.0,0.0,0.0,0.0,0.0,0.0,0.0,0.0,0.0,0.0,0.0,0.0,0.0,0.0,0.0,0.0,0.0,0.0,0.0,0.0,0.0,0.0,0.0,0.0,0.0,0.0,0.0,0.0,0.0,0.0,0.0,0.0,0.0,0.0,0.0,0.0,0.0,0.0,0.0,0.0,-1.1281,-1.7424,-2.2845,-2.7383,-3.0734,-2.8343,-2.6409,0.0,0.0,0.0,0.0,0.0,0.0,0.0,0.0,0.0,0.0,0.0,0.0,0.0,0.0,0.0,0.0,0.0,0.0,0.0,0.0,0.0,0.0,0.0,0.0,0.0,0.0,0.0,0.0,0.0,0.0,0.0,0.0,0.0,0.0,0.0,0.0,0.0,0.0,0.0,0.0,0.0,0.0,0.0,0.0,0.0,0.0,0.0,0.0,0.0,0.0,0.0,0.0,0.0,0.0,0.0,0.0,0.0,0.0,0.0,0.0,0.0,0.0,0.0,0.0,0.0,0.0,0.0,0.0,0.0,0.0,0.0,0.0,0.0,0.0,0.0,0.0,0.0,0.0,0.0,0.0,0.0,0.0,0.0,0.0,0.0,0.0,0.0,0.0,0.0,0.0,0.0,0.0,0.0,0.0,0.0,0.0,0.0,0.0,0.0,0.0,0.0,0.0,0.0,0.0,0.0,0.0,0.0,0.0,-1.3324,-1.9374,-2.4349,-2.8533,-3.1909,-3.0285,-2.8943,0.0,0.0,0.0,0.0,0.0,0.0,0.0,0.0,0.0,0.0,0.0,0.0,0.0,0.0,0.0,0.0,0.0,0.0,0.0,0.0,0.0,0.0,0.0,0.0,0.0,0.0,0.0,0.0,0.0,0.0,0.0,0.0,0.0,0.0,0.0,0.0,0.0,0.0,0.0,0.0,0.0,0.0,0.0,0.0,0.0,0.0,0.0,0.0,-2.7067,0.0,0.0,0.0,0.0,0.0,0.0,0.0,0.0,0.0,0.0,0.0,0.0,0.0,0.0,0.0,0.0,0.0,0.0,0.0,0.0,0.0,0.0,0.0,0.0,0.0,0.0,0.0,0.0,0.0,0.0,0.0,0.0,0.0,0.0,0.0,0.0,0.0,0.0,0.0,0.0,0.0,0.0,0.0,0.0,0.0,0.0,0.0,0.0,0.0,0.0,0.0,0.0,0.0,0.0,0.0,0.0,0.0,0.0,0.0,-1.7065,-2.1113,-2.6012,-3.0007,-3.2915,-3.2174,-3.1101,0.0,0.0,0.0,0.0,0.0,0.0,0.0,0.0,0.0,0.0,0.0,0.0,0.0,0.0,0.0,0.0,0.0,0.0,0.0,0.0,0.0,0.0,0.0,0.0,0.0,0.0,0.0,0.0,0.0,0.0,0.0,0.0,0.0,0.0,0.0,0.0,0.0,0.0,0.0,0.0,0.0,0.0,0.0,0.0,0.0,0.0,0.0,0.0,0.0,0.0,0.0,0.0,0.0,0.0,0.0,0.0,0.0,0.0,0.0,0.0,0.0,0.0,0.0,0.0,0.0,0.0,0.0,0.0,0.0,0.0,0.0,0.0,0.0,0.0,0.0,0.0,0.0,0.0,0.0,0.0,0.0,0.0,0.0,0.0,0.0,0.0,0.0,0.0,0.0,0.0,0.0,0.0,0.0,0.0,0.0,0.0,0.0,0.0,0.0,0.0,0.0,0.0,0.0,0.0,0.0,0.0,0.0,-1.5833,-2.0726,-2.3077,-2.789,-3.1658,-3.4068,-3.3722,-3.2635,-3.0809,0.0,0.0,0.0,0.0,0.0,0.0,0.0,0.0,0.0,0.0,0.0,0.0,0.0,0.0,0.0,0.0,0.0,0.0,0.0,0.0,0.0,0.0,0.0,0.0,0.0,0.0,0.0,0.0,0.0,0.0,0.0,0.0,0.0,0.0,0.0,0.0,0.0,0.0,-2.5812,-2.7344,0.0,0.0,0.0,0.0,0.0,0.0,0.0,0.0,-2.993,0.0,0.0,0.0,0.0,0.0,0.0,0.0,0.0,0.0,0.0,0.0,0.0,0.0,0.0,0.0,0.0,0.0,0.0,0.0,0.0,0.0,0.0,0.0,0.0,0.0,0.0,0.0,0.0,0.0,0.0,0.0,0.0,0.0,0.0,0.0,0.0,0.0,0.0,0.0,0.0,0.0,0.0,0.0,0.0,0.0,0.0,0.0,0.0,0.0,0.0,0.0,0.0,0.0,0.0,0.0,0.0,-1.3919,-1.7324,-2.1203,-2.5651,-2.9559,-3.261,-3.4581,-3.3931,-3.281,-3.1286,0.0,0.0,0.0,0.0,0.0,0.0,0.0,0.0,0.0,0.0,0.0,0.0,0.0,0.0,0.0,0.0,0.0,0.0,0.0,0.0,0.0,0.0,0.0,0.0,0.0,0.0,0.0,0.0,0.0,0.0,0.0,0.0,0.0,0.0,0.0,0.0,0.0,0.0,0.0,-2.875,-2.9528,0.0,0.0,0.0,0.0,0.0,0.0,0.0,0.0,-3.0733,0.0,0.0,0.0,0.0,0.0,0.0,0.0,0.0,0.0,0.0,0.0,0.0,0.0,0.0,0.0,0.0,0.0,0.0,0.0,0.0,0.0,0.0,0.0,0.0,0.0,0.0,0.0,0.0,0.0,0.0,0.0,0.0,0.0,0.0,0.0,0.0,0.0,0.0,0.0,0.0,0.0,0.0,0.0,0.0,0.0,0.0,0.0,0.0,0.0,0.0,0.0,0.0,0.0,0.0,0.0,-1.4874,-1.8672,-2.2774,-2.7176,-3.0889,-3.3337,-3.451,-3.4057,-3.2757,0.0,0.0,0.0,0.0,0.0,0.0,0.0,0.0,0.0,0.0,0.0,0.0,0.0,0.0,0.0,0.0,0.0,0.0,0.0,0.0,0.0,0.0,0.0,0.0,0.0,0.0,0.0,0.0,0.0,0.0,0.0,0.0,0.0,0.0,0.0,0.0,0.0,0.0,0.0,0.0,-2.9349,-3.0227,-3.0583,0.0,0.0,0.0,0.0,0.0,0.0,-3.1938,-3.1989,0.0,0.0,0.0,0.0,0.0,0.0,0.0,0.0,0.0,0.0,0.0,0.0,0.0,0.0,0.0,0.0,0.0,0.0,0.0,0.0,0.0,0.0,0.0,0.0,0.0,0.0,0.0,0.0,0.0,0.0,0.0,0.0,0.0,0.0,0.0,0.0,0.0,0.0,0.0,0.0,0.0,0.0,0.0,0.0,0.0,0.0,0.0,0.0,0.0,0.0,0.0,0.0,0.0,0.0,0.0,-1.5498,-2.0295,-2.4802,-2.8799,-3.2207,-3.4148,-3.4715,-3.408,-3.2626,0.0,0.0,0.0,0.0,0.0,0.0,0.0,0.0,0.0,0.0,0.0,0.0,0.0,0.0,0.0,0.0,0.0,0.0,0.0,0.0,0.0,0.0,0.0,0.0,0.0,0.0,0.0,0.0,0.0,0.0,0.0,0.0,0.0,0.0,0.0,0.0,0.0,0.0,0.0,0.0,0.0,-3.0785,-3.1555,-3.1386,0.0,0.0,0.0,0.0,-3.3169,-3.3244,0.0,0.0,0.0,0.0,0.0,0.0,0.0,0.0,0.0,0.0,0.0,0.0,0.0,0.0,0.0,0.0,0.0,0.0,0.0,0.0,0.0,0.0,0.0,0.0,0.0,0.0,0.0,0.0,0.0,0.0,0.0,0.0,0.0,0.0,0.0,0.0,0.0,0.0,0.0,0.0,0.0,0.0,0.0,0.0,0.0,0.0,0.0,0.0,0.0,0.0,0.0,0.0,0.0,0.0,0.0,0.0,-1.8208,-2.274,-2.7102,-3.1302,-3.3801,-3.523,-3.5646,-3.4262,-3.265,0.0,0.0,0.0,0.0,0.0,0.0,0.0,0.0,0.0,0.0,0.0,0.0,0.0,0.0,0.0,0.0,0.0,0.0,0.0,0.0,0.0,0.0,0.0,0.0,0.0,0.0,0.0,0.0,0.0,0.0,0.0,0.0,0.0,0.0,0.0,0.0,0.0,0.0,0.0,0.0,0.0,-3.1734,-3.245,-3.2646,-3.2817,0.0,0.0,-3.3169,-3.3721,-3.3796,0.0,0.0,0.0,0.0,0.0,0.0,0.0,0.0,0.0,0.0,0.0,0.0,0.0,0.0,0.0,0.0,0.0,0.0,0.0,0.0,0.0,0.0,0.0,0.0,0.0,0.0,0.0,0.0,0.0,0.0,0.0,0.0,0.0,0.0,0.0,0.0,0.0,0.0,0.0,0.0,0.0,0.0,0.0,0.0,0.0,0.0,0.0,0.0,0.0,0.0,0.0,0.0,0.0,0.0,0.0,-1.544,-1.9942,-2.4313,-2.8428,-3.2241,-3.4435,-3.5774,-3.6106,-3.4622,-3.2803,0.0,0.0,0.0,0.0,0.0,0.0,0.0,0.0,0.0,0.0,0.0,0.0,0.0,0.0,0.0,0.0,0.0,0.0,0.0,0.0,0.0,0.0,0.0,0.0,0.0,0.0,0.0,0.0,0.0,0.0,0.0,0.0,0.0,0.0,0.0,0.0,0.0,0.0,0.0,0.0,0.0,0.0,-3.2983,-3.362,0.0,0.0,0.0,-3.5027,-3.5278,0.0,0.0,0.0,0.0,0.0,0.0,0.0,0.0,0.0,0.0,0.0,0.0,0.0,0.0,0.0,0.0,0.0,0.0,0.0,0.0,0.0,0.0,0.0,0.0,0.0,0.0,0.0,0.0,0.0,0.0,0.0,0.0,0.0,0.0,0.0,0.0,0.0,0.0,0.0,0.0,0.0,0.0,0.0,0.0,0.0,0.0,0.0,0.0,0.0,0.0,0.0,0.0,0.0,0.0,0.0,0.0,0.0,-2.1518,-2.5898,-2.9757,-3.3162,-3.521,-3.643,-3.6715,-3.5357,0.0,0.0,0.0,0.0,0.0,0.0,0.0,0.0,0.0,0.0,0.0,0.0,0.0,0.0,0.0,0.0,0.0,0.0,0.0,0.0,0.0,0.0,0.0,0.0,0.0,0.0,0.0,-1.8659,0.0,0.0,0.0,0.0,0.0,0.0,0.0,0.0,0.0,0.0,0.0,0.0,0.0,0.0,-3.2372,-3.381,-3.4794,-3.5378,0.0,0.0,-3.6634,-3.6784,-3.6558,-3.6031,0.0,0.0,0.0,0.0,0.0,0.0,0.0,0.0,0.0,0.0,0.0,0.0,0.0,0.0,0.0,0.0,0.0,0.0,0.0,0.0,0.0,0.0,0.0,0.0,0.0,0.0,0.0,0.0,0.0,0.0,0.0,0.0,0.0,0.0,0.0,0.0,0.0,0.0,0.0,0.0,0.0,0.0,0.0,0.0,0.0,0.0,0.0,0.0,0.0,0.0,0.0,0.0,0.0,0.0,-1.9318,-2.3335,-2.7606,-3.1375,-3.4824,-3.6445,-3.7508,-3.7899,-3.6609,-3.4684,0.0,0.0,0.0,0.0,0.0,0.0,0.0,0.0,0.0,0.0,0.0,0.0,0.0,0.0,0.0,0.0,0.0,0.0,0.0,0.0,0.0,0.0,0.0,0.0,0.0,0.0,0.0,0.0,0.0,0.0,0.0,0.0,0.0,0.0,0.0,0.0,0.0,0.0,0.0,0.0,0.0,-3.3825,-3.5276,-3.6372,-3.7186,0.0,-3.7412,-3.7312,-3.7814,-3.7036,-3.6157,-3.5276,0.0,0.0,0.0,0.0,0.0,0.0,0.0,0.0,0.0,0.0,0.0,0.0,0.0,0.0,0.0,0.0,0.0,0.0,0.0,0.0,0.0,0.0,0.0,0.0,0.0,0.0,0.0,0.0,0.0,0.0,0.0,0.0,0.0,0.0,0.0,0.0,0.0,0.0,0.0,0.0,0.0,0.0,0.0,0.0,0.0,0.0,0.0,0.0,0.0,0.0,0.0,0.0,0.0,-2.0783,-2.4668,-2.8839,-3.2052,-3.4605,-3.6919,-3.8517,-3.933,-3.7609,-3.5818,0.0,0.0,0.0,0.0,0.0,0.0,0.0,0.0,0.0,0.0,0.0,0.0,0.0,0.0,0.0,0.0,0.0,0.0,0.0,0.0,0.0,0.0,0.0,0.0,0.0,0.0,0.0,0.0,-1.9417,-1.9537,-1.9533,0.0,0.0,0.0,0.0,0.0,0.0,0.0,0.0,0.0,0.0,-3.4023,-3.5794,-3.7045,0.0,0.0,-3.814,-3.8165,-3.8015,-3.7663,-3.6964,-3.5924,-3.3958,0.0,0.0,0.0,0.0,0.0,0.0,0.0,0.0,0.0,0.0,0.0,0.0,0.0,0.0,0.0,0.0,0.0,0.0,0.0,0.0,0.0,0.0,0.0,0.0,0.0,0.0,0.0,0.0,0.0,0.0,0.0,0.0,0.0,0.0,0.0,0.0,0.0,0.0,0.0,0.0,0.0,0.0,0.0,0.0,0.0,0.0,0.0,0.0,0.0,0.0,0.0,0.0,-2.2195,-2.6268,-2.9978,-3.303,-3.5352,-3.7789,-3.9402,-4.0223,-3.8628,-3.7017,0.0,0.0,0.0,0.0,0.0,0.0,0.0,0.0,0.0,0.0,0.0,0.0,0.0,0.0,0.0,0.0,0.0,0.0,0.0,0.0,0.0,0.0,0.0,0.0,0.0,0.0,0.0,0.0,-1.9184,-1.9145,-1.9163,0.0,0.0,0.0,0.0,0.0,0.0,0.0,0.0,0.0,0.0,-3.4559,-3.6405,-3.7567,-3.8191,-3.8191,-3.854,-3.8716,-3.8166,-3.7842,-3.7344,-3.5985,0.0,0.0,0.0,0.0,0.0,0.0,0.0,0.0,0.0,0.0,0.0,0.0,0.0,0.0,0.0,0.0,0.0,0.0,0.0,0.0,0.0,0.0,0.0,0.0,0.0,0.0,0.0,0.0,0.0,0.0,1.1857,0.0,0.0,0.0,0.0,0.0,0.0,0.0,0.0,0.0,0.0,0.0,0.0,0.0,0.0,0.0,0.0,0.0,0.0,0.0,0.0,0.0,0.0,-2.3694,-2.7964,-3.1281,-3.4557,-3.7791,-3.9232,-4.0014,-4.0486,-3.9946,-3.8495,-3.6193,0.0,0.0,0.0,0.0,0.0,0.0,0.0,0.0,0.0,0.0,0.0,0.0,0.0,0.0,0.0,0.0,0.0,0.0,0.0,0.0,0.0,0.0,0.0,0.0,0.0,0.0,-1.8913,-1.884,-1.8914,0.0,0.0,0.0,0.0,0.0,0.0,0.0,0.0,0.0,-2.9626,-3.2868,-3.5426,-3.6988,-3.8136,-3.8767,-3.8767,-3.8792,-3.8644,-3.8128,-3.7587,-3.6775,0.0,0.0,0.0,0.0,0.0,0.0,0.0,0.0,0.0,0.0,0.0,0.0,0.0,0.0,0.0,0.0,0.0,0.0,0.0,0.0,0.0,0.0,0.0,0.0,0.0,0.0,0.0,1.5193,1.6823,0.0,0.0,0.0,0.0,0.0,0.0,0.0,0.0,0.0,0.0,0.0,0.57,0.3013,0.0,0.0,0.0,0.0,0.0,0.0,0.0,0.0,0.0,0.0,0.0,0.0,-2.5476,-2.9095,-3.2781,-3.5593,-3.7664,-3.9261,-4.0166,-4.0094,-3.9663,-3.7989,-3.4982,0.0,0.0,0.0,0.0,0.0,0.0,0.0,0.0,0.0,0.0,0.0,0.0,0.0,0.0,0.0,0.0,0.0,0.0,0.0,0.0,0.0,0.0,0.0,0.0,0.0,-1.9573,0.0,0.0,0.0,0.0,0.0,0.0,0.0,0.0,0.0,0.0,0.0,-2.7957,-3.0547,-3.3005,-3.5167,-3.6932,-3.7536,-3.795,0.0,0.0,0.0,0.0,0.0,0.0,0.0,0.0,0.0,0.0,0.0,0.0,0.0,0.0,-3.4502,-3.3508,-3.3194,-3.3068,-3.3068,0.0,0.0,0.0,0.0,0.0,0.0,0.0,0.0,0.0,0.0,0.0,0.0,0.0,0.0,2.1471,0.0,2.1375,0.0,0.0,0.0,0.0,0.0,0.0,0.0,0.0,0.9391,0.6848,0.3619,0.0792,-0.2481,0.0,-0.9991,-1.1634,0.0,0.0,0.0,0.0,0.0,0.0,0.0,0.0,-2.706,-3.0701,-3.3974,-3.6548,-3.8206,-3.965,-4.0285,-4.0017,-3.9215,-3.7544,-3.4861,-3.2594,-3.0381,0.0,0.0,0.0,0.0,0.0,0.0,0.0,0.0,0.0,0.0,0.0,0.0,0.0,0.0,0.0,0.0,0.0,0.0,0.0,0.0,0.0,0.0,0.0,-1.9545,0.0,0.0,0.0,0.0,0.0,0.0,0.0,0.0,0.0,-2.4822,-2.6526,-2.8545,-3.1019,-3.2871,-3.4544,-3.6031,0.0,0.0,0.0,0.0,0.0,0.0,0.0,-3.6826,-3.6098,-3.6086,-3.6061,-3.6117,-3.6494,-3.7015,-3.7757,0.0,0.0,-3.6118,-3.5855,-3.5855,-3.5855,-3.5855,-3.5762,-3.5669,-3.5818,-3.5968,0.0,0.0,0.0,0.0,0.0,0.0,0.0,0.0,2.875,2.8865,0.0,2.7711,0.0,0.0,0.0,0.0,0.0,1.4424,0.0,0.0,0.7692,0.4628,0.1099,-0.232,-0.5581,-0.8622,-1.1224,-1.3461,-1.5569,-1.5239,0.0,0.0,0.0,0.0,0.0,0.0,-2.8746,-3.2762,-3.5088,-3.7318,-3.9597,-4.0185,-4.0385,-4.0207,-3.8897,-3.7389,-3.5849,-3.4192,-3.2269,-3.0266,-2.8007,0.0,0.0,0.0,0.0,0.0,0.0,0.0,0.0,0.0,0.0,0.0,0.0,0.0,0.0,0.0,0.0,0.0,0.0,0.0,0.0,-1.9253,0.0,0.0,0.0,0.0,0.0,0.0,0.0,0.0,0.0,0.0,-2.6172,-2.7562,-2.9221,-3.1045,0.0,0.0,0.0,0.0,-3.6117,-3.6454,-3.6884,-3.7133,-3.6858,-3.6924,-3.6652,-3.6173,0.0,0.0,-3.7656,-3.8344,-3.9127,-3.9836,-4.0379,-4.0269,-3.8566,-3.8166,-3.8216,-3.8216,-3.8241,-3.8191,-3.8216,-3.8668,-3.8994,3.0216,0.0,0.0,0.0,0.0,3.1803,3.3406,3.4629,3.4658,3.4682,3.4541,3.2306,0.0,0.0,0.0,0.0,0.0,0.0,1.0896,0.8055,0.5068,0.1608,-0.2396,-0.5301,-0.8432,-1.1642,-1.4099,-1.6177,-1.7972,-1.9104,-1.9367,-1.8631,0.0,0.0,0.0,0.0,-3.0926,-3.3734,-3.6502,-3.8287,-3.9362,-3.9981,-3.9904,-3.9226,-3.8445,-3.7346,-3.6174,-3.5274,-3.3845,-3.1996,-3.0113,0.0,0.0,0.0,0.0,0.0,0.0,0.0,0.0,0.0,0.0,0.0,0.0,0.0,0.0,0.0,0.0,0.0,0.0,0.0,-1.995,-2.021,-2.0468,0.0,0.0,0.0,0.0,0.0,0.0,0.0,0.0,0.0,-2.8447,-2.9115,-2.9939,0.0,0.0,-3.3226,-3.3947,-3.4697,-3.5345,-3.5714,-3.6077,0.0,-3.6197,-3.6462,-3.6523,-3.6136,-3.6697,-3.7637,-3.8873,-3.9295,-3.987,-4.0974,-4.1354,-4.1423,-4.1696,-4.1422,-4.1255,-4.123,-4.1447,-4.1555,-4.1555,-4.1706,-4.1781,3.8449,3.5429,3.4673,3.5032,3.6356,3.8286,3.9699,4.0579,4.0277,3.9869,3.9142,3.6432,3.3771,3.1015,2.5948,0.0,0.0,0.0,0.8735,0.507,0.1901,-0.1814,-0.5942,-0.8853,-1.1743,-1.4871,-1.7063,-1.8973,-2.0577,-2.2257,-2.2766,-2.2241,0.0,0.0,-2.6288,-2.9808,-3.2672,-3.4817,-3.7317,-3.8916,-3.9465,-3.9775,-3.9424,-3.8532,-3.8176,-3.7464,-3.637,-3.5785,-3.4832,-3.3528,-3.1801,-2.9984,0.0,0.0,0.0,0.0,0.0,0.0,0.0,0.0,0.0,0.0,0.0,-1.934,-1.9666,0.0,0.0,0.0,-1.9885,-2.0213,-2.123,-2.1328,0.0,0.0,0.0,0.0,0.0,0.0,0.0,-2.7012,-2.8047,-2.9023,-2.9961,-3.0525,-3.0991,-3.1186,-3.2133,-3.293,-3.3284,0.0,-3.481,-3.5191,-3.5628,-3.6104,-3.6225,-3.646,-3.6508,-3.6262,-3.7021,-3.7974,-3.9012,-3.9611,-4.0248,-4.1148,-4.1522,-4.2017,-4.2875,-4.3046,-4.3192,-4.3144,-4.3412,-4.3639,-4.3639,-4.3639,-4.3614,4.4674,4.524,4.2422,4.1583,4.2238,4.3938,4.4989,4.527,4.5207,4.4115,4.2338,3.9887,3.6338,3.1622,2.3905,0.0,1.3441,1.0093,0.61,0.1444,-0.1595,-0.5285,-0.9584,-1.2338,-1.5217,-1.7937,-1.982,-2.1542,-2.3206,-2.4642,-2.5737,-2.6539,-2.6298,-2.6851,-2.8348,-3.1637,-3.4119,-3.5813,-3.789,-3.917,-3.9672,-3.9697,-3.9145,-3.804,-3.799,-3.7487,-3.6408,-3.5881,-3.5353,-3.4776,-3.3219,-3.1612,-2.9955,0.0,0.0,0.0,0.0,0.0,0.0,0.0,0.0,0.0,0.0,0.0,0.0,0.0,0.0,0.0,-2.1252,0.0,-2.2578,-2.2695,0.0,0.0,0.0,-2.498,-2.5898,-2.6719,-2.7559,-2.8437,0.0,0.0,-3.0976,-3.1758,-3.2129,-3.1777,-3.2273,-3.2611,-3.265,-3.3753,-3.4524,-3.4899,-3.557,-3.6228,-3.6449,-3.6552,-3.6635,-3.6717,-3.739,-3.79,-3.8442,-3.9109,-4.0062,-4.0581,-4.1142,-4.1888,-4.2523,-4.3434,-4.4255,-4.424,-4.4536,-4.4769,-4.4769,-4.4769,-4.4769,4.7282,4.8027,4.7733,4.7026,4.6011,4.6991,4.7694,4.819,4.7075,4.5668,4.3806,3.9957,3.3776,2.6038,2.048,1.5529,1.1033,0.7135,0.2912,-0.1754,-0.4786,-0.8412,-1.2483,-1.481,-1.713,-1.9433,-2.1556,-2.3219,-2.4698,-2.6531,-2.7852,-2.8663,-2.9756,-3.0328,-3.0454,-3.3311,-3.5514,-3.6819,-3.8633,-3.9572,-3.9697,-3.9697,-3.917,-3.804,-3.799,-3.7487,-3.6408,-3.6232,-3.5906,-3.5353,-3.3995,-3.2486,-3.0842,-2.7704,0.0,0.0,0.0,0.0,0.0,0.0,0.0,0.0,0.0,-2.0751,-2.1232,0.0,-2.2271,0.0,-2.293,-2.3398,-2.3926,-2.4258,0.0,0.0,-2.6152,-2.6855,-2.8027,-2.8633,-2.9414,-3.0625,-3.1016,-3.1504,-3.2246,-3.2793,-3.3223,-3.3418,-3.3262,-3.3368,-3.3681,-3.4428,-3.5042,-3.5171,-3.5481,-3.586,-3.5921,-3.6053,-3.6262,-3.6983,-3.6971,-3.7031,-3.7719,-3.8067,-3.8549,-3.9341,-3.9866,-4.0625,-4.1783,-4.2799,-4.3731,-4.4476,-4.5275,-4.5899,-4.5924,-4.5899,-4.5899,4.9287,4.9908,4.9945,4.9519,4.8889,4.9481,4.9821,4.9854,4.8113,4.6114,4.3642,3.8451,3.1142,2.2593,1.7107,1.2224,0.7612,0.3645,-0.0547,-0.4996,-0.8094,-1.1365,-1.4952,-1.7031,-1.9232,-2.1424,-2.3153,-2.4788,-2.6584,-2.8264,-2.9599,-3.0452,-3.1916,-3.2695,-3.2962,-3.4812,-3.6351,-3.7412,-3.8881,-3.9697,-3.9672,-3.9446,-3.8919,-3.804,-3.7538,-3.6885,-3.6031,-3.5755,-3.5411,-3.5019,-3.399,-3.2734,-3.1321,-2.8395,-2.6188,0.0,0.0,0.0,0.0,0.0,0.0,0.0,0.0,0.0,0.0,0.0,-2.3828,-2.4277,-2.4687,-2.5117,-2.5527,-2.5977,-2.6641,-2.7695,-2.8008,-2.8652,-2.9941,-3.0293,-3.0801,-3.1699,-3.2129,-3.2539,-3.3027,-3.3613,-3.416,-3.459,-3.4453,-3.4316,-3.4375,-3.4858,-3.5264,-3.5284,-3.5554,-3.5825,-3.5805,-3.5909,-3.6147,-3.6479,-3.6539,-3.6654,-3.7079,-3.7213,-3.7616,-3.8283,-3.8946,-3.9713,-4.1142,-4.242,-4.3678,-4.4669,-4.555,-4.618,-4.6326,-4.6326,-4.6326,5.0662,5.1169,5.0478,5.0393,5.0668,5.098,5.0901,5.0432,4.8227,4.5219,4.1355,3.5586,2.8381,2.0104,1.3797,0.8402,0.3892,-0.0139,-0.4073,-0.8111,-1.1074,-1.4114,-1.6987,-1.8821,-2.1057,-2.3406,-2.4617,-2.6183,-2.8398,-2.9683,-3.0877,-3.1963,-3.3248,-3.4444,-3.5369,-3.634,-3.7154,-3.8069,-3.9187,-3.9722,-3.9798,-3.9195,-3.8592,-3.799,-3.6935,-3.6107,-3.5462,-3.4911,-3.4545,-3.4272,-3.3457,-3.2536,-3.1448,-2.8911,-2.708,0.0,-2.3981,0.0,0.0,0.0,0.0,0.0,0.0,0.0,0.0,-2.4629,-2.5586,-2.6035,-2.6465,-2.6894,-2.7305,-2.7734,-2.8476,-2.9668,-2.9824,-3.0312,-3.1504,-3.168,-3.1875,-3.2363,-3.3047,-3.3535,-3.3711,-3.4336,-3.4961,-3.5351,-3.541,-3.5273,-3.5,-3.5234,-3.5469,-3.5469,-3.5781,-3.5918,-3.5937,-3.5996,-3.5996,-3.6016,-3.6268,-3.6384,-3.6384,-3.6674,-3.7079,-3.7482,-3.815,-3.9057,-4.0495,-4.2143,-4.3529,-4.4521,-4.555,-4.618,-4.6301,-4.6326,-4.6326,5.1293,5.1105,5.055,5.0271,5.0022,4.8992,4.8711,4.8904,4.6293,4.0774,3.3432,2.9744,2.4609,1.8094,1.034,0.4455,0.0424,-0.3254,-0.6977,-1.0519,-1.3231,-1.5943,-1.8541,-2.0086,-2.1897,-2.3802,-2.5292,-2.6988,-2.9162,-3.0477,-3.1809,-3.2903,-3.4265,-3.5468,-3.6471,0.0,0.0,0.0,-3.9769,-3.9898,-4.03,-3.9396,-3.8592,-3.8015,-3.6935,0.0,-3.5251,-3.452,-3.4065,-3.379,-3.2731,0.0,0.0,0.0,0.0,0.0,0.0,0.0,0.0,0.0,0.0,0.0,-2.5663,-2.5742,-2.4844,-2.6211,-2.7344,-2.7773,-2.8184,-2.8613,-2.9043,-2.9473,-3.0098,-3.1016,-3.1152,-3.1523,-3.2441,-3.2559,-3.2851,-3.3633,-3.3867,-3.4238,-3.4863,-3.5176,-3.541,-3.5801,-3.5898,-3.5879,-3.5781,-3.582,-3.5898,-3.5918,-3.5976,-3.6035,-3.6035,-3.6035,-3.6035,-3.6016,-3.6016,-3.6152,-3.6152,-3.6152,-3.6403,-3.7079,-3.7729,-3.8772,-4.0495,-4.1888,-4.3404,-4.4521,-4.5428,-4.5939,-4.618,-4.6326,-4.6326,5.1404,0.0,4.9805,4.8837,0.0,4.5944,4.46,4.3544,4.2741,3.7148,2.8511,2.6635,2.1145,1.2959,0.4366,-0.0569,-0.2587,-0.6173,-0.9352,-1.2287,-1.5132,-1.7549,-1.9657,-2.1195,-2.2859,-2.4495,-2.5965,-2.77,-2.9787,-3.0972,-3.2416,-3.3833,-3.4838,-3.6027,-3.7193,-3.8901,-4.0123,-4.0927,-4.0651,-4.0526,-4.0475,-3.9697,-3.8868,-3.8015,-3.6839,0.0,0.0,0.0,0.0,0.0,0.0,0.0,0.0,0.0,0.0,-2.6651,-2.5869,-2.5485,-2.5734,-2.5995,-2.6329,-2.6641,-2.7461,-2.7676,-2.7012,-2.7793,-2.8555,-2.918,-2.9629,-3.0059,-3.0488,-3.0918,-3.1426,-3.2051,-3.2148,-3.2402,-3.2988,-3.3301,-3.3594,-3.4023,-3.4453,-3.4922,-3.5332,-3.5586,-3.5762,-3.5976,-3.6035,-3.6035,-3.6035,-3.6035,-3.6035,-3.6035,-3.6035,-3.6035,-3.6035,-3.6035,-3.6035,-3.6035,-3.6035,-3.6035,-3.6035,-3.6035,-3.6287,-3.6944,-3.7729,-3.8925,-4.0495,-4.2143,-4.3529,-4.4546,-4.5428,-4.6059,-4.6301,-4.6326,-4.6326,5.1372,4.9882,4.8638,4.6943,4.4996,4.261,3.9499,3.623,0.0,0.0,0.0,2.3722,1.759,0.7326,-0.1442,-0.537,-0.5815,-0.8992,-1.1586,-1.3872,-1.6695,-1.8821,-2.0503,-2.216,-2.3816,-2.5172,-2.6635,-2.8345,-3.0325,-3.1359,-3.2765,-3.4383,-3.5269,-3.6503,-3.8015,-3.9842,-4.1087,-4.1522,-4.143,-4.1178,-4.0802,-4.0074,-3.9143,-3.8216,-3.6748,-3.5642,-3.4915,-3.3789,-3.2842,-3.1961,-3.1382,-3.07,-2.9792,-2.888,-2.8219,-2.7702,-2.7043,-2.6902,-2.7614,-2.7525,-2.7832,-2.8691,-2.9062,-2.9258,-2.9258,-2.9258,-2.9629,-3.0469,-3.0879,-3.1289,-3.1699,-3.2051,-3.2441,-3.2851,-3.291,-3.3066,-3.3476,-3.3848,-3.4101,-3.4336,-3.4941,-3.543,-3.5527,-3.5801,-3.6035,-3.6016,-3.6035,-3.6035,-3.6035,-3.6035,-3.6035,-3.6035,-3.6035,-3.6035,-3.6035,-3.6035,-3.6035,-3.6035,-3.6035,-3.6035,-3.6035,-3.6035,-3.6287,-3.7079,-3.8017,-3.9188,-4.0777,-4.2546,-4.3927,-4.4792,-4.5671,-4.6326,-4.6326,-4.6326,-4.6326,5.1502,4.9566,4.7708,4.5338,4.2413,3.9267,3.392,2.7703,2.7994,2.4937,1.9679,1.8628,1.3167,0.4042,-0.4054,-0.8295,-0.9463,-1.1449,-1.3444,-1.5301,-1.7689,-1.9796,-2.1622,-2.2722,-2.421,-2.5965,-2.7035,-2.8757,-3.0584,-3.1488,-3.2765,-3.4278,-3.5314,-3.7341,-4.0082,-4.1322,-4.2202,-4.2735,-4.1831,-4.153,-4.1882,-4.024,-3.9312,-3.9088,-3.6995,-3.5646,-3.5055,-3.3767,-3.2696,-3.1895,-3.1084,-3.0366,-2.985,-2.9288,-2.885,-2.8575,-2.8514,-2.8535,-2.8652,-2.9004,-2.959,-3.043,-3.0586,-3.0605,-3.0605,-3.0625,-3.0976,-3.1797,-3.1934,-3.2168,-3.2559,-3.2656,-3.2871,-3.3262,-3.334,-3.3516,-3.3906,-3.4062,-3.4394,-3.5059,-3.5293,-3.5547,-3.584,-3.5976,-3.6035,-3.6035,-3.6035,-3.6035,-3.6035,-3.6035,-3.6035,-3.6035,-3.6035,-3.6035,-3.6035,-3.6035,-3.6035,-3.6035,-3.6035,-3.6035,-3.6035,-3.6016,-3.6423,-3.7348,-3.815,-3.9451,-4.1271,-4.2799,-4.4051,-4.4939,-4.5817,-4.6301,-4.6326,-4.6326,-4.6326,5.0531,4.7996,4.5511,4.2584,3.9026,3.2988,2.7116,2.1603,1.9187,1.6975,1.4824,1.4324,0.9125,0.0434,-0.6383,-0.9746,-1.0317,-1.2873,-1.4867,-1.6574,-1.8821,-2.0641,-2.2173,-2.3543,-2.5022,-2.6486,-2.8081,-2.9674,-3.112,-3.2019,-3.3019,-3.4173,-3.5869,-3.7812,-4.0083,-4.1172,-4.1883,-4.2425,-4.2152,-4.1988,-4.1913,-4.0755,-3.9619,-3.8526,-3.702,-3.5756,-3.4601,-3.342,-3.2477,-3.1741,-3.1126,-3.0483,-2.9944,-2.9748,-2.9421,-2.9223,-2.929,-2.9375,-2.959,-3.0254,-3.0898,-3.1523,-3.1582,-3.168,-3.1914,-3.1719,-3.1855,-3.2441,-3.25,-3.2676,-3.3086,-3.3144,-3.3223,-3.3398,-3.3633,-3.3848,-3.4082,-3.4531,-3.4941,-3.5351,-3.5605,-3.582,-3.5996,-3.6035,-3.6035,-3.6035,-3.6035,-3.6035,-3.6035,-3.6035,-3.6035,-3.6035,-3.6035,-3.6035,-3.6035,-3.6035,-3.6035,-3.6035,-3.6035,-3.6035,-3.6016,-3.6152,-3.6674,-3.7482,-3.8416,-3.9844,-4.1527,-4.3051,-4.4199,-4.5086,-4.5817,-4.618,-4.6326,-4.6326,-4.6326,4.9173,4.6005,4.3044,3.9047,3.3808,2.6386,2.0661,1.625,1.203,0.9615,0.8754,0.8827,0.4635,-0.2757,-0.828,-1.0756,-1.1299,-1.4006,-1.6141,-1.784,-1.9935,-2.1471,-2.2709,-2.4495,-2.5831,-2.702,-2.9003,-3.0455,-3.1506,-3.2403,-3.3292,-3.4298,-3.6135,-3.7954,-3.9498,-4.0455,-4.1287,-4.1859,-4.1972,-4.184,-4.1558,-4.0765,-3.9618,-3.8166,-3.6951,-3.5813,-3.4352,-3.3291,-3.2374,-3.1761,-3.1207,-3.065,-3.0221,-3.0221,-3.0108,-2.9863,-2.9863,-3.0059,-3.0488,-3.1211,-3.1855,-3.2266,-3.2305,-3.248,-3.2851,-3.2637,-3.2578,-3.2871,-3.293,-3.3066,-3.334,-3.3418,-3.3457,-3.3574,-3.3867,-3.416,-3.4394,-3.498,-3.5449,-3.5527,-3.582,-3.6016,-3.6035,-3.6035,-3.6035,-3.6035,-3.6035,-3.6035,-3.6035,-3.6035,-3.6035,-3.6035,-3.6035,-3.6035,-3.6035,-3.6035,-3.6035,-3.6035,-3.6035,-3.6035,-3.6016,-3.6268,-3.6789,-3.7595,-3.8793,-4.0236,-4.1655,-4.3177,-4.4422,-4.5208,-4.5817,-4.6301,-4.6326,-4.6326,-4.6326,4.7094,4.372,4.0591,3.418,2.5682,2.0496,1.584,1.1335,0.7491,0.3754,0.1013,0.0869,-0.1014,-0.5078,-0.9596,-1.1914,-1.2588,-1.5017,-1.7137,-1.896,-2.078,-2.2448,-2.3802,-2.5292,-2.6769,-2.8097,-2.9543,-3.0843,-3.1873,-3.253,-3.3544,-3.4797,-3.6258,-3.7594,-3.8789,-3.9755,-4.0571,-4.1148,-4.0687,-4.0663,-4.1052,-3.9797,-3.8873,-3.8413,-3.6786,-3.5539,-3.461,-3.3738,-3.2744,-3.1822,-3.1436,-3.109,-3.0878,-3.0762,-3.0762,-3.0762,-3.0762,-3.0957,-3.1367,-3.1836,-3.2285,-3.2676,-3.2734,-3.2891,-3.3301,-3.3301,-3.3301,-3.334,-3.334,-3.3359,-3.3418,-3.3437,-3.3613,-3.3984,-3.4101,-3.4375,-3.5078,-3.5332,-3.5547,-3.5937,-3.5976,-3.6035,-3.6035,-3.6035,-3.6035,-3.6035,-3.6035,-3.6035,-3.6035,-3.6035,-3.6035,-3.6035,-3.6035,-3.6035,-3.6035,-3.6035,-3.6035,-3.6035,-3.6035,-3.6035,-3.6016,-3.6268,-3.6769,-3.7863,-3.9035,-4.0344,-4.1888,-4.3302,-4.4546,-4.5184,-4.5817,-4.6326,-4.6326,-4.6326,-4.6326,4.3623,4.0129,3.6294,2.931,2.0721,1.5785,1.1286,0.7215,0.3397,-0.0296,-0.3557,-0.4889,-0.6176,-0.7548,-1.1338,-1.3356,-1.4156,-1.6433,-1.8401,-2.0074,-2.1747,-2.3133,-2.436,-2.5965,-2.7435,-2.8888,-3.0455,-3.1616,-3.2403,-3.2912,-3.3544,-3.4298,-3.5418,-3.6502,-3.7352,-3.8313,-3.9026,-3.938,-3.9026,-3.867,-3.8648,-3.8444,-3.7843,-3.7104,-3.5822,-3.4812,-3.4039,-3.3289,-3.2733,-3.2197,-3.1742,-3.1368,-3.1269,-3.1035,-3.0996,-3.125,-3.1523,-3.1836,-3.2246,-3.2441,-3.2715,-3.3125,-3.3164,-3.3242,-3.3398,-3.3418,-3.3418,-3.3418,-3.3418,-3.3516,-3.375,-3.3809,-3.3984,-3.4375,-3.4687,-3.5,-3.5332,-3.5625,-3.584,-3.5996,-3.6035,-3.6035,-3.6035,-3.6035,-3.6035,-3.6035,-3.6035,-3.6035,-3.6035,-3.6035,-3.6035,-3.6035,-3.6035,-3.6035,-3.6035,-3.6035,-3.6035,-3.6035,-3.6035,-3.6035,-3.6016,-3.6539,-3.7193,-3.7996,-3.9299,-4.0732,-4.227,-4.3654,-4.4792,-4.5428,-4.5939,-4.6326,-4.6326,-4.6326,-4.6326,3.9347,3.543,3.0052,2.3182,1.5647,1.1038,0.688,0.315,-0.0601,-0.3763,-0.6631,-0.904,-1.0145,-1.0565,-1.3047,-1.4635,-1.5882,-1.7886,-1.9583,-2.1139,-2.2684,-2.4024,-2.5183,-2.6775,-2.8312,-2.9674,-3.1102,-3.2275,-3.2912,-3.3292,-3.3544,-3.3922,-3.4673,-3.5397,-3.6135,-3.6868,-3.7473,-3.7692,-3.7473,-3.6989,-3.6624,-3.6724,-3.6553,-3.577,-3.49,-3.4085,-3.3417,-3.2913,-3.2631,-3.2512,-3.1976,-3.1699,-3.168,-3.1406,-3.1367,-3.154,-3.209,-3.2461,-3.2773,-3.2891,-3.3105,-3.3379,-3.3418,-3.3418,-3.3418,-3.3418,-3.3476,-3.3613,-3.3613,-3.3769,-3.4004,-3.418,-3.4434,-3.4844,-3.5215,-3.541,-3.5566,-3.5859,-3.6016,-3.6035,-3.6035,-3.6035,-3.6035,-3.6035,-3.6035,-3.6035,-3.6035,-3.6035,-3.6035,-3.6035,-3.6035,-3.6035,-3.6035,-3.6035,-3.6035,-3.6035,-3.6035,-3.6035,-3.6035,-3.6016,-3.6152,-3.6809,-3.7616,-3.8528,-3.9975,-4.1271,-4.2673,-4.3927,-4.5037,-4.5671,-4.618,-4.6326,-4.6326,-4.6326,-4.6326,3.4003,2.9352,2.1148,1.5075,1.0324,0.6176,0.2256,-0.1208,-0.4073,-0.6785,-0.906,-1.1158,-1.2784,-1.4096,-1.4547,-1.5562,-1.7311,-1.9047,-2.0779,-2.2497,-2.4072,-2.5365,-2.6603,-2.8067,-2.9243,-3.0431,-3.1617,-3.2478,-3.333,-3.3437,-3.3544,-3.3922,-3.4298,-3.4797,-3.5418,-3.5767,-3.6114,-3.638,-3.6135,-3.589,-3.5418,-3.4922,-3.4777,-3.486,-3.4258,-3.3789,-3.3307,-3.3021,-3.2598,-3.2207,-3.2168,-3.2148,-3.2129,-3.2109,-3.1949,-3.1847,-3.2377,-3.2754,-3.2708,-3.3144,-3.3379,-3.3418,-3.3418,-3.3418,-3.3418,-3.3457,-3.3633,-3.3984,-3.4062,-3.4121,-3.418,-3.4492,-3.4863,-3.5273,-3.5371,-3.5586,-3.5937,-3.5976,-3.6016,-3.6035,-3.6035,-3.6035,-3.6035,-3.6035,-3.6035,-3.6035,-3.6035,-3.6035,-3.6035,-3.6035,-3.6035,-3.6035,-3.6035,-3.6035,-3.6035,-3.6035,-3.6035,-3.6016,-3.6016,-3.6132,-3.6539,-3.7059,-3.8017,-3.9078,-4.0388,-4.1806,-4.3075,-4.4199,-4.5184,-4.5817,-4.618,-4.6326,-4.6326,-4.6326,-4.6326,2.8222,2.3151,1.5311,0.9835,0.6015,0.2311,-0.1233,-0.4319,-0.6942,-0.9254,-1.1403,-1.3239,-1.4916,-1.6419,-1.7461,-1.8208,-1.8987,-2.0283,-2.1726,-2.3456,-2.4734,-2.5944,-2.7354,-2.8968,-3.0542,-3.1751,-3.2787,-3.3566,-3.372,-3.3848,-3.3691,-3.3583,-3.3922,-3.4173,-3.4423,-3.4777,-3.5025,-3.5025,-3.5025,-3.4777,-3.4423,-3.4173,-3.4047,-3.3922,-3.367,-3.3466,-3.3328,-3.3203,-3.3125,-3.2969,-3.2715,-3.2578,-3.2578,-3.2578,-3.2559,-3.2455,-3.2949,-3.3184,-3.3203,-3.332,-3.3418,-3.3418,-3.3418,-3.3418,-3.3457,-3.3672,-3.3906,-3.4121,-3.4629,-3.4883,-3.4922,-3.5059,-3.5312,-3.5684,-3.5801,-3.584,-3.5976,-3.6035,-3.6035,-3.6035,-3.6035,-3.6035,-3.6035,-3.6035,-3.6035,-3.6035,-3.6035,-3.6035,-3.6035,-3.6035,-3.6035,-3.6035,-3.6035,-3.6035,-3.6035,-3.6035,-3.6016,-3.6152,-3.6132,-3.6539,-3.6944,-3.7729,-3.8681,-3.9823,-4.1142,-4.242,-4.3678,-4.4816,-4.5793,-4.6059,-4.6301,-4.6326,-4.6326,-4.6326,-4.6326,2.0466,1.5497,0.9459,0.4973,0.1714,-0.1561,-0.4374,-0.7033,-0.9376,-1.1553,-1.3414,-1.5105,-1.6635,-1.8309,-1.9671,-2.0705,-2.1132,-2.1983,-2.2998,-2.4309,-2.5741,-2.6959,-2.8392,-3.0035,-3.1602,-3.2703,-3.3898,-3.4289,-3.4316,-3.4277,-3.4121,-3.3867,-3.3965,-3.4013,-3.3994,-3.4001,-3.4047,-3.4047,-3.4047,-3.3922,-3.3796,-3.367,-3.3418,-3.3292,-3.3165,-3.3292,-3.3418,-3.3418,-3.3418,-3.3379,-3.3144,-3.2988,-3.2988,-3.2988,-3.2988,-3.3027,-3.3262,-3.3418,-3.3418,-3.3418,-3.3418,-3.3418,-3.3418,-3.3418,-3.3437,-3.3828,-3.4101,-3.4375,-3.4922,-3.541,-3.5547,-3.5586,-3.5723,-3.5976,-3.6035,-3.6035,-3.6035,-3.6035,-3.6035,-3.6035,-3.6035,-3.6035,-3.6035,-3.6035,-3.6035,-3.6035,-3.6035,-3.6035,-3.6035,-3.6035,-3.6016,-3.6132,-3.6132,-3.6287,-3.6423,-3.6694,-3.6423,-3.6403,-3.6809,-3.7079,-3.7729,-3.8528,-3.9561,-4.0732,-4.1888,-4.3153,-4.4422,-4.555,-4.6059,-4.6301,-4.6326,-4.6326,-4.6326,-4.6326,-4.6301,1.0827,0.6995,0.3274,0.0156,-0.2814,-0.5159,-0.7505,-0.9537,-1.1553,-1.3414,-1.5113,-1.6635,-1.8299,-1.9811,-2.1026,-2.2347,-2.3497,-2.3914,-2.4369,-2.5409,-2.7156,-2.8442,-2.946,-3.1254,-3.2485,-3.3385,-3.422,-3.4746,-3.4707,-3.4707,-3.4668,-3.459,-3.4238,-3.4171,-3.4043,-3.3799,-3.3457,-3.3544,-3.3544,-3.3418,-3.3292,-3.3165,-3.2912,-3.2931,-3.2912,-3.3038,-3.3292,-3.3418,-3.3418,-3.3418,-3.3398,-3.3398,-3.3359,-3.3359,-3.3398,-3.3359,-3.3418,-3.3418,-3.3418,-3.3418,-3.3418,-3.3418,-3.3418,-3.3437,-3.3555,-3.3887,-3.4297,-3.4707,-3.5156,-3.5566,-3.5898,-3.5957,-3.5976,-3.6035,-3.6035,-3.6035,-3.6035,-3.6035,-3.6035,-3.6035,-3.6035,-3.6035,-3.6035,-3.6035,-3.6035,-3.6035,-3.6035,-3.6035,-3.6035,-3.6035,-3.6152,-3.6384,-3.6519,-3.6674,-3.6944,-3.7348,-3.7079,-3.6924,-3.7482,-3.7883,-3.866,-3.9583,-4.0732,-4.1888,-4.3153,-4.4299,-4.4939,-4.5939,-4.618,-4.6326,-4.6326,-4.6326,-4.6326,-4.6301,-4.618,0.6217,0.2651,-0.0624,-0.422,-0.7521,-0.8604,-0.9842,-1.1708,-1.3414,-1.5113,-1.6788,-1.8309,-1.9811,-2.1026,-2.2235,-2.3426,-2.4475,-2.5198,-2.5946,-2.6677,-2.7825,-2.9202,-3.0667,-3.2332,-3.3935,-3.495,-3.5471,-3.5449,-3.5215,-3.5176,-3.5039,-3.4726,-3.457,-3.4355,-3.4121,-3.3926,-3.375,-3.3437,-3.3418,-3.3292,-3.3038,-3.2912,-3.2804,-3.2549,-3.2549,-3.2657,-3.3058,-3.3292,-3.3418,-3.3418,-3.3418,-3.3418,-3.3418,-3.3418,-3.3418,-3.3418,-3.3418,-3.3418,-3.3418,-3.3418,-3.3418,-3.3418,-3.3418,-3.3574,-3.3867,-3.4258,-3.4687,-3.5137,-3.5566,-3.5898,-3.5996,-3.6035,-3.6035,-3.6035,-3.6035,-3.6035,-3.6035,-3.6035,-3.6035,-3.6035,-3.6035,-3.6035,-3.6035,-3.6035,-3.6035,-3.6035,-3.6035,-3.6035,-3.6035,-3.6016,-3.6152,-3.6384,-3.6654,-3.7193,-3.7863,-3.8528,-3.8772,-3.8639,-3.8793,-3.9188,-3.9953,-4.0732,-4.2016,-4.3153,-4.4299,-4.5061,-4.5696,-4.6059,-4.618,-4.6326,-4.6326,-4.6326,-4.6326,-4.618,-4.618,0.2183,-0.1093,-0.422,-0.7197,-1.0186,-1.063,-1.1863,-1.3568,-1.5267,-1.6788,-1.8309,-1.9811,-2.1014,-2.2223,-2.3129,-2.4031,-2.4904,-2.6078,-2.7114,-2.784,-2.8835,-3.0124,-3.1525,-3.3502,-3.4902,-3.5743,-3.6016,-3.5879,-3.5644,-3.5625,-3.5469,-3.5215,-3.5039,-3.4844,-3.4551,-3.4375,-3.4101,-3.373,-3.3544,-3.3339,-3.2988,-3.2549,-3.2294,-3.2019,-3.2019,-3.2147,-3.253,-3.2912,-3.3292,-3.3418,-3.3418,-3.3418,-3.3418,-3.3418,-3.3418,-3.3418,-3.3418,-3.3418,-3.3418,-3.3418,-3.3418,-3.3437,-3.3574,-3.3769,-3.4121,-3.457,-3.5117,-3.5371,-3.5762,-3.6035,-3.6016,-3.6035,-3.6035,-3.6035,-3.6035,-3.6035,-3.6035,-3.6035,-3.6035,-3.6035,-3.6035,-3.6035,-3.6035,-3.6035,-3.6035,-3.6035,-3.6035,-3.6035,-3.6016,-3.6152,-3.6403,-3.6789,-3.7461,-3.8129,-3.8772,-3.9561,-4.0366,-4.0366,-4.0366,-4.0755,-4.1248,-4.2143,-4.3153,-4.4175,-4.5306,-4.5574,-4.6059,-4.618,-4.6326,-4.6326,-4.6326,-4.6326,-4.6301,-4.6059,-4.5939,-0.1562,-0.4849,-0.7201,-0.9231,-1.094,-1.2172,-1.3568,-1.5267,-1.6788,-1.8461,-1.9962,-2.1176,-2.2223,-2.2967,-2.3735,-2.4462,-2.5465,-2.6502,-2.7825,-2.9122,-3.0124,-3.1243,-3.2666,-3.449,-3.547,-3.5879,-3.6035,-3.6016,-3.5957,-3.5957,-3.6016,-3.5879,-3.5566,-3.5391,-3.5215,-3.4941,-3.4531,-3.405,-3.3676,-3.3373,-3.3231,-3.2057,-3.1377,-3.1377,-3.1377,-3.1635,-3.2147,-3.2657,-3.3165,-3.3292,-3.3418,-3.3418,-3.3418,-3.3418,-3.3418,-3.3418,-3.3418,-3.3418,-3.3418,-3.3418,-3.3457,-3.3555,-3.3828,-3.4121,-3.4336,-3.4902,-3.5351,-3.5508,-3.582,-3.6035,-3.6035,-3.6035,-3.6035,-3.6035,-3.6035,-3.6035,-3.6035,-3.6035,-3.6035,-3.6035,-3.6035,-3.6035,-3.6035,-3.6035,-3.6035,-3.6035,-3.6035,-3.6035,-3.6152,-3.6403,-3.6944,-3.7461,-3.8262,-3.9299,-4.0084,-4.0991,-4.1761,-4.227,-4.2143,-4.227,-4.265,-4.3428,-4.4175,-4.5184,-4.5817,-4.6059,-4.6326,-4.6326,-4.6326,-4.6326,-4.6326,-4.6326,-4.618,-4.5939,-4.5671,-0.4852,-0.8466,-0.9542,-1.094,-1.2494,-1.4037,-1.5573,-1.694,-1.8451,-1.9811,-2.1176,-2.2384,-2.3141,-2.3735,-2.4179,-2.4918,-2.5786,-2.6808,-2.8259,-2.9695,-3.1101,-3.2806,-3.4352,-3.5196,-3.5606,-3.6016,-3.6035,-3.6035,-3.6035,-3.6035,-3.6035,-3.6016,-3.5898,-3.5684,-3.541,-3.5006,-3.4583,-3.4178,-3.344,-3.2879,-3.2357,-3.1783,-3.1249,-3.1009,-3.1009,-3.1506,-3.2275,-3.2912,-3.3292,-3.3418,-3.3418,-3.3418,-3.3418,-3.3418,-3.3418,-3.3418,-3.3418,-3.3418,-3.3437,-3.3437,-3.3574,-3.3867,-3.4062,-3.4355,-3.5019,-3.5234,-3.5547,-3.5762,-3.5976,-3.6035,-3.6035,-3.6035,-3.6035,-3.6035,-3.6035,-3.6035,-3.6035,-3.6035,-3.6035,-3.6035,-3.6035,-3.6035,-3.6035,-3.6035,-3.6035,-3.6035,-3.6016,-3.6152,-3.6268,-3.6674,-3.7213,-3.8262,-3.9188,-4.0344,-4.1377,-4.227,-4.3177,-4.3903,-4.4027,-4.3927,-4.4175,-4.4546,-4.5306,-4.6059,-4.6059,-4.6326,-4.6326,-4.6326,-4.6326,-4.6326,-4.6326,-4.6301,-4.6059,-4.5817,-4.5306,-0.8145,-1.0342,-1.1256,-1.2649,-1.4199,-1.5735,-1.7102,-1.8451,-1.9962,-2.1176,-2.2384,-2.329,-2.3896,-2.4193,-2.4488,-2.5079,-2.596,-2.6969,-2.8403,-2.9981,-3.1824,-3.3659,-3.4921,-3.547,-3.5743,-3.6035,-3.6035,-3.6035,-3.6035,-3.6035,-3.6035,-3.6016,-3.5879,-3.5627,-3.5433,-3.4833,-3.4353,-3.3937,-3.3123,-3.2316,-3.172,-3.1208,-3.0897,-3.0732,-3.0861,-3.1635,-3.253,-3.3165,-3.3418,-3.3418,-3.3418,-3.3418,-3.3418,-3.3418,-3.3418,-3.3418,-3.3418,-3.3476,-3.3672,-3.3691,-3.3887,-3.4277,-3.4473,-3.4863,-3.5293,-3.5527,-3.5801,-3.5957,-3.6016,-3.6035,-3.6035,-3.6035,-3.6035,-3.6035,-3.6035,-3.6035,-3.6035,-3.6035,-3.6035,-3.6035,-3.6035,-3.6035,-3.6035,-3.6035,-3.6035,-3.6035,-3.6035,-3.6152,-3.6384,-3.6944,-3.775,-3.8925,-4.0105,-4.1248,-4.2397,-4.3404,-4.4051,-4.4792,-4.5159,-4.5184,-4.5184,-4.5453,-4.5817,-4.618,-4.6301,-4.6326,-4.6326,-4.6326,-4.6326,-4.6326,-4.6326,-4.618,-4.5939,-4.5428,-4.4939,-1.0808,-1.0934,-1.2649,-1.4199,-1.5888,-1.7102,-1.8613,-1.9962,-2.1325,-2.2384,-2.329,-2.3883,-2.4193,-2.4636,-2.4636,-2.5226,-2.6121,-2.7114,-2.8547,-3.0409,-3.2386,-3.4075,-3.4784,-3.547,-3.5879,-3.6035,-3.6035,-3.6035,-3.6035,-3.6035,-3.6016,-3.5879,-3.5626,-3.5333,-3.4983,-3.4471,-3.4009,-3.3403,-3.2593,-3.181,-3.1336,-3.096,-3.0597,-3.0584,-3.1359,-3.2019,-3.2785,-3.3184,-3.3418,-3.3418,-3.3418,-3.3418,-3.3418,-3.3418,-3.3418,-3.3457,-3.3516,-3.3691,-3.3984,-3.4082,-3.4316,-3.4726,-3.5137,-3.543,-3.5527,-3.5781,-3.5976,-3.6016,-3.6035,-3.6035,-3.6035,-3.6035,-3.6035,-3.6035,-3.6035,-3.6035,-3.6035,-3.6035,-3.6035,-3.6035,-3.6035,-3.6035,-3.6035,-3.6035,-3.6035,-3.6016,-3.6152,-3.6403,-3.6924,-3.7616,-3.8528,-3.9844,-4.1013,-4.2166,-4.3302,-4.4422,-4.5061,-4.555,-4.5817,-4.5817,-4.5817,-4.5939,-4.6059,-4.6326,-4.6326,-4.6326,-4.6326,-4.6326,-4.6326,-4.618,-4.618,-4.6059,-4.5696,-4.4939,-4.4422,-1.1411,-1.2642,-1.4037,-1.5573,-1.7093,-1.8613,-1.9962,-2.1325,-2.2533,-2.329,-2.3896,-2.4341,-2.4488,-2.4636,-2.4636,-2.5079,-2.596,-2.71,-2.8835,-3.1277,-3.2526,-3.3798,-3.4508,-3.5196,-3.5743,-3.5899,-3.6035,-3.6016,-3.6016,-3.5879,-3.5879,-3.5606,-3.5059,-3.4765,-3.4057,-3.3363,-3.2788,-3.2349,-3.1876,-3.1353,-3.1138,-3.1017,-3.0942,-3.1211,-3.2075,-3.2568,-3.2931,-3.3165,-3.3418,-3.3418,-3.3418,-3.3418,-3.3418,-3.3418,-3.3437,-3.3535,-3.375,-3.3965,-3.4121,-3.4434,-3.4766,-3.5195,-3.5351,-3.5527,-3.5879,-3.5937,-3.6035,-3.6035,-3.6035,-3.6035,-3.6035,-3.6035,-3.6035,-3.6035,-3.6035,-3.6035,-3.6035,-3.6035,-3.6035,-3.6035,-3.6035,-3.6035,-3.6035,-3.6035,-3.6035,-3.6016,-3.6287,-3.6674,-3.7348,-3.815,-3.932,-4.0495,-4.1783,-4.2799,-4.3927,-4.4915,-4.555,-4.5939,-4.618,-4.6301,-4.618,-4.618,-4.6326,-4.6326,-4.6326,-4.6326,-4.6326,-4.6326,-4.6326,-4.618,-4.6059,-4.5696,-4.5184,-4.4546,-4.3678,-1.3252,-1.433,-1.5871,-1.7245,-1.8613,-2.0113,-2.1325,-2.2384,-2.329,-2.3896,-2.4193,-2.4488,-2.4636,-2.4636,-2.4784,-2.5226,-2.6093,-2.739,-2.9266,-3.1135,-3.2246,-3.3242,-3.4094,-3.4784,-3.5333,-3.5899,-3.6035,-3.5879,-3.5743,-3.5743,-3.547,-3.4921,-3.4352,-3.3641,-3.2945,-3.2088,-3.1401,-3.1034,-3.0623,-3.0476,-3.0669,-3.0985,-3.1788,-3.2506,-3.3249,-3.3508,-3.3785,-3.37,-3.375,-3.3672,-3.3535,-3.3418,-3.3418,-3.3418,-3.3516,-3.375,-3.372,-3.4148,-3.459,-3.4902,-3.5195,-3.5644,-3.5684,-3.5801,-3.5957,-3.6035,-3.6035,-3.6035,-3.6035,-3.6035,-3.6035,-3.6035,-3.6035,-3.6035,-3.6035,-3.6035,-3.6035,-3.6035,-3.6035,-3.6035,-3.6035,-3.6035,-3.6035,-3.6035,-3.6035,-3.6016,-3.6268,-3.6654,-3.7482,-3.8416,-3.9844,-4.1013,-4.242,-4.3553,-4.4693,-4.5428,-4.5939,-4.618,-4.618,-4.6326,-4.6301,-4.6301,-4.6326,-4.6326,-4.6326,-4.6326,-4.6326,-4.6326,-4.618,-4.6059,-4.5817,-4.5306,-4.4669,-4.3927,-4.2902,-1.571,-1.633,-1.7692,-1.9057,-2.0113,-2.1325,-2.2384,-2.3438,-2.3883,-2.4341,-2.4488,-2.4636,-2.4636,-2.4636,-2.4931,-2.5373,-2.6239,-2.768,-2.9425,-3.071,-3.1542,-3.2544,-3.3521,-3.4094,-3.4784,-3.5743,-3.5879,-3.5762,-3.5626,-3.5333,-3.4921,-3.4214,-3.3363,-3.2508,-3.1525,-3.0676,-2.9838,-2.9504,-2.9595,-2.9806,-3.051,-3.1318,-3.2491,-3.3671,-3.4046,-3.4309,-3.4381,-3.4316,-3.4141,-3.4062,-3.3711,-3.3516,-3.3418,-3.3437,-3.3613,-3.4023,-3.3805,-3.4362,-3.5098,-3.5391,-3.549,-3.6016,-3.6016,-3.5996,-3.6016,-3.6035,-3.6035,-3.6035,-3.6035,-3.6035,-3.6035,-3.6035,-3.6035,-3.6035,-3.6035,-3.6035,-3.6035,-3.6035,-3.6035,-3.6035,-3.6035,-3.6035,-3.6035,-3.6035,-3.6035,-3.6016,-3.6403,-3.6924,-3.7729,-3.8793,-4.0366,-4.1783,-4.3177,-4.4199,-4.5306,-4.5696,-4.618,-4.618,-4.6326,-4.6326,-4.6326,-4.6326,-4.6326,-4.6326,-4.6326,-4.6326,-4.6326,-4.6326,-4.618,-4.5939,-4.5453,-4.5061,-4.4175,-4.3302,-4.2016,-1.7702,-1.8764,-1.9671,-2.0575,-2.1475,-2.2533,-2.3438,-2.3883,-2.4341,-2.4488,-2.4636,-2.4636,-2.4636,-2.4636,-2.4636,-2.5212,-2.6385,-2.7695,-2.8851,-3.014,-3.0852,-3.1841,-3.2666,-3.3521,-3.4094,-3.4646,-3.5196,-3.5352,-3.5352,-3.5196,-3.4352,-3.3363,-3.2246,-3.1101,-2.9965,-2.8963,-2.8403,-2.8403,-2.8884,-2.9595,-3.0506,-3.1908,-3.309,-3.4354,-3.4599,-3.4692,-3.4766,-3.4648,-3.4434,-3.4101,-3.4004,-3.3789,-3.3594,-3.3516,-3.373,-3.4082,-3.4284,-3.4712,-3.5371,-3.5723,-3.5898,-3.6016,-3.6035,-3.6035,-3.6035,-3.6035,-3.6035,-3.6035,-3.6035,-3.6035,-3.6035,-3.6035,-3.6035,-3.6035,-3.6035,-3.6035,-3.6035,-3.6035,-3.6035,-3.6035,-3.6035,-3.6035,-3.6035,-3.6035,-3.6035,-3.6152,-3.6539,-3.7327,-3.815,-3.9583,-4.1013,-4.2546,-4.3927,-4.4939,-4.5939,-4.6059,-4.6301,-4.6301,-4.6326,-4.6326,-4.6326,-4.6326,-4.6326,-4.6326,-4.6326,-4.6326,-4.6326,-4.6301,-4.6059,-4.5696,-4.5184,-4.4693,-4.3553,-4.242,-4.1142,-1.9671,-2.0575,-2.1337,-2.1936,-2.2533,-2.329,-2.3896,-2.4341,-2.4488,-2.4636,-2.4636,-2.4636,-2.4636,-2.4636,-2.4784,-2.552,-2.6692,-2.742,-2.8563,-2.9568,-3.0425,-3.0977,-3.1824,-3.2544,-3.3103,-3.3521,-3.4075,-3.4508,-3.4508,-3.4214,-3.3363,-3.2105,-3.0977,-2.9679,-2.8547,-2.784,-2.755,-2.755,-2.8403,-2.9615,-3.0848,-3.2659,-3.4176,-3.4893,-3.5237,-3.5391,-3.5332,-3.5117,-3.498,-3.4766,-3.4531,-3.4297,-3.4141,-3.4101,-3.416,-3.4414,-3.4785,-3.5234,-3.5625,-3.5937,-3.6016,-3.6016,-3.6035,-3.6035,-3.6035,-3.6035,-3.6035,-3.6035,-3.6035,-3.6035,-3.6035,-3.6035,-3.6035,-3.6035,-3.6035,-3.6035,-3.6035,-3.6035,-3.6035,-3.6035,-3.6035,-3.6035,-3.6035,-3.6035,-3.6035,-3.6287,-3.6694,-3.7616,-3.8528,-3.9975,-4.1527,-4.3177,-4.4422,-4.5306,-4.618,-4.618,-4.6326,-4.6326,-4.6326,-4.6326,-4.6326,-4.6326,-4.6326,-4.6326,-4.6326,-4.6326,-4.618,-4.618,-4.5817,-4.5428,-4.4693,-4.3927,-4.2799,-4.155,-4.0388,-2.1637,-2.2085,-2.2694,-2.329,-2.36,-2.3883,-2.4341,-2.4488,-2.4636,-2.4636,-2.4636,-2.4636,-2.4636,-2.4636,-2.5079,-2.5814,-2.6838,-2.7274,-2.813,-2.9138,-2.9855,-3.0409,-3.0993,-3.1418,-3.1965,-3.2105,-3.2386,-3.2963,-3.3381,-3.3085,-3.2105,-3.0835,-2.9552,-2.8403,-2.7405,-2.6969,-2.6838,-2.742,-2.8274,-2.9695,-3.1807,-3.378,-3.5333,-3.5879,-3.6035,-3.5976,-3.5879,-3.5664,-3.5449,-3.5254,-3.5019,-3.4785,-3.4726,-3.4785,-3.4844,-3.4883,-3.5043,-3.5432,-3.5879,-3.6016,-3.6035,-3.6035,-3.6035,-3.6035,-3.6035,-3.6035,-3.6035,-3.6035,-3.6035,-3.6035,-3.6035,-3.6035,-3.6035,-3.6035,-3.6035,-3.6035,-3.6035,-3.6035,-3.6035,-3.6035,-3.6035,-3.6035,-3.6035,-3.6035,-3.6035,-3.6287,-3.6694,-3.7575,-3.8618,-4.0084,-4.1655,-4.3553,-4.4816,-4.5696,-4.618,-4.6301,-4.6326,-4.6326,-4.6326,-4.6326,-4.6326,-4.6326,-4.6326,-4.6326,-4.6326,-4.6301,-4.618,-4.5939,-4.5671,-4.5061,-4.4323,-4.3302,-4.2316,-4.1293,-4.0257,-2.2843,-2.329,-2.3735,-2.3883,-2.4044,-2.4341,-2.4488,-2.4636,-2.4636,-2.4636,-2.4636,-2.4636,-2.4636,-2.4636,-2.4931,-2.552,-2.6093,-2.6838,-2.771,-2.8563,-2.9138,-2.9712,-3.0299,-3.0551,-3.0676,-3.0818,-3.0835,-3.1542,-3.2123,-3.1841,-3.096,-2.9552,-2.8403,-2.739,-2.6677,-2.6385,-2.6531,-2.7405,-2.8676,-3.0801,-3.3363,-3.4784,-3.5489,-3.5899,-3.6035,-3.6035,-3.6035,-3.5898,-3.5762,-3.5449,-3.5371,-3.5098,-3.4844,-3.5117,-3.5273,-3.5312,-3.541,-3.5566,-3.5937,-3.6035,-3.6035,-3.6035,-3.6035,-3.6035,-3.6035,-3.6016,-3.6016,-3.6035,-3.6035,-3.6035,-3.5879,-3.6016,-3.6016,-3.6035,-3.6035,-3.6035,-3.6035,-3.6035,-3.6035,-3.6035,-3.6035,-3.6035,-3.6035,-3.6035,-3.6035,-3.6287,-3.6674,-3.7554,-3.8861,-4.0452,-4.2016,-4.3927,-4.5061,-4.5817,-4.618,-4.6301,-4.6326,-4.6326,-4.6326,-4.6326,-4.6326,-4.6326,-4.6326,-4.6326,-4.6326,-4.6326,-4.6205,-4.5939,-4.555,-4.4816,-4.4051,-4.3177,-4.2061,-4.1035,-4.0127,-2.3896,-2.4031,-2.4193,-2.4341,-2.4341,-2.4488,-2.4636,-2.4636,-2.4636,-2.4636,-2.4636,-2.4636,-2.4636,-2.4636,-2.4784,-2.5079,-2.5506,-2.6253,-2.6983,-2.784,-2.8289,-2.8866,-2.8995,-2.9266,-2.9409,-2.9409,-2.9552,-2.9887,-3.0316,-3.014,-2.9266,-2.8259,-2.7245,-2.6517,-2.6239,-2.6385,-2.71,-2.8532,-3.0233,-3.2368,-3.4075,-3.5059,-3.5626,-3.6016,-3.6035,-3.6035,-3.6035,-3.6016,-3.5957,-3.5762,-3.5742,-3.5664,-3.5527,-3.5644,-3.5742,-3.5762,-3.5742,-3.584,-3.5996,-3.6016,-3.6035,-3.6035,-3.6035,-3.6035,-3.6035,-3.6016,-3.5879,-3.5762,-3.5762,-3.5762,-3.5743,-3.5743,-3.5879,-3.5879,-3.5879,-3.6016,-3.6016,-3.6035,-3.6035,-3.6035,-3.6035,-3.6035,-3.6035,-3.6035,-3.6016,-3.6152,-3.6674,-3.7595,-3.9146,-4.1119,-4.2776,-4.4422,-4.5306,-4.5939,-4.618,-4.6326,-4.6326,-4.6326,-4.6326,-4.6326,-4.6326,-4.6326,-4.6326,-4.6326,-4.6326,-4.6326,-4.6326,-4.5939,-4.555,-4.4816,-4.4051,-4.3051,-4.2061,-4.1293,-4.0517,-2.4636,-2.4636,-2.4636,-2.4636,-2.4636,-2.4636,-2.4636,-2.4636,-2.4636,-2.4636,-2.4636,-2.4636,-2.4636,-2.4636,-2.4636,-2.4931,-2.5226,-2.5814,-2.6399,-2.6983,-2.7565,-2.7985,-2.813,-2.8418,-2.8274,-2.8259,-2.797,-2.8145,-2.8175,-2.803,-2.755,-2.7114,-2.6385,-2.5946,-2.6239,-2.6808,-2.7825,-2.9822,-3.2088,-3.3659,-3.4646,-3.5333,-3.5743,-3.5879,-3.6035,-3.6035,-3.6035,-3.6035,-3.6016,-3.5996,-3.5976,-3.5937,-3.5937,-3.5937,-3.5957,-3.5957,-3.5957,-3.5976,-3.6016,-3.6035,-3.6035,-3.6035,-3.6035,-3.6035,-3.6016,-3.5879,-3.5743,-3.5626,-3.5352,-3.5352,-3.5352,-3.5333,-3.547,-3.5743,-3.5879,-3.5879,-3.6016,-3.6016,-3.6035,-3.6035,-3.6035,-3.6035,-3.6035,-3.6035,-3.6016,-3.6152,-3.6674,-3.7482,-3.9299,-4.1377,-4.2902,-4.4422,-4.5306,-4.5939,-4.618,-4.6326,-4.6326,-4.6326,-4.6326,-4.6326,-4.6326,-4.6326,-4.6326,-4.6326,-4.6326,-4.6326,-4.6326,-4.5939,-4.5574,-4.4816,-4.4051,-4.3051,-4.2189,-4.155,-4.1293,-2.4636,-2.4636,-2.4636,-2.4636,-2.4636,-2.4636,-2.4636,-2.4636,-2.4636,-2.4636,-2.4636,-2.4636,-2.4636,-2.4636,-2.4636,-2.4784,-2.5226,-2.5239,-2.596,-2.6692,-2.7129,-2.742,-2.755,-2.742,-2.7129,-2.6969,-2.6677,-2.6385,-2.6107,-2.6267,-2.6121,-2.6135,-2.596,-2.6093,-2.6677,-2.768,-2.9393,-3.1384,-3.3521,-3.4508,-3.5196,-3.5743,-3.5879,-3.6016,-3.6035,-3.6035,-3.6035,-3.6035,-3.6035,-3.6035,-3.6035,-3.6035,-3.6035,-3.6035,-3.6035,-3.6035,-3.6035,-3.6035,-3.6035,-3.6035,-3.6035,-3.6035,-3.6035,-3.6035,-3.6016,-3.5762,-3.5489,-3.5333,-3.5059,-3.4784,-3.4921,-3.4921,-3.5059,-3.5333,-3.5606,-3.5743,-3.5879,-3.6016,-3.6035,-3.6035,-3.6035,-3.6035,-3.6035,-3.6035,-3.6035,-3.6016,-3.6674,-3.7616,-3.9188,-4.1119,-4.265,-4.4051,-4.5184,-4.5817,-4.618,-4.6326,-4.6326,-4.6326,-4.6326,-4.6326,-4.6326,-4.6326,-4.6326,-4.6326,-4.6326,-4.6326,-4.6301,-4.6059,-4.5696,-4.4939,-4.4051,-4.3428,-4.2799,-4.2166,-4.2189,-2.4636,-2.4636,-2.4636,-2.4636,-2.4636,-2.4636,-2.4636,-2.4636,-2.4636,-2.4636,-2.4636,-2.4636,-2.4636,-2.4636,-2.4636,-2.4636,-2.4931,-2.5092,-2.552,-2.5814,-2.6107,-2.6385,-2.6531,-2.6531,-2.6239,-2.6093,-2.5667,-2.552,-2.5534,-2.5373,-2.5681,-2.5974,-2.6107,-2.6385,-2.7245,-2.9107,-3.1243,-3.2806,-3.4214,-3.5196,-3.547,-3.5743,-3.6035,-3.6035,-3.6035,-3.6035,-3.6035,-3.6035,-3.6035,-3.6035,-3.6035,-3.6035,-3.6035,-3.6035,-3.6035,-3.6035,-3.6035,-3.6035,-3.6035,-3.6035,-3.6035,-3.6035,-3.6035,-3.6035,-3.6035,-3.5606,-3.5215,-3.4921,-3.4508,-3.4094,-3.3817,-3.4094,-3.437,-3.4921,-3.5333,-3.5606,-3.5879,-3.6035,-3.6035,-3.6035,-3.6035,-3.6035,-3.6035,-3.6035,-3.6035,-3.6016,-3.6809,-3.7729,-3.9167,-4.0625,-4.2143,-4.3428,-4.4546,-4.5428,-4.5817,-4.6059,-4.6301,-4.6326,-4.6326,-4.6326,-4.6326,-4.6326,-4.6326,-4.6326,-4.6326,-4.6326,-4.6301,-4.618,-4.5817,-4.5306,-4.4693,-4.4051,-4.3428,-4.2799,-4.3051,-2.4784,-2.4784,-2.4931,-2.4784,-2.4636,-2.4636,-2.4636,-2.4784,-2.4636,-2.4636,-2.4636,-2.4636,-2.4636,-2.4636,-2.4636,-2.4636,-2.4636,-2.4931,-2.5092,-2.5373,-2.552,-2.5653,-2.5653,-2.5653,-2.5667,-2.552,-2.5226,-2.5079,-2.5387,-2.5373,-2.596,-2.6399,-2.6823,-2.7535,-2.8532,-3.0818,-3.2945,-3.4075,-3.4921,-3.5606,-3.5606,-3.5879,-3.6035,-3.6035,-3.6035,-3.6035,-3.6035,-3.6035,-3.6035,-3.6035,-3.6035,-3.6035,-3.6035,-3.6035,-3.6035,-3.6035,-3.6035,-3.6035,-3.6035,-3.6035,-3.6035,-3.6035,-3.6035,-3.5899,-3.5743,-3.547,-3.4784,-3.4075,-3.3659,-3.3103,-3.2824,-3.3103,-3.3798,-3.4352,-3.5059,-3.5333,-3.5743,-3.6035,-3.6035,-3.6035,-3.6035,-3.6035,-3.6035,-3.6035,-3.6035,-3.6016,-3.6539,-3.7193,-3.8262,-3.9844,-4.1142,-4.2546,-4.3802,-4.4669,-4.555,-4.5793,-4.6059,-4.6326,-4.6326,-4.6326,-4.6326,-4.6326,-4.6326,-4.6326,-4.6326,-4.6326,-4.6301,-4.618,-4.6059,-4.5817,-4.5061,-4.4299,-4.3802,-4.3177,-4.3802,-2.5226,-2.5239,-2.5653,-2.5359,-2.4784,-2.4636,-2.4784,-2.5079,-2.4784,-2.4636,-2.477,-2.4623,-2.4636,-2.4636,-2.4784,-2.477,-2.4784,-2.4784,-2.4931,-2.5226,-2.5373,-2.552,-2.5506,-2.5373,-2.5226,-2.5079,-2.4931,-2.5079,-2.5226,-2.58,-2.6531,-2.768,-2.8691,-2.9393,-2.9536,-3.1807,-3.3641,-3.4784,-3.5333,-3.5606,-3.5879,-3.6016,-3.6035,-3.6035,-3.6035,-3.6035,-3.6035,-3.6035,-3.6035,-3.6035,-3.6035,-3.6035,-3.6035,-3.6035,-3.6035,-3.6035,-3.6035,-3.6035,-3.6035,-3.6035,-3.6035,-3.6035,-3.6035,-3.5899,-3.5489,-3.4921,-3.4094,-3.3381,-3.2666,-3.2105,-3.1965,-3.2246,-3.2945,-3.378,-3.449,-3.5196,-3.5606,-3.6035,-3.6035,-3.6035,-3.6035,-3.6035,-3.6035,-3.6035,-3.6035,-3.6152,-3.6268,-3.6924,-3.7883,-3.8925,-4.0366,-4.1655,-4.2925,-4.3927,-4.4792,-4.5428,-4.5817,-4.6059,-4.6301,-4.618,-4.6301,-4.6326,-4.6326,-4.6326,-4.6326,-4.6326,-4.6326,-4.6301,-4.6059,-4.5817,-4.5184,-4.4422,-4.3927,-4.3826,-4.4323,-2.5814,-2.6107,-2.6677,-2.6823,-2.6371,-2.5653,-2.5506,-2.552,-2.5506,-2.5359,-2.5345,-2.4864,-2.5011,-2.5198,-2.5359,-2.5359,-2.5359,-2.5359,-2.5506,-2.5506,-2.5373,-2.5239,-2.5226,-2.5079,-2.4784,-2.4931,-2.4931,-2.5226,-2.5653,-2.6517,-2.7535,-2.8819,-3.0676,-3.1807,-3.2228,-3.3502,-3.4508,-3.5196,-3.5606,-3.5879,-3.6035,-3.6035,-3.6035,-3.6035,-3.6035,-3.6035,-3.6035,-3.6035,-3.6035,-3.6035,-3.6035,-3.6035,-3.6035,-3.6035,-3.6035,-3.6035,-3.6035,-3.6035,-3.6035,-3.6035,-3.6035,-3.6035,-3.6035,-3.5762,-3.547,-3.4784,-3.3798,-3.2666,-3.1683,-3.1135,-3.071,-3.1135,-3.1982,-3.3085,-3.3798,-3.4784,-3.5333,-3.5743,-3.6035,-3.6035,-3.6035,-3.6035,-3.6035,-3.6035,-3.6035,-3.6016,-3.6268,-3.6809,-3.7616,-3.8416,-3.9583,-4.0884,-4.2038,-4.3153,-4.4051,-4.4669,-4.5428,-4.5817,-4.6059,-4.6059,-4.6059,-4.6301,-4.6326,-4.6326,-4.6326,-4.6326,-4.6326,-4.6301,-4.6059,-4.5696,-4.5306,-4.4939,-4.4693,-4.4693,-4.5086,-2.6531,-2.7114,-2.797,-2.8403,-2.8259,-2.6954,-2.6371,-2.6239,-2.6371,-2.6385,-2.6064,-2.5395,-2.5395,-2.6064,-2.6414,-2.6253,-2.6107,-2.5946,-2.58,-2.58,-2.5373,-2.5226,-2.5092,-2.4784,-2.4784,-2.4931,-2.5226,-2.5653,-2.6517,-2.7535,-2.9107,-3.0818,-3.2508,-3.3363,-3.3937,-3.4627,-3.5059,-3.5626,-3.5879,-3.6035,-3.6035,-3.6035,-3.6035,-3.6035,-3.6035,-3.6035,-3.6035,-3.6035,-3.6035,-3.6035,-3.6035,-3.6035,-3.6035,-3.6035,-3.6035,-3.6035,-3.6035,-3.6035,-3.6035,-3.6035,-3.6035,-3.6035,-3.5879,-3.5606,-3.5059,-3.4214,-3.2945,-3.1824,-3.0993,-3.014,-2.9568,-3.014,-3.1135,-3.2246,-3.3521,-3.4508,-3.5333,-3.5743,-3.6035,-3.6035,-3.6035,-3.6035,-3.6035,-3.6035,-3.6035,-3.6152,-3.6132,-3.6674,-3.7213,-3.7883,-3.8681,-3.9844,-4.1142,-4.2166,-4.3028,-4.3927,-4.4669,-4.555,-4.5696,-4.5817,-4.6059,-4.6326,-4.6326,-4.6326,-4.6326,-4.6326,-4.6326,-4.618,-4.618,-4.6059,-4.5939,-4.5696,-4.5331,-4.5453,-4.5574,-2.7375,-2.8243,-2.9393,-3.0124,-3.0107,-2.8676,-2.768,-2.71,-2.755,-2.7405,-2.7085,-2.6416,-2.6721,-2.7245,-2.7931,-2.7625,-2.6838,-2.6677,-2.6239,-2.5946,-2.552,-2.5373,-2.5079,-2.4931,-2.4931,-2.5226,-2.58,-2.6663,-2.7535,-2.925,-3.0943,-3.2666,-3.3937,-3.4627,-3.5059,-3.5333,-3.5626,-3.5879,-3.5899,-3.6035,-3.6035,-3.6035,-3.6035,-3.6035,-3.6035,-3.6035,-3.6035,-3.6035,-3.6035,-3.6035,-3.6035,-3.6035,-3.6035,-3.6035,-3.6035,-3.6035,-3.6035,-3.6035,-3.6035,-3.6035,-3.5879,-3.5879,-3.5606,-3.5059,-3.4508,-3.3659,-3.2386,-3.0977,-2.9838,-2.9138,-2.8434,-2.9552,-3.0551,-3.1947,-3.3381,-3.4352,-3.5196,-3.5606,-3.5899,-3.6035,-3.6035,-3.6035,-3.6035,-3.6035,-3.6035,-3.6016,-3.6152,-3.6268,-3.6674,-3.7079,-3.8017,-3.8814,-3.9975,-4.1142,-4.2038,-4.3177,-4.4175,-4.5061,-4.5574,-4.5817,-4.6059,-4.6326,-4.6326,-4.6326,-4.6326,-4.6326,-4.6326,-4.6326,-4.6301,-4.618,-4.618,-4.6059,-4.5696,-4.5696,-4.5939,-2.8099,-2.9409,-3.0818,-3.1683,-3.1965,-3.1384,-3.0392,-2.9122,-2.8851,-2.8707,-2.8563,-2.8819,-2.8804,-2.9138,-2.9665,-2.9201,-2.8594,-2.784,-2.7274,-2.6692,-2.5814,-2.552,-2.5226,-2.5079,-2.5226,-2.58,-2.6663,-2.768,-2.9107,-3.0676,-3.2648,-3.4214,-3.4921,-3.547,-3.5606,-3.5899,-3.5899,-3.6035,-3.6035,-3.6035,-3.6035,-3.6035,-3.6035,-3.6035,-3.6035,-3.6035,-3.6035,-3.6035,-3.6035,-3.6035,-3.6035,-3.6035,-3.6035,-3.6035,-3.6035,-3.6035,-3.6035,-3.6035,-3.6035,-3.6035,-3.5899,-3.5606,-3.5059,-3.4784,-3.4094,-3.3103,-3.1807,-3.025,-2.9122,-2.8274,-2.813,-2.8995,-2.9965,-3.1243,-3.2806,-3.4214,-3.5059,-3.5606,-3.5879,-3.6035,-3.6035,-3.6035,-3.6035,-3.6035,-3.6035,-3.6035,-3.6016,-3.6152,-3.6268,-3.6674,-3.7213,-3.815,-3.9078,-4.0236,-4.1399,-4.242,-4.3553,-4.4546,-4.5184,-4.5696,-4.6059,-4.6326,-4.6326,-4.6326,-4.6326,-4.6326,-4.6326,-4.6326,-4.6326,-4.6326,-4.618,-4.618,-4.6059,-4.6059,-4.618,-2.8979,-3.0534,-3.1965,-3.2963,-3.3521,-3.3381,-3.2666,-3.1542,-3.0567,-3.014,-3.0283,-3.071,-3.0726,-3.0584,-3.0935,-3.065,-2.9425,-2.8547,-2.784,-2.6838,-2.6239,-2.58,-2.552,-2.552,-2.5946,-2.6663,-2.768,-2.8835,-3.0409,-3.2368,-3.4214,-3.5059,-3.547,-3.5743,-3.5879,-3.6035,-3.6035,-3.6035,-3.6035,-3.6035,-3.6035,-3.6035,-3.6035,-3.6035,-3.6035,-3.6035,-3.6035,-3.6035,-3.6035,-3.6035,-3.6035,-3.6035,-3.6035,-3.6035,-3.6035,-3.6035,-3.6035,-3.6035,-3.6035,-3.5899,-3.5762,-3.5352,-3.4646,-3.4094,-3.3242,-3.2386,-3.096,-2.9552,-2.8547,-2.7825,-2.7985,-2.8274,-2.9552,-3.0676,-3.2386,-3.4075,-3.4784,-3.5606,-3.5879,-3.6035,-3.6035,-3.6035,-3.6035,-3.6035,-3.6035,-3.6035,-3.6035,-3.6016,-3.6132,-3.6384,-3.6944,-3.7616,-3.8549,-3.9604,-4.0755,-4.2038,-4.3302,-4.4299,-4.5061,-4.5574,-4.6059,-4.6326,-4.6326,-4.6326,-4.6326,-4.6326,-4.6326,-4.6326,-4.6326,-4.6326,-4.6326,-4.618,-4.618,-4.618,-4.6421,-2.9822,-3.1649,-3.2945,-3.4075,-3.4902,-3.4646,-3.437,-3.4232,-3.2544,-3.1841,-3.1841,-3.2281,-3.2281,-3.1999,-3.2051,-3.1344,-3.014,-2.9138,-2.813,-2.6983,-2.6239,-2.5946,-2.5946,-2.5932,-2.6663,-2.768,-2.8963,-3.025,-3.1683,-3.3381,-3.4784,-3.5489,-3.5743,-3.6016,-3.6035,-3.6035,-3.6035,-3.6035,-3.6035,-3.6035,-3.6035,-3.6035,-3.6035,-3.6035,-3.6035,-3.6035,-3.6035,-3.6035,-3.6035,-3.6035,-3.6035,-3.6035,-3.6035,-3.6035,-3.6035,-3.6035,-3.6035,-3.6035,-3.5879,-3.5743,-3.547,-3.5059,-3.437,-3.3521,-3.2544,-3.1683,-3.0266,-2.8979,-2.797,-2.739,-2.739,-2.8259,-2.9409,-3.0818,-3.2386,-3.3798,-3.4784,-3.547,-3.5879,-3.6035,-3.6035,-3.6035,-3.6035,-3.6035,-3.6035,-3.6035,-3.6035,-3.6035,-3.6152,-3.6268,-3.6809,-3.7348,-3.8283,-3.9473,-4.0625,-4.1911,-4.3051,-4.4051,-4.4816,-4.5574,-4.618,-4.6326,-4.6326,-4.6326,-4.6326,-4.6326,-4.6326,-4.6326,-4.6326,-4.6326,-4.6326,-4.6326,-4.6301,-4.6301,-4.6661,-3.025,-3.2088,-3.4075,-3.5333,-3.5606,-3.5333,-3.5196,-3.5196,-3.4508,-3.3798,-3.3381,-3.3678,-3.3678,-3.326,-3.2999,-3.2281,-3.1135,-2.9712,-2.8563,-2.755,-2.6677,-2.6385,-2.6385,-2.6954,-2.7825,-2.8963,-3.0392,-3.1947,-3.3502,-3.4784,-3.5333,-3.5899,-3.6016,-3.6035,-3.6035,-3.6035,-3.6035,-3.6035,-3.6035,-3.6035,-3.6035,-3.6035,-3.6035,-3.6035,-3.6035,-3.6035,-3.6035,-3.6035,-3.6035,-3.6035,-3.6035,-3.6035,-3.6035,-3.6035,-3.6035,-3.6035,-3.6035,-3.6035,-3.5899,-3.5743,-3.547,-3.4784,-3.4094,-3.2963,-3.1982,-3.0977,-2.9838,-2.8547,-2.768,-2.7085,-2.7085,-2.8243,-2.9409,-3.096,-3.2526,-3.3641,-3.4784,-3.547,-3.6035,-3.6035,-3.6035,-3.6035,-3.6035,-3.6035,-3.6035,-3.6035,-3.6035,-3.6016,-3.6152,-3.6403,-3.6924,-3.7482,-3.8416,-3.9604,-4.0777,-4.2038,-4.3177,-4.4175,-4.5184,-4.5696,-4.6205,-4.6326,-4.6326,-4.6326,-4.6326,-4.6326,-4.6326,-4.6326,-4.6326,-4.6326,-4.6326,-4.6326,-4.6421,-4.6421,-4.69,-3.096,-3.2788,-3.4902,-3.5879,-3.5879,-3.5743,-3.5743,-3.5743,-3.547,-3.5196,-3.4784,-3.4784,-3.4646,-3.4094,-3.3678,-3.2841,-3.17,-3.0283,-2.9138,-2.813,-2.7405,-2.7114,-2.7405,-2.797,-2.9122,-3.0409,-3.1965,-3.3659,-3.5059,-3.5333,-3.5606,-3.5899,-3.6035,-3.6035,-3.6035,-3.6035,-3.6035,-3.6035,-3.6035,-3.6035,-3.6035,-3.6035,-3.6035,-3.6035,-3.6035,-3.6035,-3.6035,-3.6035,-3.6035,-3.6035,-3.6035,-3.6035,-3.6035,-3.6035,-3.6035,-3.6035,-3.6035,-3.6035,-3.5899,-3.5606,-3.5333,-3.4646,-3.3817,-3.2824,-3.17,-3.071,-2.9266,-2.813,-2.7405,-2.6823,-2.7245,-2.8274,-2.9552,-3.096,-3.2666,-3.4075,-3.5059,-3.5743,-3.6016,-3.6035,-3.6035,-3.6035,-3.6035,-3.6035,-3.6035,-3.6035,-3.6035,-3.6035,-3.6152,-3.6403,-3.7079,-3.7729,-3.8814,-3.9735,-4.0906,-4.2166,-4.3553,-4.4446,-4.5428,-4.5817,-4.618,-4.6301,-4.6326,-4.6326,-4.6326,-4.6326,-4.6326,-4.6326,-4.6326,-4.6326,-4.6326,-4.6326,-4.6421,-4.6661,-4.7138,-3.2105,-3.3641,-3.5314,-3.6035,-3.6035,-3.6035,-3.6035,-3.6016,-3.6035,-3.6035,-3.5879,-3.5626,-3.5215,-3.4665,-3.4094,-3.3121,-3.214,-3.071,-2.9712,-2.8851,-2.8274,-2.8259,-2.8676,-2.9393,-3.0676,-3.2105,-3.3659,-3.449,-3.547,-3.5606,-3.5743,-3.6035,-3.6035,-3.6035,-3.6035,-3.6035,-3.6035,-3.6035,-3.6035,-3.6035,-3.6035,-3.6035,-3.6035,-3.6035,-3.6035,-3.6035,-3.6035,-3.6035,-3.6035,-3.6035,-3.6035,-3.6035,-3.6035,-3.6035,-3.6035,-3.6035,-3.6035,-3.6035,-3.5899,-3.5606,-3.5196,-3.4784,-3.3817,-3.2684,-3.1576,-3.0283,-2.8851,-2.784,-2.726,-2.7129,-2.7565,-2.8259,-2.9536,-3.126,-3.2963,-3.4508,-3.5333,-3.6016,-3.6016,-3.6035,-3.6035,-3.6035,-3.6035,-3.6035,-3.6035,-3.6035,-3.6035,-3.6035,-3.6152,-3.6674,-3.7213,-3.8129,-3.9057,-4.0127,-4.1293,-4.2546,-4.3927,-4.4693,-4.555,-4.5939,-4.618,-4.6301,-4.6326,-4.6326,-4.6326,-4.6326,-4.6326,-4.6326,-4.6326,-4.6326,-4.6326,-4.6301,-4.6421,-4.6661,-4.7349,-3.3363,-3.5059,-3.5743,-3.6035,-3.6035,-3.6035,-3.6035,-3.6035,-3.6035,-3.6035,-3.6035,-3.5879,-3.5626,-3.5135,-3.4527,-3.3678,-3.2421,-3.1277,-3.0425,-2.9712,-2.9552,-2.9695,-3.0107,-3.1101,-3.2648,-3.3798,-3.4784,-3.5333,-3.5743,-3.5879,-3.5879,-3.6035,-3.6035,-3.6035,-3.6035,-3.6035,-3.6035,-3.6035,-3.6035,-3.6035,-3.6035,-3.6035,-3.6035,-3.6035,-3.6035,-3.6035,-3.6035,-3.6035,-3.6035,-3.6035,-3.6035,-3.6035,-3.6035,-3.6035,-3.6035,-3.6035,-3.6035,-3.6035,-3.5879,-3.547,-3.5196,-3.4784,-3.3817,-3.2561,-3.1435,-3.0157,-2.8851,-2.755,-2.7114,-2.6969,-2.7405,-2.8228,-2.9504,-3.1982,-3.4149,-3.494,-3.5743,-3.6016,-3.6035,-3.6035,-3.6035,-3.6035,-3.6035,-3.6035,-3.6035,-3.6035,-3.6035,-3.6035,-3.6152,-3.6674,-3.7348,-3.8395,-3.9451,-4.0755,-4.1911,-4.3177,-4.4422,-4.5061,-4.5696,-4.6059,-4.618,-4.6301,-4.6326,-4.6326,-4.6326,-4.6326,-4.6326,-4.6326,-4.6326,-4.6326,-4.6326,-4.6301,-4.6421,-4.6874,-4.7586]},{"header":{"parameterUnit":"m.s-1","parameterCategory":1,"la1":31.0,"la2":29.5877,"lo1":-88.7671,"lo2":-86.6584,"dy":0.0162,"dx":0.0185,"nx":115,"ny":88,"refTime":"2024-05-17T06:00:00:Z","depth":0,"parameterNumber":3,"parameterNumberName":"V-component_of_WINDS"},"data":[0.0,0.0,0.0,0.0,0.0,0.0,0.0,0.0,0.0,0.0,0.0,0.0,0.0,0.0,0.0,0.0,0.0,0.0,0.0,0.0,0.0,0.0,0.0,0.0,0.0,0.0,0.0,0.0,0.0,0.0,0.0,0.0,0.0,0.0,0.0,0.0,0.0,0.0,0.0,0.0,0.0,0.0,0.0,0.0,0.0,0.0,0.0,0.0,0.0,0.0,0.0,0.0,0.0,0.0,0.0,0.0,0.0,0.0,0.0,0.0,0.0,0.0,0.0,0.0,0.0,0.0,0.0,0.0,0.0,0.0,0.0,0.0,0.0,0.0,0.0,0.0,0.0,0.0,0.0,0.0,0.0,0.0,0.0,0.0,0.0,0.0,0.0,0.0,0.0,0.0,0.0,0.0,0.0,0.0,0.0,0.0,0.0,0.0,0.0,0.0,0.0,0.0,0.0,0.0,0.0,0.0,0.0,0.0,0.0,0.0,0.0,0.0,0.0,0.0,0.0,0.0,0.0,0.0,0.0,0.0,0.0,0.0,0.0,0.0,0.0,0.0,0.0,0.0,0.0,0.0,0.0,0.0,0.0,0.0,0.0,0.0,0.0,0.0,0.0,0.0,0.0,0.0,0.0,0.0,0.0,0.0,0.0,0.0,0.0,0.0,0.0,0.0,0.0,0.0,0.0,0.0,0.0,0.0,0.0,0.0,0.0,0.0,0.0,0.0,0.0,0.0,0.0,0.0,0.0,0.0,0.0,0.0,0.0,0.0,0.0,0.0,0.0,0.0,0.0,0.0,0.0,0.0,0.0,0.0,0.0,0.0,0.0,0.0,0.0,0.0,0.0,0.0,0.0,0.0,0.0,0.0,0.0,0.0,0.0,0.0,0.0,0.0,0.0,0.0,0.0,0.0,0.0,0.0,0.0,0.0,0.0,0.0,0.0,0.0,0.0,0.0,0.0,0.0,0.0,0.0,0.0,0.0,0.0,0.0,0.0,0.0,0.0,0.0,0.0,0.0,0.0,0.0,0.0,0.0,0.0,0.0,0.0,0.0,0.0,0.0,0.0,0.0,0.0,0.0,0.0,0.0,0.0,0.0,0.0,0.0,0.0,0.0,0.0,0.0,0.0,0.0,0.0,0.0,0.0,0.0,0.0,0.0,0.0,0.0,0.0,0.0,0.0,0.0,0.0,0.0,0.0,0.0,0.0,0.0,0.0,0.0,0.0,0.0,0.0,0.0,0.0,0.0,0.0,0.0,0.0,0.0,0.0,0.0,0.0,0.0,0.0,0.0,0.0,0.0,0.0,0.0,0.0,0.0,0.0,0.0,0.0,0.0,0.0,0.0,0.0,0.0,0.0,0.0,0.0,0.0,0.0,0.0,0.0,0.0,0.0,0.0,0.0,0.0,0.0,0.0,0.0,0.0,0.0,0.0,0.0,0.0,0.0,0.0,0.0,0.0,0.0,0.0,0.0,0.0,0.0,0.0,0.0,0.0,0.0,0.0,0.0,0.0,0.0,0.0,0.0,0.0,0.0,0.0,0.0,0.0,0.0,0.0,0.0,0.0,0.0,0.0,0.0,0.0,0.0,0.0,0.0,0.0,0.0,0.0,0.0,0.0,0.0,0.0,0.0,0.0,0.0,0.0,0.0,0.0,0.0,0.0,0.0,0.0,0.0,0.0,0.0,0.0,0.0,0.0,0.0,0.0,0.0,0.0,0.0,0.0,0.0,0.0,0.0,0.0,0.0,0.0,0.0,0.0,0.0,0.0,0.0,0.0,0.0,0.0,0.0,0.0,0.0,0.0,0.0,0.0,0.0,0.0,0.0,0.0,0.0,0.0,0.0,0.0,0.0,0.0,0.0,0.0,0.0,0.0,0.0,0.0,0.0,0.0,0.0,0.0,0.0,0.0,0.0,0.0,0.0,0.0,0.0,0.0,0.0,0.0,0.0,0.0,0.0,0.0,0.0,0.0,0.0,0.0,0.0,0.0,0.0,0.0,0.0,0.0,0.0,0.0,0.0,0.0,0.0,0.0,0.0,0.0,0.0,0.0,0.0,0.0,0.0,0.0,0.0,0.0,0.0,0.0,0.0,0.0,0.0,0.0,0.0,0.0,0.0,0.0,0.0,0.0,0.0,0.0,0.0,0.0,0.0,0.0,0.0,0.0,0.0,0.0,0.0,0.0,0.0,0.0,0.0,0.0,0.0,0.0,0.0,0.0,0.0,0.0,0.0,0.0,0.0,0.0,0.0,0.0,0.0,0.0,0.0,0.0,0.0,0.0,0.0,0.0,0.0,0.0,0.0,0.0,0.0,0.0,0.0,0.0,0.0,0.0,0.0,0.0,0.0,0.0,0.0,0.0,0.0,0.0,0.0,0.0,0.0,0.0,0.0,0.0,0.0,0.0,0.0,0.0,0.0,0.0,0.0,0.0,0.0,0.0,0.0,0.0,0.0,0.0,0.0,0.0,0.0,0.0,0.0,0.0,0.0,0.0,0.0,0.0,0.0,0.0,0.0,0.0,0.0,0.0,0.0,0.0,0.0,0.0,0.0,0.0,0.0,0.0,0.0,0.0,0.0,0.0,0.0,0.0,0.0,0.0,0.0,0.0,0.0,0.0,0.0,0.0,0.0,0.0,0.0,0.0,0.0,0.0,0.0,0.0,0.0,0.0,0.0,0.0,0.0,0.0,0.0,0.0,0.0,0.0,0.0,0.0,0.0,0.0,0.0,0.0,0.0,0.0,0.0,0.0,0.0,0.0,0.0,0.0,0.0,0.0,0.0,0.0,0.0,0.0,0.0,0.0,0.0,0.0,0.0,0.0,0.0,0.0,0.0,0.0,0.0,0.0,0.0,0.0,0.0,0.0,0.0,0.0,0.0,0.0,0.0,0.0,0.0,0.0,0.0,0.0,0.0,0.0,0.0,0.0,0.0,0.0,0.0,0.0,0.0,0.0,0.0,0.0,0.0,0.0,0.0,0.0,0.0,0.0,0.0,0.0,0.0,0.0,0.0,0.0,0.0,0.0,0.0,0.0,0.0,0.0,0.0,0.0,0.0,0.0,0.0,0.0,0.0,0.0,0.0,0.0,0.0,0.0,0.0,0.0,0.0,0.0,0.0,0.0,0.0,0.0,0.0,0.0,0.0,0.0,0.0,0.0,0.0,0.0,0.0,0.0,0.0,0.0,0.0,0.0,0.0,0.0,0.0,0.0,0.0,0.0,0.0,0.0,0.0,0.0,0.0,0.0,0.0,0.0,0.0,0.0,0.0,0.0,0.0,0.0,0.0,0.0,0.0,0.0,0.0,0.0,0.0,0.0,0.0,0.0,0.0,0.0,0.0,0.0,0.0,0.0,0.0,0.0,0.0,0.0,0.0,0.0,0.0,0.0,0.0,0.0,0.0,0.0,0.0,0.0,0.0,0.0,0.0,0.0,0.0,0.0,0.0,0.0,0.0,0.0,0.0,0.0,0.0,0.0,0.0,0.0,0.0,0.0,0.0,0.0,0.0,0.0,0.0,0.0,0.0,0.0,0.0,0.0,0.0,0.0,0.0,0.0,0.0,0.0,0.0,0.0,0.0,0.0,0.0,0.0,0.0,0.0,0.0,0.0,0.0,0.0,0.0,0.0,0.0,0.0,0.0,0.0,0.0,0.0,0.0,0.0,0.0,0.0,0.0,0.0,0.0,0.0,0.0,0.0,0.0,0.0,0.0,0.0,0.0,0.0,0.0,0.0,0.0,0.0,0.0,0.0,0.0,0.0,0.0,0.0,0.0,0.0,0.0,0.0,0.0,0.0,0.0,0.0,0.0,0.0,0.0,0.0,0.0,0.0,0.0,0.0,0.0,0.0,0.0,0.0,0.0,0.0,0.0,0.0,0.0,0.0,0.0,0.0,0.0,0.0,0.0,0.0,0.0,0.0,0.0,0.0,0.0,0.0,0.0,0.0,0.0,0.0,0.0,0.0,0.0,0.0,0.0,0.0,0.0,0.0,0.0,0.0,0.0,0.0,0.0,0.0,0.0,0.0,0.0,0.0,0.0,0.0,0.0,0.0,0.0,0.0,0.0,0.0,0.0,0.0,0.0,0.0,0.0,0.0,0.0,0.0,0.0,0.0,0.0,0.0,0.0,0.0,0.0,0.0,0.0,0.0,0.0,0.0,0.0,0.0,0.0,0.0,0.0,0.0,0.0,0.0,0.0,0.0,0.0,0.0,0.0,0.0,0.0,0.0,0.0,0.0,0.0,0.0,0.0,0.0,0.0,0.0,0.0,0.0,-3.0982,0.0,0.0,0.0,0.0,0.0,0.0,0.0,0.0,0.0,0.0,0.0,0.0,0.0,0.0,0.0,0.0,0.0,0.0,0.0,0.0,0.0,0.0,0.0,0.0,0.0,0.0,0.0,0.0,0.0,0.0,0.0,0.0,0.0,0.0,0.0,0.0,0.0,0.0,0.0,0.0,0.0,0.0,0.0,0.0,0.0,0.0,0.0,0.0,0.0,0.0,0.0,0.0,0.0,0.0,0.0,0.0,0.0,0.0,0.0,0.0,0.0,0.0,0.0,0.0,0.0,0.0,0.0,0.0,0.0,0.0,0.0,0.0,0.0,0.0,0.0,0.0,0.0,0.0,0.0,0.0,0.0,0.0,0.0,0.0,0.0,0.0,0.0,0.0,0.0,0.0,0.0,0.0,0.0,0.0,0.0,0.0,0.0,0.0,0.0,0.0,0.0,0.0,0.0,0.0,0.0,0.0,0.0,0.0,0.0,0.0,-3.126,-3.1581,-3.1638,-3.1486,-3.1189,0.0,0.0,0.0,0.0,0.0,0.0,0.0,0.0,0.0,0.0,0.0,0.0,0.0,0.0,0.0,0.0,0.0,0.0,0.0,0.0,0.0,0.0,0.0,0.0,0.0,0.0,0.0,0.0,0.0,0.0,0.0,0.0,0.0,0.0,0.0,0.0,0.0,0.0,0.0,0.0,0.0,0.0,0.0,0.0,0.0,0.0,0.0,0.0,0.0,0.0,0.0,0.0,0.0,0.0,0.0,0.0,0.0,0.0,0.0,0.0,0.0,0.0,0.0,0.0,0.0,0.0,0.0,0.0,0.0,0.0,0.0,0.0,0.0,0.0,0.0,0.0,0.0,0.0,0.0,0.0,0.0,0.0,0.0,0.0,0.0,0.0,0.0,0.0,0.0,0.0,0.0,0.0,0.0,0.0,0.0,0.0,0.0,0.0,0.0,0.0,0.0,0.0,0.0,0.0,0.0,0.0,0.0,0.0,0.0,0.0,0.0,0.0,-3.2343,-3.1976,-3.1176,0.0,0.0,0.0,0.0,0.0,0.0,0.0,0.0,0.0,0.0,0.0,0.0,0.0,0.0,0.0,0.0,0.0,0.0,0.0,0.0,0.0,0.0,0.0,0.0,0.0,0.0,0.0,0.0,0.0,0.0,0.0,0.0,0.0,0.0,0.0,0.0,0.0,0.0,0.0,0.0,0.0,0.0,0.0,0.0,0.0,0.0,0.0,0.0,0.0,0.0,0.0,0.0,0.0,0.0,0.0,0.0,0.0,0.0,0.0,0.0,0.0,0.0,0.0,0.0,0.0,0.0,0.0,0.0,0.0,0.0,0.0,0.0,0.0,0.0,0.0,0.0,0.0,0.0,0.0,0.0,0.0,0.0,0.0,0.0,0.0,0.0,0.0,0.0,0.0,0.0,0.0,0.0,0.0,0.0,0.0,0.0,0.0,0.0,0.0,0.0,0.0,0.0,0.0,0.0,0.0,0.0,0.0,0.0,0.0,0.0,-3.2339,-3.3044,-3.3163,0.0,-3.1416,0.0,0.0,0.0,0.0,0.0,0.0,0.0,0.0,0.0,0.0,0.0,0.0,0.0,0.0,0.0,0.0,0.0,0.0,0.0,0.0,0.0,0.0,0.0,0.0,0.0,0.0,0.0,0.0,0.0,0.0,0.0,0.0,0.0,0.0,0.0,0.0,0.0,0.0,0.0,0.0,0.0,0.0,0.0,0.0,0.0,0.0,0.0,0.0,0.0,0.0,0.0,0.0,0.0,0.0,0.0,0.0,0.0,0.0,0.0,0.0,0.0,0.0,0.0,0.0,0.0,0.0,0.0,0.0,0.0,0.0,0.0,0.0,0.0,0.0,0.0,0.0,0.0,0.0,0.0,0.0,0.0,0.0,0.0,0.0,0.0,0.0,0.0,0.0,0.0,0.0,0.0,0.0,0.0,0.0,0.0,0.0,0.0,0.0,0.0,0.0,0.0,0.0,0.0,0.0,0.0,0.0,0.0,0.0,0.0,0.0,-3.2739,-3.3992,-3.3648,-3.3015,0.0,0.0,0.0,0.0,0.0,0.0,0.0,0.0,0.0,0.0,0.0,0.0,0.0,0.0,0.0,0.0,0.0,0.0,0.0,0.0,0.0,0.0,0.0,0.0,0.0,0.0,0.0,0.0,0.0,0.0,0.0,0.0,0.0,0.0,0.0,0.0,0.0,0.0,0.0,0.0,0.0,0.0,0.0,0.0,0.0,0.0,0.0,0.0,0.0,0.0,0.0,0.0,0.0,0.0,0.0,0.0,0.0,0.0,0.0,0.0,0.0,0.0,0.0,0.0,0.0,0.0,0.0,0.0,0.0,0.0,0.0,0.0,0.0,0.0,0.0,0.0,0.0,0.0,0.0,0.0,0.0,0.0,0.0,0.0,0.0,0.0,0.0,0.0,0.0,0.0,0.0,0.0,0.0,0.0,0.0,0.0,0.0,0.0,0.0,0.0,0.0,0.0,0.0,0.0,0.0,0.0,0.0,0.0,0.0,0.0,-3.2222,-3.3014,-3.4579,-3.4018,-3.3363,-3.2675,0.0,0.0,0.0,0.0,0.0,0.0,0.0,0.0,0.0,0.0,0.0,0.0,0.0,0.0,0.0,0.0,0.0,0.0,0.0,0.0,0.0,0.0,0.0,0.0,0.0,0.0,0.0,0.0,0.0,0.0,0.0,0.0,0.0,0.0,0.0,0.0,0.0,0.0,0.0,0.0,0.0,0.0,0.0,0.0,0.0,0.0,0.0,0.0,0.0,0.0,0.0,0.0,0.0,0.0,0.0,0.0,0.0,0.0,0.0,0.0,0.0,0.0,0.0,0.0,0.0,0.0,0.0,0.0,0.0,0.0,0.0,0.0,0.0,0.0,0.0,0.0,0.0,0.0,0.0,0.0,0.0,0.0,0.0,0.0,0.0,0.0,0.0,0.0,0.0,0.0,0.0,0.0,0.0,0.0,0.0,0.0,0.0,0.0,0.0,0.0,0.0,0.0,0.0,0.0,0.0,0.0,0.0,0.0,0.0,-3.2479,-3.3291,-3.4923,-3.4268,-3.3532,0.0,0.0,0.0,0.0,0.0,0.0,0.0,0.0,0.0,0.0,0.0,0.0,0.0,0.0,0.0,0.0,0.0,0.0,0.0,0.0,0.0,0.0,0.0,0.0,0.0,0.0,0.0,0.0,0.0,0.0,0.0,0.0,0.0,0.0,0.0,0.0,0.0,0.0,0.0,0.0,0.0,0.0,0.0,0.0,0.0,0.0,0.0,0.0,0.0,0.0,0.0,0.0,0.0,0.0,0.0,0.0,0.0,0.0,0.0,0.0,0.0,0.0,0.0,0.0,0.0,0.0,0.0,0.0,0.0,0.0,0.0,0.0,0.0,0.0,0.0,0.0,0.0,0.0,0.0,0.0,0.0,0.0,0.0,0.0,0.0,0.0,0.0,0.0,0.0,0.0,0.0,0.0,0.0,0.0,0.0,0.0,0.0,0.0,0.0,0.0,0.0,0.0,0.0,0.0,0.0,0.0,0.0,0.0,0.0,-3.2553,-3.3746,-3.4664,-3.523,-3.4486,-3.3724,0.0,0.0,0.0,0.0,0.0,0.0,0.0,0.0,0.0,0.0,0.0,0.0,0.0,0.0,0.0,0.0,0.0,0.0,0.0,0.0,0.0,0.0,0.0,0.0,0.0,0.0,0.0,0.0,0.0,0.0,0.0,0.0,0.0,0.0,0.0,0.0,0.0,0.0,0.0,0.0,0.0,0.0,0.0,0.0,0.0,0.0,0.0,0.0,0.0,0.0,0.0,0.0,0.0,0.0,0.0,0.0,0.0,0.0,0.0,0.0,0.0,0.0,0.0,0.0,0.0,0.0,0.0,0.0,0.0,0.0,0.0,0.0,0.0,0.0,0.0,0.0,0.0,0.0,0.0,0.0,0.0,0.0,0.0,0.0,0.0,0.0,0.0,0.0,0.0,0.0,0.0,0.0,0.0,0.0,0.0,0.0,0.0,0.0,0.0,0.0,0.0,0.0,0.0,0.0,0.0,0.0,0.0,0.0,0.0,-3.359,0.0,-3.5908,0.0,-3.4836,-3.3876,0.0,0.0,0.0,0.0,0.0,0.0,0.0,0.0,0.0,0.0,0.0,0.0,0.0,0.0,0.0,0.0,0.0,0.0,0.0,0.0,0.0,0.0,0.0,0.0,0.0,0.0,0.0,0.0,0.0,0.0,0.0,0.0,0.0,0.0,0.0,0.0,0.0,0.0,0.0,0.0,0.0,0.0,0.0,0.0,0.0,0.0,0.0,0.0,0.0,0.0,0.0,0.0,0.0,0.0,0.0,0.0,0.0,0.0,0.0,0.0,0.0,0.0,0.0,0.0,0.0,0.0,0.0,0.0,0.0,0.0,0.0,0.0,0.0,0.0,0.0,0.0,0.0,0.0,0.0,0.0,0.0,0.0,0.0,0.0,0.0,0.0,0.0,0.0,0.0,0.0,0.0,0.0,0.0,0.0,0.0,0.0,0.0,0.0,0.0,0.0,0.0,0.0,0.0,0.0,0.0,0.0,0.0,0.0,-3.2851,-3.547,-3.6548,-3.7024,-3.6992,-3.5378,-3.3945,0.0,0.0,0.0,0.0,0.0,0.0,0.0,0.0,0.0,0.0,0.0,0.0,0.0,0.0,0.0,0.0,0.0,0.0,0.0,0.0,0.0,0.0,0.0,0.0,0.0,0.0,0.0,0.0,0.0,0.0,0.0,0.0,0.0,0.0,0.0,0.0,0.0,0.0,0.0,0.0,0.0,0.0,0.0,0.0,0.0,0.0,0.0,0.0,0.0,0.0,0.0,0.0,0.0,0.0,0.0,0.0,0.0,0.0,0.0,0.0,0.0,0.0,0.0,0.0,0.0,0.0,0.0,0.0,0.0,0.0,0.0,0.0,0.0,0.0,0.0,0.0,0.0,0.0,0.0,0.0,0.0,0.0,0.0,0.0,0.0,0.0,0.0,0.0,0.0,0.0,0.0,0.0,0.0,0.0,0.0,0.0,0.0,0.0,0.0,0.0,0.0,0.0,0.0,0.0,0.0,0.0,0.0,0.0,0.0,-3.6484,-3.7847,-3.8543,-3.8389,-3.6668,-3.4933,0.0,0.0,0.0,0.0,0.0,0.0,0.0,0.0,0.0,0.0,0.0,0.0,0.0,0.0,0.0,0.0,0.0,0.0,0.0,0.0,0.0,0.0,0.0,0.0,0.0,0.0,0.0,0.0,0.0,0.0,0.0,0.0,0.0,0.0,0.0,0.0,0.0,0.0,0.0,0.0,0.0,0.0,0.0,0.0,0.0,0.0,0.0,0.0,0.0,0.0,0.0,0.0,0.0,0.0,0.0,0.0,0.0,0.0,0.0,0.0,0.0,0.0,0.0,0.0,0.0,0.0,0.0,0.0,0.0,0.0,0.0,0.0,0.0,0.0,0.0,0.0,0.0,0.0,0.0,0.0,0.0,0.0,0.0,0.0,0.0,0.0,0.0,0.0,0.0,0.0,0.0,0.0,0.0,0.0,0.0,0.0,0.0,0.0,0.0,0.0,0.0,0.0,0.0,0.0,0.0,0.0,0.0,0.0,0.0,-3.9675,-4.0104,-4.0227,-3.9994,-3.8065,-3.5983,-3.375,0.0,0.0,0.0,0.0,0.0,0.0,0.0,0.0,0.0,0.0,0.0,0.0,0.0,0.0,0.0,0.0,0.0,0.0,0.0,0.0,0.0,0.0,0.0,0.0,0.0,0.0,0.0,0.0,0.0,0.0,0.0,0.0,0.0,0.0,0.0,0.0,0.0,0.0,0.0,0.0,0.0,0.0,0.0,0.0,0.0,0.0,0.0,0.0,0.0,0.0,0.0,0.0,0.0,0.0,0.0,0.0,0.0,0.0,0.0,0.0,0.0,0.0,0.0,0.0,0.0,0.0,0.0,0.0,0.0,0.0,0.0,0.0,0.0,0.0,0.0,0.0,0.0,0.0,0.0,0.0,0.0,0.0,0.0,0.0,0.0,0.0,0.0,0.0,0.0,0.0,0.0,0.0,0.0,0.0,0.0,0.0,0.0,0.0,0.0,0.0,0.0,0.0,0.0,0.0,0.0,0.0,0.0,0.0,-4.4439,-4.3101,-4.2115,-4.1544,-3.9467,-3.7095,0.0,0.0,0.0,0.0,0.0,0.0,0.0,0.0,0.0,0.0,0.0,0.0,0.0,0.0,0.0,0.0,0.0,0.0,0.0,0.0,0.0,0.0,0.0,0.0,0.0,0.0,0.0,0.0,0.0,0.0,0.0,0.0,0.0,0.0,0.0,0.0,0.0,0.0,0.0,0.0,0.0,0.0,0.0,0.0,0.0,0.0,0.0,0.0,0.0,0.0,0.0,0.0,0.0,0.0,0.0,0.0,0.0,0.0,0.0,0.0,0.0,0.0,0.0,0.0,0.0,0.0,0.0,0.0,0.0,0.0,0.0,0.0,0.0,0.0,0.0,0.0,0.0,0.0,0.0,0.0,0.0,0.0,0.0,0.0,0.0,0.0,0.0,0.0,0.0,0.0,0.0,0.0,0.0,0.0,0.0,0.0,0.0,0.0,0.0,0.0,0.0,0.0,0.0,0.0,0.0,0.0,0.0,0.0,0.0,-4.5416,-4.548,-4.478,-4.3408,-4.0713,-3.7681,0.0,0.0,0.0,0.0,0.0,0.0,0.0,0.0,0.0,0.0,0.0,0.0,0.0,0.0,0.0,0.0,0.0,0.0,0.0,0.0,0.0,0.0,0.0,0.0,0.0,0.0,0.0,0.0,0.0,0.0,0.0,0.0,0.0,0.0,0.0,0.0,0.0,0.0,0.0,0.0,0.0,0.0,0.0,0.0,0.0,0.0,0.0,0.0,0.0,0.0,0.0,0.0,0.0,0.0,0.0,0.0,0.0,0.0,0.0,0.0,0.0,0.0,0.0,0.0,0.0,0.0,0.0,0.0,0.0,0.0,0.0,0.0,0.0,0.0,0.0,0.0,0.0,0.0,0.0,0.0,0.0,0.0,0.0,0.0,0.0,0.0,0.0,0.0,0.0,0.0,0.0,0.0,0.0,0.0,0.0,0.0,0.0,0.0,0.0,0.0,0.0,0.0,0.0,0.0,0.0,0.0,0.0,0.0,-4.4734,-4.7018,-4.7267,-4.651,-4.4783,-4.1716,-3.8452,0.0,0.0,0.0,0.0,0.0,0.0,0.0,0.0,0.0,0.0,0.0,0.0,0.0,0.0,0.0,0.0,0.0,0.0,0.0,0.0,0.0,0.0,0.0,0.0,0.0,0.0,0.0,0.0,0.0,0.0,0.0,0.0,0.0,0.0,0.0,0.0,0.0,0.0,0.0,0.0,0.0,0.0,0.0,0.0,0.0,0.0,0.0,0.0,0.0,0.0,0.0,0.0,0.0,0.0,0.0,0.0,0.0,0.0,0.0,0.0,0.0,0.0,0.0,0.0,0.0,0.0,0.0,0.0,0.0,0.0,0.0,0.0,0.0,0.0,0.0,0.0,0.0,0.0,0.0,0.0,0.0,0.0,0.0,0.0,0.0,0.0,0.0,0.0,0.0,0.0,0.0,0.0,0.0,0.0,0.0,0.0,0.0,0.0,0.0,0.0,0.0,0.0,0.0,0.0,0.0,0.0,0.0,0.0,-4.6101,-4.8529,-4.8438,-4.7428,-4.5565,-4.2418,-3.9153,0.0,0.0,0.0,0.0,0.0,0.0,0.0,0.0,0.0,0.0,0.0,0.0,0.0,0.0,0.0,0.0,0.0,0.0,0.0,0.0,0.0,0.0,0.0,0.0,0.0,0.0,0.0,0.0,0.0,0.0,0.0,0.0,0.0,0.0,0.0,0.0,0.0,0.0,0.0,0.0,0.0,0.0,0.0,0.0,0.0,0.0,0.0,0.0,0.0,0.0,0.0,0.0,0.0,0.0,0.0,0.0,0.0,0.0,0.0,0.0,0.0,0.0,0.0,0.0,0.0,0.0,0.0,0.0,0.0,0.0,0.0,0.0,0.0,0.0,0.0,0.0,0.0,0.0,0.0,0.0,0.0,0.0,0.0,0.0,0.0,0.0,0.0,0.0,0.0,0.0,0.0,0.0,0.0,0.0,0.0,0.0,0.0,0.0,0.0,0.0,0.0,0.0,0.0,0.0,0.0,0.0,0.0,0.0,-4.6853,-4.7953,-4.7787,-4.6791,-4.4941,-4.1876,-3.8936,0.0,0.0,0.0,0.0,0.0,0.0,0.0,0.0,0.0,0.0,0.0,0.0,0.0,0.0,0.0,0.0,0.0,0.0,0.0,0.0,0.0,0.0,0.0,0.0,0.0,0.0,0.0,0.0,0.0,0.0,0.0,0.0,0.0,0.0,0.0,0.0,0.0,0.0,0.0,0.0,0.0,0.0,0.0,0.0,0.0,0.0,0.0,0.0,-3.2258,0.0,0.0,0.0,0.0,0.0,0.0,0.0,0.0,0.0,0.0,0.0,0.0,0.0,0.0,0.0,0.0,0.0,0.0,0.0,0.0,0.0,0.0,0.0,0.0,0.0,0.0,0.0,0.0,0.0,0.0,0.0,0.0,0.0,0.0,0.0,0.0,0.0,0.0,0.0,0.0,0.0,0.0,0.0,0.0,0.0,0.0,0.0,0.0,0.0,0.0,0.0,0.0,0.0,0.0,0.0,0.0,0.0,0.0,0.0,-4.7205,-4.7982,-4.766,-4.6651,-4.489,-4.193,-3.91,0.0,0.0,0.0,0.0,0.0,0.0,0.0,0.0,0.0,0.0,0.0,0.0,0.0,0.0,0.0,0.0,0.0,0.0,0.0,0.0,0.0,0.0,0.0,0.0,0.0,0.0,0.0,0.0,0.0,0.0,0.0,0.0,0.0,0.0,0.0,0.0,0.0,0.0,0.0,0.0,0.0,0.0,0.0,0.0,0.0,0.0,0.0,0.0,0.0,0.0,0.0,0.0,0.0,0.0,0.0,0.0,0.0,0.0,0.0,0.0,0.0,0.0,0.0,0.0,0.0,0.0,0.0,0.0,0.0,0.0,0.0,0.0,0.0,0.0,0.0,0.0,0.0,0.0,0.0,0.0,0.0,0.0,0.0,0.0,0.0,0.0,0.0,0.0,0.0,0.0,0.0,0.0,0.0,0.0,0.0,0.0,0.0,0.0,0.0,0.0,0.0,0.0,0.0,0.0,0.0,0.0,0.0,-4.5983,-4.7384,-4.8111,-4.7585,-4.6496,-4.5005,-4.2206,-3.9414,-3.6716,0.0,0.0,0.0,0.0,0.0,0.0,0.0,0.0,0.0,0.0,0.0,0.0,0.0,0.0,0.0,0.0,0.0,0.0,0.0,0.0,0.0,0.0,0.0,0.0,0.0,0.0,0.0,0.0,0.0,0.0,0.0,0.0,0.0,0.0,0.0,0.0,0.0,0.0,-3.0761,-3.2587,0.0,0.0,0.0,0.0,0.0,0.0,0.0,0.0,-3.5669,0.0,0.0,0.0,0.0,0.0,0.0,0.0,0.0,0.0,0.0,0.0,0.0,0.0,0.0,0.0,0.0,0.0,0.0,0.0,0.0,0.0,0.0,0.0,0.0,0.0,0.0,0.0,0.0,0.0,0.0,0.0,0.0,0.0,0.0,0.0,0.0,0.0,0.0,0.0,0.0,0.0,0.0,0.0,0.0,0.0,0.0,0.0,0.0,0.0,0.0,0.0,0.0,0.0,0.0,0.0,0.0,-4.4147,-4.6027,-4.7344,-4.7989,-4.7075,-4.5929,-4.4662,-4.2088,-3.9625,-3.7285,0.0,0.0,0.0,0.0,0.0,0.0,0.0,0.0,0.0,0.0,0.0,0.0,0.0,0.0,0.0,0.0,0.0,0.0,0.0,0.0,0.0,0.0,0.0,0.0,0.0,0.0,0.0,0.0,0.0,0.0,0.0,0.0,0.0,0.0,0.0,0.0,0.0,0.0,0.0,-3.4262,-3.519,0.0,0.0,0.0,0.0,0.0,0.0,0.0,0.0,-3.6626,0.0,0.0,0.0,0.0,0.0,0.0,0.0,0.0,0.0,0.0,0.0,0.0,0.0,0.0,0.0,0.0,0.0,0.0,0.0,0.0,0.0,0.0,0.0,0.0,0.0,0.0,0.0,0.0,0.0,0.0,0.0,0.0,0.0,0.0,0.0,0.0,0.0,0.0,0.0,0.0,0.0,0.0,0.0,0.0,0.0,0.0,0.0,0.0,0.0,0.0,0.0,0.0,0.0,0.0,0.0,-4.4453,-4.6214,-4.7216,-4.7547,-4.6448,-4.5258,-4.3973,-4.1684,-3.9212,0.0,0.0,0.0,0.0,0.0,0.0,0.0,0.0,0.0,0.0,0.0,0.0,0.0,0.0,0.0,0.0,0.0,0.0,0.0,0.0,0.0,0.0,0.0,0.0,0.0,0.0,0.0,0.0,0.0,0.0,0.0,0.0,0.0,0.0,0.0,0.0,0.0,0.0,0.0,0.0,-3.5289,-3.6184,-3.6447,0.0,0.0,0.0,0.0,0.0,0.0,-3.8063,-3.8123,0.0,0.0,0.0,0.0,0.0,0.0,0.0,0.0,0.0,0.0,0.0,0.0,0.0,0.0,0.0,0.0,0.0,0.0,0.0,0.0,0.0,0.0,0.0,0.0,0.0,0.0,0.0,0.0,0.0,0.0,0.0,0.0,0.0,0.0,0.0,0.0,0.0,0.0,0.0,0.0,0.0,0.0,0.0,0.0,0.0,0.0,0.0,0.0,0.0,0.0,0.0,0.0,0.0,0.0,0.0,-4.4694,-4.6123,-4.6892,-4.6995,-4.5783,-4.4502,-4.3062,-4.1159,-3.871,0.0,0.0,0.0,0.0,0.0,0.0,0.0,0.0,0.0,0.0,0.0,0.0,0.0,0.0,0.0,0.0,0.0,0.0,0.0,0.0,0.0,0.0,0.0,0.0,0.0,0.0,0.0,0.0,0.0,0.0,0.0,0.0,0.0,0.0,0.0,0.0,0.0,0.0,0.0,0.0,0.0,-3.7345,-3.7773,-3.7404,0.0,0.0,0.0,0.0,-3.9529,-3.9619,0.0,0.0,0.0,0.0,0.0,0.0,0.0,0.0,0.0,0.0,0.0,0.0,0.0,0.0,0.0,0.0,0.0,0.0,0.0,0.0,0.0,0.0,0.0,0.0,0.0,0.0,0.0,0.0,0.0,0.0,0.0,0.0,0.0,0.0,0.0,0.0,0.0,0.0,0.0,0.0,0.0,0.0,0.0,0.0,0.0,0.0,0.0,0.0,0.0,0.0,0.0,0.0,0.0,0.0,0.0,0.0,-4.4505,-4.5361,-4.601,-4.6407,-4.5059,-4.37,-4.2294,-4.0293,-3.8228,0.0,0.0,0.0,0.0,0.0,0.0,0.0,0.0,0.0,0.0,0.0,0.0,0.0,0.0,0.0,0.0,0.0,0.0,0.0,0.0,0.0,0.0,0.0,0.0,0.0,0.0,0.0,0.0,0.0,0.0,0.0,0.0,0.0,0.0,0.0,0.0,0.0,0.0,0.0,0.0,0.0,-3.8841,-3.9365,-3.9253,-3.911,0.0,0.0,-3.9529,-4.0187,-4.0277,0.0,0.0,0.0,0.0,0.0,0.0,0.0,0.0,0.0,0.0,0.0,0.0,0.0,0.0,0.0,0.0,0.0,0.0,0.0,0.0,0.0,0.0,0.0,0.0,0.0,0.0,0.0,0.0,0.0,0.0,0.0,0.0,0.0,0.0,0.0,0.0,0.0,0.0,0.0,0.0,0.0,0.0,0.0,0.0,0.0,0.0,0.0,0.0,0.0,0.0,0.0,0.0,0.0,0.0,0.0,-4.1852,-4.4013,-4.5249,-4.5939,-4.6045,-4.4675,-4.3205,-4.1903,-3.9829,-3.7735,0.0,0.0,0.0,0.0,0.0,0.0,0.0,0.0,0.0,0.0,0.0,0.0,0.0,0.0,0.0,0.0,0.0,0.0,0.0,0.0,0.0,0.0,0.0,0.0,0.0,0.0,0.0,0.0,0.0,0.0,0.0,0.0,0.0,0.0,0.0,0.0,0.0,0.0,0.0,0.0,0.0,0.0,-4.019,-4.0424,0.0,0.0,0.0,-4.1743,-4.2043,0.0,0.0,0.0,0.0,0.0,0.0,0.0,0.0,0.0,0.0,0.0,0.0,0.0,0.0,0.0,0.0,0.0,0.0,0.0,0.0,0.0,0.0,0.0,0.0,0.0,0.0,0.0,0.0,0.0,0.0,0.0,0.0,0.0,0.0,0.0,0.0,0.0,0.0,0.0,0.0,0.0,0.0,0.0,0.0,0.0,0.0,0.0,0.0,0.0,0.0,0.0,0.0,0.0,0.0,0.0,0.0,0.0,-4.3395,-4.4857,-4.5603,-4.5435,-4.4067,-4.2654,-4.1317,-3.9441,0.0,0.0,0.0,0.0,0.0,0.0,0.0,0.0,0.0,0.0,0.0,0.0,0.0,0.0,0.0,0.0,0.0,0.0,0.0,0.0,0.0,0.0,0.0,0.0,0.0,0.0,0.0,-2.2435,0.0,0.0,0.0,0.0,0.0,0.0,0.0,0.0,0.0,0.0,0.0,0.0,0.0,0.0,-4.0335,-4.1382,-4.1836,-4.2162,0.0,0.0,-4.3658,-4.3838,-4.3569,-4.294,0.0,0.0,0.0,0.0,0.0,0.0,0.0,0.0,0.0,0.0,0.0,0.0,0.0,0.0,0.0,0.0,0.0,0.0,0.0,0.0,0.0,0.0,0.0,0.0,0.0,0.0,0.0,0.0,0.0,0.0,0.0,0.0,0.0,0.0,0.0,0.0,0.0,0.0,0.0,0.0,0.0,0.0,0.0,0.0,0.0,0.0,0.0,0.0,0.0,0.0,0.0,0.0,0.0,0.0,-4.0729,-4.2535,-4.3965,-4.4601,-4.4174,-4.3051,-4.1657,-4.0288,-3.9088,-3.7358,0.0,0.0,0.0,0.0,0.0,0.0,0.0,0.0,0.0,0.0,0.0,0.0,0.0,0.0,0.0,0.0,0.0,0.0,0.0,0.0,0.0,0.0,0.0,0.0,0.0,0.0,0.0,0.0,0.0,0.0,0.0,0.0,0.0,0.0,0.0,0.0,0.0,0.0,0.0,0.0,0.0,-4.2524,-4.3563,-4.3927,-4.4317,0.0,-4.4586,-4.4466,-4.5065,-4.4137,-4.309,-4.2604,0.0,0.0,0.0,0.0,0.0,0.0,0.0,0.0,0.0,0.0,0.0,0.0,0.0,0.0,0.0,0.0,0.0,0.0,0.0,0.0,0.0,0.0,0.0,0.0,0.0,0.0,0.0,0.0,0.0,0.0,0.0,0.0,0.0,0.0,0.0,0.0,0.0,0.0,0.0,0.0,0.0,0.0,0.0,0.0,0.0,0.0,0.0,0.0,0.0,0.0,0.0,0.0,0.0,-4.0353,-4.2726,-4.4197,-4.4935,-4.4692,-4.3418,-4.2218,-4.1084,-3.8945,-3.7091,0.0,0.0,0.0,0.0,0.0,0.0,0.0,0.0,0.0,0.0,0.0,0.0,0.0,0.0,0.0,0.0,0.0,0.0,0.0,0.0,0.0,0.0,0.0,0.0,0.0,0.0,0.0,0.0,-2.7222,-2.8426,-2.9512,0.0,0.0,0.0,0.0,0.0,0.0,0.0,0.0,0.0,0.0,-4.2965,-4.44,-4.474,0.0,0.0,-4.5454,-4.5484,-4.5304,-4.4885,-4.4248,-4.3386,-4.1563,0.0,0.0,0.0,0.0,0.0,0.0,0.0,0.0,0.0,0.0,0.0,0.0,0.0,0.0,0.0,0.0,0.0,0.0,0.0,0.0,0.0,0.0,0.0,0.0,0.0,0.0,0.0,0.0,0.0,0.0,0.0,0.0,0.0,0.0,0.0,0.0,0.0,0.0,0.0,0.0,0.0,0.0,0.0,0.0,0.0,0.0,0.0,0.0,0.0,0.0,0.0,0.0,-4.0041,-4.2865,-4.4236,-4.5047,-4.5249,-4.3856,-4.2625,-4.1471,-3.948,-3.7668,0.0,0.0,0.0,0.0,0.0,0.0,0.0,0.0,0.0,0.0,0.0,0.0,0.0,0.0,0.0,0.0,0.0,0.0,0.0,0.0,0.0,0.0,0.0,0.0,0.0,0.0,0.0,0.0,-2.8712,-2.9765,-3.0817,0.0,0.0,0.0,0.0,0.0,0.0,0.0,0.0,0.0,0.0,-4.4035,-4.5563,-4.5979,-4.6124,-4.6124,-4.6545,-4.6551,-4.589,-4.5703,-4.5101,-4.4043,0.0,0.0,0.0,0.0,0.0,0.0,0.0,0.0,0.0,0.0,0.0,0.0,0.0,0.0,0.0,0.0,0.0,0.0,0.0,0.0,0.0,0.0,0.0,0.0,0.0,0.0,0.0,0.0,0.0,0.0,-3.0888,0.0,0.0,0.0,0.0,0.0,0.0,0.0,0.0,0.0,0.0,0.0,0.0,0.0,0.0,0.0,0.0,0.0,0.0,0.0,0.0,0.0,0.0,-3.9629,-4.2855,-4.3854,-4.4631,-4.5237,-4.415,-4.291,-4.1379,-4.065,-3.9173,-3.667,0.0,0.0,0.0,0.0,0.0,0.0,0.0,0.0,0.0,0.0,0.0,0.0,0.0,0.0,0.0,0.0,0.0,0.0,0.0,0.0,0.0,0.0,0.0,0.0,0.0,0.0,-2.9124,-3.0005,-3.1016,0.0,0.0,0.0,0.0,0.0,0.0,0.0,0.0,0.0,-4.3106,-4.4827,-4.6377,-4.7342,-4.7729,-4.7873,-4.7873,-4.7904,-4.7722,-4.7084,-4.6416,-4.5616,0.0,0.0,0.0,0.0,0.0,0.0,0.0,0.0,0.0,0.0,0.0,0.0,0.0,0.0,0.0,0.0,0.0,0.0,0.0,0.0,0.0,0.0,0.0,0.0,0.0,0.0,0.0,-3.3728,-3.3558,0.0,0.0,0.0,0.0,0.0,0.0,0.0,0.0,0.0,0.0,0.0,-4.7275,-4.7561,0.0,0.0,0.0,0.0,0.0,0.0,0.0,0.0,0.0,0.0,0.0,0.0,-4.0183,-4.3136,-4.4503,-4.5557,-4.6304,-4.5165,-4.3833,-4.2621,-4.1252,-3.9339,-3.6702,0.0,0.0,0.0,0.0,0.0,0.0,0.0,0.0,0.0,0.0,0.0,0.0,0.0,0.0,0.0,0.0,0.0,0.0,0.0,0.0,0.0,0.0,0.0,0.0,0.0,-3.1021,0.0,0.0,0.0,0.0,0.0,0.0,0.0,0.0,0.0,0.0,0.0,-4.3465,-4.5502,-4.6702,-4.7743,-4.8568,-4.8697,-4.8573,0.0,0.0,0.0,0.0,0.0,0.0,0.0,0.0,0.0,0.0,0.0,0.0,0.0,0.0,-4.2229,-4.0111,-3.9559,-3.9409,-3.9409,0.0,0.0,0.0,0.0,0.0,0.0,0.0,0.0,0.0,0.0,0.0,0.0,0.0,0.0,-3.5038,0.0,-3.4041,0.0,0.0,0.0,0.0,0.0,0.0,0.0,0.0,-4.8314,-5.0317,-5.1749,-5.1869,-5.1659,0.0,-5.0227,-4.7543,0.0,0.0,0.0,0.0,0.0,0.0,0.0,0.0,-4.0691,-4.3642,-4.488,-4.5948,-4.697,-4.6016,-4.4938,-4.3863,-4.2053,-4.0085,-3.8045,-3.5883,-3.4039,0.0,0.0,0.0,0.0,0.0,0.0,0.0,0.0,0.0,0.0,0.0,0.0,0.0,0.0,0.0,0.0,0.0,0.0,0.0,0.0,0.0,0.0,0.0,-3.2369,0.0,0.0,0.0,0.0,0.0,0.0,0.0,0.0,0.0,-4.2139,-4.3714,-4.5682,-4.7765,-4.8505,-4.9106,-4.9821,0.0,0.0,0.0,0.0,0.0,0.0,0.0,-4.8649,-4.8122,-4.8326,-4.8734,-4.9032,-4.9094,-4.8898,-4.8327,0.0,0.0,-4.3427,-4.2731,-4.2731,-4.2731,-4.2731,-4.2809,-4.2887,-4.3067,-4.3247,0.0,0.0,0.0,0.0,0.0,0.0,0.0,0.0,-3.7467,-3.728,0.0,-3.6442,0.0,0.0,0.0,0.0,0.0,-4.4066,0.0,0.0,-5.2249,-5.4256,-5.5966,-5.5928,-5.5423,-5.4438,-5.3962,-5.3005,-5.1323,-4.6554,0.0,0.0,0.0,0.0,0.0,0.0,-4.1054,-4.4275,-4.491,-4.5879,-4.7189,-4.6844,-4.605,-4.4851,-4.2823,-4.1343,-4.052,-3.8647,-3.6958,-3.5281,-3.2792,0.0,0.0,0.0,0.0,0.0,0.0,0.0,0.0,0.0,0.0,0.0,0.0,0.0,0.0,0.0,0.0,0.0,0.0,0.0,0.0,-3.2362,0.0,0.0,0.0,0.0,0.0,0.0,0.0,0.0,0.0,0.0,-4.4653,-4.6327,-4.8155,-4.9924,0.0,0.0,0.0,0.0,-5.1581,-5.1343,-5.1949,-5.2059,-5.1199,-5.1055,-5.0913,-5.0248,0.0,0.0,-5.2068,-5.2534,-5.2636,-5.2151,-5.1682,-5.0174,-4.6371,-4.5687,-4.5544,-4.5544,-4.5574,-4.5514,-4.5544,-4.6082,-4.6471,-4.1588,0.0,0.0,0.0,0.0,-3.6586,-3.6939,-3.7462,-3.7329,-3.7519,-3.7861,-3.7493,0.0,0.0,0.0,0.0,0.0,0.0,-5.0718,-5.3103,-5.5158,-5.6696,-5.7763,-5.7687,-5.7273,-5.6588,-5.6027,-5.5055,-5.3714,-5.1784,-4.8545,-4.416,0.0,0.0,0.0,0.0,-4.2762,-4.4767,-4.5685,-4.6652,-4.7538,-4.7019,-4.6107,-4.4728,-4.3646,-4.2585,-4.143,-4.04,-3.9106,-3.7297,-3.5258,0.0,0.0,0.0,0.0,0.0,0.0,0.0,0.0,0.0,0.0,0.0,0.0,0.0,0.0,0.0,0.0,0.0,0.0,0.0,-3.4037,-3.4655,-3.5273,0.0,0.0,0.0,0.0,0.0,0.0,0.0,0.0,0.0,-4.9024,-4.9675,-5.0322,0.0,0.0,-5.266,-5.2524,-5.2921,-5.3148,-5.2948,-5.2986,0.0,-5.2667,-5.3053,-5.339,-5.3323,-5.4405,-5.5278,-5.5517,-5.5602,-5.5383,-5.4621,-5.4383,-5.374,-5.2185,-5.0698,-4.9824,-4.9794,-4.9614,-4.9523,-4.9523,-4.9703,-4.9793,-4.2702,-4.0577,-3.8847,-3.7567,-3.6674,-3.6491,-3.6698,-3.7184,-3.7395,-3.8,-3.8971,-3.9412,-4.0247,-4.1534,-4.3833,0.0,0.0,0.0,-5.4381,-5.6531,-5.8055,-5.9386,-6.0333,-6.0133,-5.9716,-5.9095,-5.854,-5.7538,-5.6153,-5.5088,-5.2673,-4.8804,0.0,0.0,-4.2898,-4.3169,-4.3952,-4.517,-4.6082,-4.6791,-4.7452,-4.7193,-4.6364,-4.4917,-4.4501,-4.3671,-4.2396,-4.1715,-4.0783,-3.943,-3.7565,-3.5419,0.0,0.0,0.0,0.0,0.0,0.0,0.0,0.0,0.0,0.0,0.0,-2.9639,-3.0869,0.0,0.0,0.0,-3.3758,-3.4834,-3.6772,-3.6941,0.0,0.0,0.0,0.0,0.0,0.0,0.0,-4.6786,-4.8578,-5.027,-5.1894,-5.2605,-5.2876,-5.2943,-5.3744,-5.4267,-5.405,0.0,-5.517,-5.4974,-5.539,-5.5595,-5.5516,-5.5876,-5.6217,-5.6376,-5.7281,-5.7919,-5.7838,-5.7904,-5.7748,-5.7159,-5.6888,-5.6524,-5.5875,-5.4604,-5.3338,-5.2571,-5.2197,-5.2007,-5.2007,-5.2007,-5.1977,-4.3709,-4.1637,-3.9906,-3.7938,-3.6075,-3.6543,-3.6432,-3.6333,-3.7766,-3.8859,-3.9654,-4.1849,-4.3498,-4.4952,-4.9012,0.0,-5.3413,-5.5813,-5.804,-6.0139,-6.0916,-6.1962,-6.3183,-6.2744,-6.2189,-6.1541,-6.1001,-6.0,-5.8537,-5.7012,-5.5193,-5.2939,-4.9459,-4.6743,-4.4929,-4.4559,-4.4868,-4.5633,-4.6169,-4.6681,-4.7279,-4.7309,-4.6651,-4.5334,-4.5274,-4.4676,-4.3389,-4.2761,-4.2132,-4.1444,-3.9589,-3.7674,-3.5699,0.0,0.0,0.0,0.0,0.0,0.0,0.0,0.0,0.0,0.0,0.0,0.0,0.0,0.0,0.0,-3.6624,0.0,-3.9106,-3.9309,0.0,0.0,0.0,-4.3267,-4.4857,-4.6278,-4.7733,-4.9255,0.0,0.0,-5.3653,-5.5006,-5.5649,-5.504,-5.5339,-5.5639,-5.5707,-5.6734,-5.7457,-5.723,-5.833,-5.9118,-5.8615,-5.8781,-5.8913,-5.9046,-5.9547,-5.9779,-5.9479,-5.9651,-5.9674,-5.9323,-5.903,-5.8455,-5.7995,-5.7119,-5.6138,-5.4147,-5.3549,-5.3354,-5.3354,-5.3354,-5.3354,-4.276,-4.1565,-4.0588,-3.8938,-3.7093,-3.6549,-3.6597,-3.6977,-3.8633,-4.005,-4.157,-4.4182,-4.7352,-5.0828,-5.3353,-5.5525,-5.7426,-5.9181,-6.0633,-6.1811,-6.2551,-6.2838,-6.2755,-6.2287,-6.177,-6.1167,-6.0451,-5.9707,-5.8898,-5.7881,-5.6169,-5.3908,-5.2326,-5.0225,-4.7803,-4.6916,-4.6703,-4.7127,-4.7075,-4.716,-4.7309,-4.7309,-4.6681,-4.5334,-4.5274,-4.4676,-4.3389,-4.318,-4.2791,-4.2132,-4.0875,-3.9234,-3.7248,-3.4364,0.0,0.0,0.0,0.0,0.0,0.0,0.0,0.0,0.0,-3.4196,-3.5866,0.0,-3.8381,0.0,-3.9715,-4.0527,-4.1441,-4.2016,0.0,0.0,-4.5297,-4.6515,-4.8545,-4.9593,-5.0947,-5.3044,-5.3721,-5.4566,-5.5852,-5.6799,-5.7543,-5.7881,-5.7611,-5.7504,-5.8045,-5.874,-5.9194,-5.9118,-5.9342,-5.9388,-5.9488,-6.0002,-6.065,-6.0946,-6.1227,-6.1327,-6.0953,-6.092,-6.0802,-6.0292,-5.9946,-5.9387,-5.8578,-5.784,-5.6991,-5.5914,-5.5167,-5.47,-5.473,-5.47,-5.47,-4.3033,-4.225,-4.1538,-4.0458,-3.9062,-3.7797,-3.7543,-3.8082,-4.0015,-4.2071,-4.4411,-4.8775,-5.2606,-5.5921,-5.7754,-5.942,-6.0893,-6.1807,-6.2693,-6.3475,-6.3628,-6.3641,-6.3498,-6.3012,-6.2417,-6.1781,-6.1112,-6.0215,-5.9015,-5.8273,-5.6859,-5.4937,-5.3646,-5.207,-5.0275,-4.858,-4.7588,-4.7456,-4.7377,-4.7309,-4.7279,-4.701,-4.6381,-4.5334,-4.4736,-4.3958,-4.294,-4.2611,-4.2389,-4.2106,-4.1234,-4.0243,-3.9025,-3.6507,-3.4753,0.0,0.0,0.0,0.0,0.0,0.0,0.0,0.0,0.0,0.0,0.0,-4.1271,-4.2049,-4.276,-4.3504,-4.4215,-4.4993,-4.6143,-4.797,-4.8511,-4.9627,-5.186,-5.2469,-5.3348,-5.4905,-5.5649,-5.6359,-5.7205,-5.822,-5.9167,-5.9911,-5.9674,-5.9438,-5.9539,-6.0072,-6.0468,-6.0502,-6.0661,-6.0819,-6.0785,-6.1267,-6.1672,-6.1929,-6.203,-6.1917,-6.1709,-6.1628,-6.1383,-6.0969,-6.0548,-6.0001,-5.903,-5.8119,-5.718,-5.6409,-5.575,-5.528,-5.5209,-5.5209,-5.5209,-4.3653,-4.2936,-4.2544,-4.2098,-4.1582,-4.0009,-3.9411,-3.9757,-4.2108,-4.4826,-4.8207,-5.402,-5.7868,-6.0085,-6.1599,-6.276,-6.3631,-6.3867,-6.4285,-6.4886,-6.4446,-6.4329,-6.452,-6.405,-6.3391,-6.2603,-6.2095,-6.0942,-5.9205,-5.8572,-5.7464,-5.5924,-5.4256,-5.3039,-5.2191,-4.9789,-4.8202,-4.7433,-4.7327,-4.7339,-4.7429,-4.6711,-4.5992,-4.5274,-4.4018,-4.303,-4.2449,-4.179,-4.1535,-4.1761,-4.1316,-4.0903,-4.0615,-3.8717,-3.7445,0.0,-3.589,0.0,0.0,0.0,0.0,0.0,0.0,0.0,0.0,-4.2658,-4.4316,-4.5094,-4.5838,-4.6583,-4.7293,-4.8037,-4.9323,-5.1386,-5.1657,-5.2503,-5.4566,-5.4871,-5.5209,-5.6055,-5.7239,-5.8084,-5.8389,-5.9471,-6.0554,-6.1231,-6.1332,-6.1095,-6.0622,-6.1028,-6.1434,-6.1434,-6.1975,-6.2212,-6.2245,-6.2347,-6.2347,-6.2381,-6.2189,-6.2076,-6.2076,-6.1951,-6.1709,-6.1465,-6.1053,-6.043,-5.9476,-5.8272,-5.7244,-5.6475,-5.575,-5.528,-5.5179,-5.5209,-5.5209,-4.2849,-4.3073,-4.3365,-4.3508,-4.3676,-4.4306,-4.3859,-4.2699,-4.5294,-4.9462,-5.4556,-5.7443,-5.9781,-6.1576,-6.2629,-6.3711,-6.4842,-6.4801,-6.5017,-6.5489,-6.5035,-6.4544,-6.4131,-6.3705,-6.3147,-6.2412,-6.1823,-6.0974,-5.9791,-5.9175,-5.798,-5.6419,-5.5372,-5.4097,-5.2572,0.0,0.0,0.0,-4.7605,-4.7549,-4.8027,-4.695,-4.5992,-4.5304,-4.4018,0.0,-4.2573,-4.2063,-4.1879,-4.2101,-4.1894,0.0,0.0,0.0,0.0,0.0,0.0,0.0,0.0,0.0,0.0,0.0,-4.4226,-4.4587,-4.3031,-4.5399,-4.7361,-4.8105,-4.8815,-4.956,-5.0304,-5.1048,-5.2131,-5.3721,-5.3957,-5.46,-5.619,-5.6393,-5.69,-5.8254,-5.866,-5.9302,-6.0385,-6.0926,-6.1332,-6.2009,-6.2178,-6.2144,-6.1975,-6.2042,-6.2178,-6.2212,-6.2313,-6.2415,-6.2415,-6.2415,-6.2415,-6.2381,-6.2381,-6.2302,-6.2302,-6.2302,-6.211,-6.1709,-6.1268,-6.0567,-5.9476,-5.8455,-5.7338,-5.6475,-5.5849,-5.5481,-5.528,-5.5209,-5.5209,-4.3325,0.0,-4.4453,-4.5342,0.0,-4.7785,-4.8459,-4.8574,-4.9385,-5.3053,-5.8457,-6.0532,-6.229,-6.3695,-6.4462,-6.5154,-6.5847,-6.5609,-6.5507,-6.5498,-6.49,-6.4369,-6.3798,-6.3345,-6.2805,-6.2185,-6.1544,-6.0782,-5.9744,-5.9182,-5.818,-5.6868,-5.5752,-5.443,-5.3117,-5.139,-4.9992,-4.8775,-4.8446,-4.8297,-4.8237,-4.7309,-4.6322,-4.5304,-4.4098,0.0,0.0,0.0,0.0,0.0,0.0,0.0,0.0,0.0,0.0,-4.2444,-4.2422,-4.2836,-4.3687,-4.4575,-4.5375,-4.6143,-4.7564,-4.7936,-4.6786,-4.8139,-4.9458,-5.0541,-5.1319,-5.2063,-5.2807,-5.3551,-5.4431,-5.5513,-5.5683,-5.6122,-5.7137,-5.7679,-5.8186,-5.893,-5.9674,-6.0486,-6.1197,-6.1637,-6.1941,-6.2313,-6.2415,-6.2415,-6.2415,-6.2415,-6.2415,-6.2415,-6.2415,-6.2415,-6.2415,-6.2415,-6.2415,-6.2415,-6.2415,-6.2415,-6.2415,-6.2415,-6.2223,-6.179,-6.1268,-6.0515,-5.9476,-5.8272,-5.7244,-5.6506,-5.5849,-5.5381,-5.5179,-5.5209,-5.5209,-4.4265,-4.4718,-4.5954,-4.7355,-4.889,-5.078,-5.2895,-5.4998,0.0,0.0,0.0,-6.3027,-6.452,-6.5568,-6.6078,-6.6385,-6.6465,-6.607,-6.5705,-6.5261,-6.4556,-6.405,-6.3572,-6.3014,-6.2449,-6.1914,-6.1257,-6.0441,-5.9516,-5.8978,-5.8209,-5.7222,-5.5897,-5.463,-5.3541,-5.1456,-5.0064,-4.9704,-4.9374,-4.9075,-4.8626,-4.7758,-4.6856,-4.5747,-4.4579,-4.3819,-4.3503,-4.3248,-4.3385,-4.399,-4.4405,-4.4879,-4.544,-4.5332,-4.5379,-4.5651,-4.5454,-4.59,-4.7113,-4.7436,-4.8206,-4.9695,-5.0338,-5.0676,-5.0676,-5.0676,-5.1319,-5.2773,-5.3484,-5.4194,-5.4905,-5.5513,-5.619,-5.69,-5.7002,-5.7273,-5.7983,-5.8626,-5.9066,-5.9471,-6.052,-6.1366,-6.1535,-6.2009,-6.2415,-6.2381,-6.2415,-6.2415,-6.2415,-6.2415,-6.2415,-6.2415,-6.2415,-6.2415,-6.2415,-6.2415,-6.2415,-6.2415,-6.2415,-6.2415,-6.2415,-6.2415,-6.2223,-6.1709,-6.1136,-6.0345,-5.9331,-5.8026,-5.6988,-5.6311,-5.5651,-5.5209,-5.5209,-5.5209,-5.5209,-4.5365,-4.6221,-4.7917,-4.9478,-5.0996,-5.331,-5.6452,-5.9749,-5.9355,-6.0576,-6.2891,-6.4431,-6.5446,-6.6087,-6.6282,-6.6358,-6.6281,-6.5769,-6.535,-6.4981,-6.4331,-6.3755,-6.3242,-6.2855,-6.2255,-6.1544,-6.1081,-6.029,-5.9383,-5.8909,-5.8209,-5.7331,-5.6514,-5.5101,-5.319,-5.2183,-5.1423,-5.093,-4.9853,-4.9494,-4.9912,-4.8383,-4.7478,-4.7207,-4.589,-4.5217,-4.5479,-4.5426,-4.5627,-4.6191,-4.6741,-4.721,-4.7538,-4.7794,-4.8015,-4.827,-4.8894,-4.9424,-4.9627,-5.0236,-5.1251,-5.2706,-5.2976,-5.301,-5.301,-5.3044,-5.3653,-5.5074,-5.531,-5.5716,-5.6393,-5.6562,-5.6934,-5.7611,-5.7746,-5.8051,-5.8727,-5.8998,-5.9573,-6.0723,-6.1129,-6.1569,-6.2076,-6.2313,-6.2415,-6.2415,-6.2415,-6.2415,-6.2415,-6.2415,-6.2415,-6.2415,-6.2415,-6.2415,-6.2415,-6.2415,-6.2415,-6.2415,-6.2415,-6.2415,-6.2415,-6.2381,-6.2144,-6.1547,-6.1053,-6.0173,-5.894,-5.784,-5.6892,-5.6244,-5.5581,-5.5179,-5.5209,-5.5209,-5.5209,-4.7534,-4.8841,-5.0324,-5.212,-5.421,-5.7137,-5.9846,-6.2298,-6.2757,-6.3351,-6.4209,-6.5283,-6.5973,-6.6327,-6.6295,-6.62,-6.6074,-6.5465,-6.5041,-6.4668,-6.405,-6.3527,-6.3051,-6.2552,-6.1933,-6.1279,-6.0564,-5.9844,-5.9149,-5.8667,-5.8065,-5.7439,-5.6303,-5.5017,-5.3434,-5.2698,-5.2185,-5.1695,-5.0908,-5.0485,-5.0395,-4.9882,-4.9144,-4.8218,-4.7812,-4.745,-4.7189,-4.7508,-4.7923,-4.8413,-4.8857,-4.9261,-4.959,-4.9754,-4.9947,-5.0109,-5.0477,-5.0879,-5.1251,-5.2401,-5.3518,-5.46,-5.4702,-5.4871,-5.5277,-5.4938,-5.5175,-5.619,-5.6292,-5.6596,-5.7306,-5.7408,-5.7543,-5.7848,-5.8254,-5.8626,-5.9032,-5.981,-6.052,-6.1231,-6.167,-6.2042,-6.2347,-6.2415,-6.2415,-6.2415,-6.2415,-6.2415,-6.2415,-6.2415,-6.2415,-6.2415,-6.2415,-6.2415,-6.2415,-6.2415,-6.2415,-6.2415,-6.2415,-6.2415,-6.2381,-6.2302,-6.1951,-6.1465,-6.0886,-5.9914,-5.876,-5.7653,-5.6827,-5.6176,-5.5581,-5.528,-5.5209,-5.5209,-5.5209,-5.0039,-5.1771,-5.3155,-5.5251,-5.7971,-6.0683,-6.2658,-6.3984,-6.491,-6.5311,-6.5393,-6.5935,-6.6283,-6.6466,-6.6242,-6.6044,-6.5755,-6.5192,-6.4737,-6.433,-6.3712,-6.3252,-6.2818,-6.2185,-6.16,-6.1045,-6.0129,-5.945,-5.8944,-5.8456,-5.7954,-5.7364,-5.6179,-5.4966,-5.3868,-5.3201,-5.2608,-5.2155,-5.2063,-5.1668,-5.1092,-5.1478,-5.0938,-4.9739,-5.0165,-4.9977,-4.9288,-4.9823,-5.0331,-5.0582,-5.0925,-5.1263,-5.1562,-5.1562,-5.1628,-5.1725,-5.1725,-5.2063,-5.2807,-5.4059,-5.5175,-5.5886,-5.5953,-5.6258,-5.69,-5.6528,-5.6427,-5.6934,-5.7036,-5.7273,-5.7746,-5.7881,-5.7949,-5.8152,-5.866,-5.9167,-5.9573,-6.0588,-6.14,-6.1535,-6.2042,-6.2381,-6.2415,-6.2415,-6.2415,-6.2415,-6.2415,-6.2415,-6.2415,-6.2415,-6.2415,-6.2415,-6.2415,-6.2415,-6.2415,-6.2415,-6.2415,-6.2415,-6.2415,-6.2415,-6.2381,-6.2189,-6.1837,-6.135,-6.06,-5.9652,-5.8669,-5.7559,-5.6603,-5.6077,-5.5581,-5.5179,-5.5209,-5.5209,-5.5209,-5.2997,-5.4718,-5.6645,-5.9201,-6.2001,-6.3082,-6.4127,-6.5114,-6.5746,-6.6104,-6.632,-6.6361,-6.6398,-6.6368,-6.6183,-6.5884,-6.552,-6.5047,-6.452,-6.4009,-6.3482,-6.2953,-6.2412,-6.1823,-6.1198,-6.06,-5.9908,-5.9249,-5.8702,-5.8385,-5.7808,-5.7063,-5.61,-5.5213,-5.438,-5.3726,-5.3113,-5.2667,-5.3024,-5.2993,-5.2544,-5.2573,-5.2533,-5.2629,-5.2781,-5.2689,-5.2042,-5.2704,-5.2914,-5.27,-5.284,-5.3045,-5.3213,-5.3281,-5.3281,-5.3281,-5.3281,-5.3619,-5.4329,-5.5141,-5.5919,-5.6596,-5.6697,-5.6968,-5.7679,-5.7679,-5.7679,-5.7746,-5.7746,-5.778,-5.7881,-5.7915,-5.822,-5.8863,-5.9066,-5.9539,-6.0757,-6.1197,-6.1569,-6.2245,-6.2313,-6.2415,-6.2415,-6.2415,-6.2415,-6.2415,-6.2415,-6.2415,-6.2415,-6.2415,-6.2415,-6.2415,-6.2415,-6.2415,-6.2415,-6.2415,-6.2415,-6.2415,-6.2415,-6.2415,-6.2381,-6.2189,-6.1803,-6.1185,-6.0397,-5.9531,-5.8455,-5.7464,-5.6506,-5.6047,-5.5581,-5.5209,-5.5209,-5.5209,-5.5209,-5.6087,-5.8116,-5.981,-6.2146,-6.4733,-6.5749,-6.655,-6.7231,-6.7649,-6.7851,-6.7875,-6.7793,-6.7217,-6.6251,-6.5986,-6.5647,-6.5199,-6.4704,-6.4172,-6.3668,-6.3158,-6.2705,-6.2238,-6.1544,-6.0903,-6.0227,-5.945,-5.8841,-5.8456,-5.8171,-5.7808,-5.7364,-5.668,-5.5941,-5.5377,-5.4717,-5.421,-5.3954,-5.421,-5.4465,-5.4433,-5.4146,-5.4045,-5.3987,-5.4378,-5.4382,-5.3948,-5.4322,-5.4477,-5.4387,-5.4157,-5.4058,-5.416,-5.3754,-5.3687,-5.4126,-5.46,-5.5141,-5.5852,-5.619,-5.6664,-5.7374,-5.7442,-5.7577,-5.7848,-5.7881,-5.7881,-5.7881,-5.7881,-5.8051,-5.8457,-5.8558,-5.8863,-5.9539,-6.008,-6.0622,-6.1197,-6.1704,-6.2076,-6.2347,-6.2415,-6.2415,-6.2415,-6.2415,-6.2415,-6.2415,-6.2415,-6.2415,-6.2415,-6.2415,-6.2415,-6.2415,-6.2415,-6.2415,-6.2415,-6.2415,-6.2415,-6.2415,-6.2415,-6.2415,-6.2381,-6.203,-6.1595,-6.1103,-6.0226,-5.9266,-5.818,-5.7149,-5.6311,-5.5849,-5.5481,-5.5209,-5.5209,-5.5209,-5.5209,-5.9166,-6.1366,-6.3005,-6.5014,-6.7106,-6.7779,-6.8326,-6.8717,-6.8903,-6.8921,-6.8861,-6.8665,-6.7879,-6.6707,-6.6346,-6.6014,-6.5524,-6.5046,-6.4556,-6.4105,-6.3616,-6.2996,-6.2331,-6.1579,-6.0715,-5.9844,-5.9114,-5.8526,-5.8171,-5.7954,-5.7808,-5.7588,-5.7139,-5.6647,-5.6179,-5.5701,-5.5295,-5.5099,-5.5295,-5.562,-5.5861,-5.5749,-5.5488,-5.5345,-5.5852,-5.5896,-5.5342,-5.5598,-5.5673,-5.5471,-5.5106,-5.4905,-5.4871,-5.4397,-5.4329,-5.4906,-5.5581,-5.6224,-5.6765,-5.6968,-5.734,-5.7814,-5.7881,-5.7881,-5.7881,-5.7881,-5.7983,-5.822,-5.822,-5.849,-5.8896,-5.9201,-5.9641,-6.0351,-6.0994,-6.1332,-6.1603,-6.211,-6.2381,-6.2415,-6.2415,-6.2415,-6.2415,-6.2415,-6.2415,-6.2415,-6.2415,-6.2415,-6.2415,-6.2415,-6.2415,-6.2415,-6.2415,-6.2415,-6.2415,-6.2415,-6.2415,-6.2415,-6.2415,-6.2381,-6.2302,-6.187,-6.1383,-6.0769,-5.9827,-5.894,-5.7933,-5.6988,-5.6115,-5.5651,-5.528,-5.5209,-5.5209,-5.5209,-5.5209,-6.2301,-6.4408,-6.6565,-6.7997,-6.9076,-6.8864,-6.8908,-6.9208,-6.906,-6.8885,-6.882,-6.8511,-6.8147,-6.7768,-6.7713,-6.7406,-6.6938,-6.6425,-6.5903,-6.5337,-6.4815,-6.3984,-6.2673,-6.1946,-6.0966,-5.9725,-5.9151,-5.8593,-5.8022,-5.7915,-5.7808,-5.7588,-5.7364,-5.7063,-5.668,-5.6414,-5.6146,-5.602,-5.6179,-5.6336,-5.668,-5.6987,-5.703,-5.6887,-5.7297,-5.7077,-5.6544,-5.6622,-5.6461,-5.5784,-5.5716,-5.5683,-5.5649,-5.5615,-5.5617,-5.5721,-5.6362,-5.6731,-5.6938,-5.7408,-5.7814,-5.7881,-5.7881,-5.7881,-5.7881,-5.7949,-5.8254,-5.8863,-5.8998,-5.9099,-5.9201,-5.9742,-6.0385,-6.1095,-6.1264,-6.1637,-6.2245,-6.2313,-6.2381,-6.2415,-6.2415,-6.2415,-6.2415,-6.2415,-6.2415,-6.2415,-6.2415,-6.2415,-6.2415,-6.2415,-6.2415,-6.2415,-6.2415,-6.2415,-6.2415,-6.2415,-6.2415,-6.2381,-6.2381,-6.2268,-6.203,-6.1676,-6.1136,-6.0463,-5.9596,-5.861,-5.7684,-5.6827,-5.6047,-5.5581,-5.528,-5.5209,-5.5209,-5.5209,-5.5209,-6.5295,-6.7714,-6.9065,-6.9976,-7.0525,-7.0587,-7.0614,-7.061,-7.0479,-7.0292,-7.0015,-6.9731,-6.9431,-6.9051,-6.8755,-6.7954,-6.6767,-6.6343,-6.5885,-6.5331,-6.4858,-6.4215,-6.3287,-6.2478,-6.1593,-6.067,-6.0073,-5.9327,-5.8699,-5.8626,-5.8355,-5.7876,-5.7588,-5.7439,-5.7289,-5.703,-5.6877,-5.6877,-5.6877,-5.703,-5.7289,-5.7439,-5.7514,-5.7588,-5.7735,-5.7673,-5.7437,-5.7509,-5.7374,-5.7103,-5.6664,-5.6427,-5.6427,-5.6427,-5.6393,-5.6498,-5.707,-5.7476,-5.7509,-5.7712,-5.7881,-5.7881,-5.7881,-5.7881,-5.7949,-5.8321,-5.8727,-5.9099,-5.9979,-6.0419,-6.0486,-6.0723,-6.1163,-6.1806,-6.2009,-6.2076,-6.2313,-6.2415,-6.2415,-6.2415,-6.2415,-6.2415,-6.2415,-6.2415,-6.2415,-6.2415,-6.2415,-6.2415,-6.2415,-6.2415,-6.2415,-6.2415,-6.2415,-6.2415,-6.2415,-6.2415,-6.2381,-6.2302,-6.2268,-6.203,-6.179,-6.1268,-6.0717,-5.9881,-5.903,-5.8119,-5.718,-5.6342,-5.5551,-5.5381,-5.5179,-5.5209,-5.5209,-5.5209,-5.5209,-6.8002,-6.9904,-7.0659,-7.1115,-7.1425,-7.1545,-7.1507,-7.1412,-7.1221,-7.094,-7.0652,-7.031,-6.9963,-6.9544,-6.9171,-6.8257,-6.7021,-6.6664,-6.6321,-6.5893,-6.5347,-6.4685,-6.377,-6.2969,-6.2022,-6.1183,-6.0529,-5.9994,-5.9438,-5.937,-5.9099,-5.866,-5.8241,-5.8032,-5.7999,-5.7722,-5.7514,-5.7514,-5.7514,-5.7588,-5.7662,-5.7735,-5.7881,-5.7954,-5.8027,-5.7954,-5.7881,-5.7881,-5.7881,-5.7814,-5.7408,-5.7137,-5.7137,-5.7137,-5.7137,-5.7205,-5.7611,-5.7881,-5.7881,-5.7881,-5.7881,-5.7881,-5.7881,-5.7881,-5.7915,-5.8592,-5.9066,-5.9539,-6.0486,-6.1332,-6.1569,-6.1637,-6.1873,-6.2313,-6.2415,-6.2415,-6.2415,-6.2415,-6.2415,-6.2415,-6.2415,-6.2415,-6.2415,-6.2415,-6.2415,-6.2415,-6.2415,-6.2415,-6.2415,-6.2415,-6.2381,-6.2268,-6.2268,-6.2223,-6.2144,-6.1984,-6.2144,-6.211,-6.187,-6.1709,-6.1268,-6.0769,-6.0054,-5.9266,-5.8455,-5.7527,-5.6603,-5.575,-5.5381,-5.5179,-5.5209,-5.5209,-5.5209,-5.5209,-5.5179,-7.0343,-7.1023,-7.1409,-7.1523,-7.1624,-7.1533,-7.1403,-7.1239,-7.094,-7.0652,-7.0348,-6.9963,-6.9506,-6.9091,-6.8772,-6.8271,-6.776,-6.7531,-6.741,-6.7067,-6.6378,-6.5412,-6.4273,-6.3377,-6.2402,-6.117,-6.0483,-6.0182,-6.0114,-6.0114,-6.0047,-5.9911,-5.9302,-5.889,-5.8964,-5.8248,-5.7949,-5.7808,-5.7808,-5.7881,-5.7954,-5.8027,-5.8171,-5.8205,-5.8171,-5.8099,-5.7954,-5.7881,-5.7881,-5.7881,-5.7848,-5.7848,-5.778,-5.778,-5.7848,-5.778,-5.7881,-5.7881,-5.7881,-5.7881,-5.7881,-5.7881,-5.7881,-5.7915,-5.8118,-5.8693,-5.9404,-6.0114,-6.0892,-6.1603,-6.2178,-6.2279,-6.2313,-6.2415,-6.2415,-6.2415,-6.2415,-6.2415,-6.2415,-6.2415,-6.2415,-6.2415,-6.2415,-6.2415,-6.2415,-6.2415,-6.2415,-6.2415,-6.2415,-6.2415,-6.2302,-6.2076,-6.1997,-6.1951,-6.179,-6.1547,-6.1709,-6.1756,-6.1465,-6.1219,-6.0685,-6.0087,-5.9266,-5.8455,-5.7527,-5.67,-5.6244,-5.5481,-5.528,-5.5209,-5.5209,-5.5209,-5.5209,-5.5179,-5.528,-7.1057,-7.1435,-7.1521,-7.1555,-7.1559,-7.1358,-7.1158,-7.0915,-7.0652,-7.0348,-6.9927,-6.9544,-6.9091,-6.8772,-6.8431,-6.8033,-6.7704,-6.7396,-6.7154,-6.6867,-6.6355,-6.559,-6.4658,-6.3798,-6.2827,-6.2089,-6.1748,-6.14,-6.0994,-6.0926,-6.0689,-6.0148,-5.9877,-5.9505,-5.9099,-5.8761,-5.8457,-5.7915,-5.7881,-5.7954,-5.8099,-5.8171,-5.8277,-5.8419,-5.8419,-5.8314,-5.8133,-5.7954,-5.7881,-5.7881,-5.7881,-5.7881,-5.7881,-5.7881,-5.7881,-5.7881,-5.7881,-5.7881,-5.7881,-5.7881,-5.7881,-5.7881,-5.7881,-5.8152,-5.866,-5.9336,-6.008,-6.0858,-6.1603,-6.2178,-6.2347,-6.2415,-6.2415,-6.2415,-6.2415,-6.2415,-6.2415,-6.2415,-6.2415,-6.2415,-6.2415,-6.2415,-6.2415,-6.2415,-6.2415,-6.2415,-6.2415,-6.2415,-6.2415,-6.2381,-6.2302,-6.2076,-6.1917,-6.1595,-6.1185,-6.0769,-6.0567,-6.0652,-6.06,-6.0345,-5.9794,-5.9266,-5.8363,-5.7527,-5.67,-5.6145,-5.5681,-5.5381,-5.528,-5.5209,-5.5209,-5.5209,-5.5209,-5.528,-5.528,-7.1451,-7.1593,-7.1555,-7.1474,-7.1347,-7.1124,-7.0889,-7.0622,-7.0315,-6.9927,-6.9544,-6.9091,-6.8734,-6.8394,-6.8134,-6.7863,-6.7506,-6.7061,-6.6691,-6.6391,-6.5922,-6.5344,-6.4636,-6.3677,-6.2966,-6.2537,-6.2381,-6.2144,-6.1738,-6.1704,-6.1434,-6.0994,-6.0689,-6.0351,-5.9844,-5.9539,-5.9066,-5.8423,-5.8395,-5.8332,-5.8307,-5.8419,-5.8561,-5.8667,-5.8667,-5.8597,-5.8385,-5.8171,-5.7954,-5.7881,-5.7881,-5.7881,-5.7881,-5.7881,-5.7881,-5.7881,-5.7881,-5.7881,-5.7881,-5.7881,-5.7881,-5.7915,-5.8152,-5.849,-5.9099,-5.9877,-6.0825,-6.1264,-6.1941,-6.2415,-6.2381,-6.2415,-6.2415,-6.2415,-6.2415,-6.2415,-6.2415,-6.2415,-6.2415,-6.2415,-6.2415,-6.2415,-6.2415,-6.2415,-6.2415,-6.2415,-6.2415,-6.2415,-6.2381,-6.2302,-6.211,-6.1837,-6.1432,-6.102,-6.0567,-6.0054,-5.9564,-5.9564,-5.9564,-5.9298,-5.8908,-5.8272,-5.7527,-5.6796,-5.5948,-5.578,-5.5381,-5.528,-5.5209,-5.5209,-5.5209,-5.5209,-5.5179,-5.5381,-5.5481,-7.1584,-7.1594,-7.1513,-7.1319,-7.1077,-7.0837,-7.0622,-7.0315,-6.9927,-6.9504,-6.9047,-6.8726,-6.8394,-6.8148,-6.7967,-6.7667,-6.7213,-6.6852,-6.6355,-6.5796,-6.5344,-6.4773,-6.4111,-6.3193,-6.2693,-6.2459,-6.2415,-6.2381,-6.2279,-6.2279,-6.2381,-6.2144,-6.1603,-6.1298,-6.0994,-6.052,-5.981,-5.9275,-5.922,-5.8987,-5.8439,-5.8735,-5.9012,-5.9012,-5.9012,-5.8875,-5.8597,-5.8314,-5.8027,-5.7954,-5.7881,-5.7881,-5.7881,-5.7881,-5.7881,-5.7881,-5.7881,-5.7881,-5.7881,-5.7881,-5.7949,-5.8118,-5.8592,-5.9099,-5.9471,-6.0452,-6.1231,-6.1501,-6.2042,-6.2415,-6.2415,-6.2415,-6.2415,-6.2415,-6.2415,-6.2415,-6.2415,-6.2415,-6.2415,-6.2415,-6.2415,-6.2415,-6.2415,-6.2415,-6.2415,-6.2415,-6.2415,-6.2415,-6.2302,-6.211,-6.179,-6.1432,-6.0936,-6.0226,-5.9707,-5.9088,-5.8546,-5.818,-5.8272,-5.818,-5.7902,-5.737,-5.6796,-5.6047,-5.5581,-5.5381,-5.5209,-5.5209,-5.5209,-5.5209,-5.5209,-5.5209,-5.528,-5.5481,-5.5651,-7.1633,-7.1532,-7.1278,-7.1077,-7.086,-7.057,-7.0247,-6.989,-6.9466,-6.9091,-6.8726,-6.8383,-6.8171,-6.7967,-6.781,-6.7542,-6.7174,-6.6772,-6.6172,-6.5539,-6.4841,-6.4039,-6.3268,-6.2847,-6.2615,-6.2381,-6.2415,-6.2415,-6.2415,-6.2415,-6.2415,-6.2381,-6.2178,-6.1806,-6.1332,-6.1249,-6.0815,-6.0102,-5.9711,-5.9621,-5.9595,-5.915,-5.9081,-5.9251,-5.9251,-5.8944,-5.8526,-5.8171,-5.7954,-5.7881,-5.7881,-5.7881,-5.7881,-5.7881,-5.7881,-5.7881,-5.7881,-5.7881,-5.7915,-5.7915,-5.8152,-5.866,-5.8998,-5.9505,-6.0655,-6.1028,-6.1569,-6.1941,-6.2313,-6.2415,-6.2415,-6.2415,-6.2415,-6.2415,-6.2415,-6.2415,-6.2415,-6.2415,-6.2415,-6.2415,-6.2415,-6.2415,-6.2415,-6.2415,-6.2415,-6.2415,-6.2381,-6.2302,-6.2189,-6.1951,-6.1628,-6.0936,-6.0345,-5.9531,-5.8818,-5.818,-5.7559,-5.6957,-5.6862,-5.6988,-5.6796,-5.6506,-5.5948,-5.5381,-5.5381,-5.5209,-5.5209,-5.5209,-5.5209,-5.5209,-5.5209,-5.5179,-5.5381,-5.5581,-5.5948,-7.149,-7.1324,-7.1067,-7.0832,-7.0578,-7.0251,-6.9891,-6.9466,-6.9047,-6.8726,-6.8383,-6.8121,-6.7952,-6.7847,-6.7741,-6.7524,-6.719,-6.675,-6.611,-6.5409,-6.4533,-6.3639,-6.3,-6.2693,-6.2537,-6.2415,-6.2415,-6.2415,-6.2415,-6.2415,-6.2415,-6.2381,-6.2459,-6.2334,-6.1995,-6.2199,-6.1975,-6.1223,-6.069,-6.046,-6.029,-5.9632,-5.9353,-5.9351,-5.9284,-5.8875,-5.8385,-5.8027,-5.7881,-5.7881,-5.7881,-5.7881,-5.7881,-5.7881,-5.7881,-5.7881,-5.7881,-5.7983,-5.8321,-5.8355,-5.8693,-5.937,-5.9708,-6.0385,-6.1129,-6.1535,-6.2009,-6.2279,-6.2381,-6.2415,-6.2415,-6.2415,-6.2415,-6.2415,-6.2415,-6.2415,-6.2415,-6.2415,-6.2415,-6.2415,-6.2415,-6.2415,-6.2415,-6.2415,-6.2415,-6.2415,-6.2415,-6.2302,-6.2076,-6.179,-6.1301,-6.0515,-5.9739,-5.8908,-5.8087,-5.7338,-5.6892,-5.6311,-5.6017,-5.6047,-5.6047,-5.588,-5.5581,-5.528,-5.5179,-5.5209,-5.5209,-5.5209,-5.5209,-5.5209,-5.5209,-5.528,-5.5481,-5.5849,-5.6244,-7.1255,-7.1038,-7.0832,-7.0578,-7.0217,-6.9891,-6.9463,-6.9047,-6.8679,-6.8383,-6.8121,-6.7915,-6.7847,-6.7687,-6.7687,-6.747,-6.717,-6.6691,-6.6048,-6.5212,-6.4252,-6.3417,-6.3076,-6.2693,-6.2459,-6.2415,-6.2415,-6.2415,-6.2415,-6.2415,-6.2381,-6.2459,-6.2649,-6.277,-6.2787,-6.3158,-6.2965,-6.2492,-6.1949,-6.1433,-6.0842,-6.0113,-5.9728,-5.9383,-5.8978,-5.8667,-5.8243,-5.8061,-5.7881,-5.7881,-5.7881,-5.7881,-5.7881,-5.7881,-5.7881,-5.7949,-5.8051,-5.8355,-5.8863,-5.9032,-5.9438,-6.0148,-6.0858,-6.1366,-6.1535,-6.1975,-6.2313,-6.2381,-6.2415,-6.2415,-6.2415,-6.2415,-6.2415,-6.2415,-6.2415,-6.2415,-6.2415,-6.2415,-6.2415,-6.2415,-6.2415,-6.2415,-6.2415,-6.2415,-6.2415,-6.2381,-6.2302,-6.211,-6.1756,-6.1383,-6.0769,-5.9914,-5.912,-5.8303,-5.7464,-5.6603,-5.6145,-5.575,-5.5581,-5.5581,-5.5581,-5.5481,-5.5381,-5.5209,-5.5209,-5.5209,-5.5209,-5.5209,-5.5209,-5.528,-5.528,-5.5381,-5.5681,-5.6244,-5.6603,-7.1042,-7.0794,-7.057,-7.0247,-6.9853,-6.9463,-6.9047,-6.8679,-6.8334,-6.8121,-6.7952,-6.7794,-6.7741,-6.7687,-6.7687,-6.7524,-6.719,-6.6655,-6.5922,-6.4843,-6.4182,-6.3565,-6.3227,-6.2847,-6.2537,-6.2493,-6.2415,-6.2381,-6.2381,-6.2459,-6.2459,-6.2615,-6.2923,-6.3042,-6.3383,-6.375,-6.4004,-6.3833,-6.3241,-6.2542,-6.1776,-6.0874,-6.0078,-5.9322,-5.877,-5.8453,-5.8205,-5.8027,-5.7881,-5.7881,-5.7881,-5.7881,-5.7881,-5.7881,-5.7915,-5.8084,-5.8457,-5.8829,-5.9099,-5.9641,-6.0216,-6.096,-6.1231,-6.1535,-6.2144,-6.2245,-6.2415,-6.2415,-6.2415,-6.2415,-6.2415,-6.2415,-6.2415,-6.2415,-6.2415,-6.2415,-6.2415,-6.2415,-6.2415,-6.2415,-6.2415,-6.2415,-6.2415,-6.2415,-6.2415,-6.2381,-6.2223,-6.1951,-6.1547,-6.1053,-6.0259,-5.9476,-5.8578,-5.784,-5.6988,-5.6213,-5.575,-5.5481,-5.528,-5.5179,-5.528,-5.528,-5.5209,-5.5209,-5.5209,-5.5209,-5.5209,-5.5209,-5.5209,-5.528,-5.5381,-5.5681,-5.6047,-5.6506,-5.718,-7.0643,-7.0432,-7.0141,-6.9816,-6.9463,-6.9003,-6.8679,-6.8383,-6.8121,-6.7952,-6.7847,-6.7741,-6.7687,-6.7687,-6.7633,-6.747,-6.7097,-6.6536,-6.5732,-6.4911,-6.4323,-6.3858,-6.3452,-6.3076,-6.277,-6.2493,-6.2415,-6.2459,-6.2537,-6.2537,-6.2693,-6.3,-6.3268,-6.3604,-6.3967,-6.4358,-6.474,-6.47,-6.4203,-6.3538,-6.288,-6.1809,-6.0739,-5.9869,-5.937,-5.9225,-5.9112,-5.8666,-5.8457,-5.8321,-5.8084,-5.7881,-5.7881,-5.7881,-5.8051,-5.8457,-5.8699,-5.9445,-5.9911,-6.0452,-6.096,-6.1738,-6.1806,-6.2009,-6.2279,-6.2415,-6.2415,-6.2415,-6.2415,-6.2415,-6.2415,-6.2415,-6.2415,-6.2415,-6.2415,-6.2415,-6.2415,-6.2415,-6.2415,-6.2415,-6.2415,-6.2415,-6.2415,-6.2415,-6.2415,-6.2381,-6.2189,-6.1917,-6.1465,-6.0886,-5.9914,-5.912,-5.8119,-5.7275,-5.6439,-5.5849,-5.5481,-5.528,-5.528,-5.5209,-5.5179,-5.5179,-5.5209,-5.5209,-5.5209,-5.5209,-5.5209,-5.5209,-5.528,-5.5381,-5.5581,-5.5948,-5.6409,-5.6988,-5.7715,-7.0137,-7.0035,-6.9663,-6.9303,-6.9003,-6.8679,-6.8383,-6.807,-6.7915,-6.7794,-6.7741,-6.7687,-6.7687,-6.7687,-6.7579,-6.7414,-6.704,-6.6416,-6.5704,-6.5114,-6.4671,-6.4217,-6.3712,-6.3452,-6.3076,-6.2537,-6.2459,-6.2571,-6.2649,-6.277,-6.3,-6.3343,-6.375,-6.4147,-6.4636,-6.5043,-6.5474,-6.5497,-6.4941,-6.4285,-6.3608,-6.2472,-6.1429,-6.0432,-6.0177,-6.0028,-5.9851,-5.9438,-5.9133,-5.8998,-5.8389,-5.8051,-5.7881,-5.7915,-5.822,-5.893,-5.9146,-5.9817,-6.0791,-6.1298,-6.1782,-6.2381,-6.2381,-6.2347,-6.2381,-6.2415,-6.2415,-6.2415,-6.2415,-6.2415,-6.2415,-6.2415,-6.2415,-6.2415,-6.2415,-6.2415,-6.2415,-6.2415,-6.2415,-6.2415,-6.2415,-6.2415,-6.2415,-6.2415,-6.2415,-6.2381,-6.211,-6.1756,-6.1268,-6.06,-5.9564,-5.8578,-5.7559,-5.6827,-5.5948,-5.5681,-5.528,-5.528,-5.5209,-5.5209,-5.5209,-5.5209,-5.5209,-5.5209,-5.5209,-5.5209,-5.5209,-5.5209,-5.528,-5.5481,-5.588,-5.6145,-5.6796,-5.7464,-5.8363,-6.9701,-6.9423,-6.9171,-6.8908,-6.8633,-6.8334,-6.807,-6.7915,-6.7794,-6.7741,-6.7687,-6.7687,-6.7687,-6.7687,-6.7687,-6.7433,-6.6983,-6.6452,-6.5958,-6.5379,-6.5046,-6.4568,-6.4111,-6.3712,-6.3452,-6.3152,-6.2847,-6.2804,-6.2804,-6.2847,-6.3268,-6.375,-6.4323,-6.4841,-6.5374,-6.5824,-6.611,-6.611,-6.5645,-6.4941,-6.3956,-6.2962,-6.1907,-6.0721,-6.0536,-6.0393,-6.0216,-6.0013,-5.9641,-5.9066,-5.8896,-5.8524,-5.8186,-5.8051,-5.8423,-5.9032,-5.9682,-6.0427,-6.1264,-6.1873,-6.2178,-6.2381,-6.2415,-6.2415,-6.2415,-6.2415,-6.2415,-6.2415,-6.2415,-6.2415,-6.2415,-6.2415,-6.2415,-6.2415,-6.2415,-6.2415,-6.2415,-6.2415,-6.2415,-6.2415,-6.2415,-6.2415,-6.2415,-6.2415,-6.2415,-6.2302,-6.203,-6.1513,-6.1053,-6.0087,-5.912,-5.8026,-5.6988,-5.6244,-5.5481,-5.5381,-5.5179,-5.5179,-5.5209,-5.5209,-5.5209,-5.5209,-5.5209,-5.5209,-5.5209,-5.5209,-5.5209,-5.5179,-5.5381,-5.5681,-5.6047,-5.6439,-5.7275,-5.8119,-5.903,-6.9171,-6.8908,-6.8717,-6.8528,-6.8334,-6.8121,-6.7952,-6.7794,-6.7741,-6.7687,-6.7687,-6.7687,-6.7687,-6.7687,-6.7633,-6.7359,-6.6903,-6.6608,-6.6083,-6.564,-6.5247,-6.4944,-6.4533,-6.4217,-6.393,-6.3712,-6.3417,-6.3227,-6.3227,-6.3343,-6.375,-6.4393,-6.4944,-6.5504,-6.6048,-6.6391,-6.6512,-6.6512,-6.611,-6.5361,-6.4312,-6.3412,-6.2295,-6.1673,-6.1341,-6.1298,-6.1197,-6.0825,-6.0588,-6.0216,-5.981,-5.9404,-5.9133,-5.9066,-5.9167,-5.9607,-6.025,-6.1028,-6.1704,-6.2245,-6.2381,-6.2381,-6.2415,-6.2415,-6.2415,-6.2415,-6.2415,-6.2415,-6.2415,-6.2415,-6.2415,-6.2415,-6.2415,-6.2415,-6.2415,-6.2415,-6.2415,-6.2415,-6.2415,-6.2415,-6.2415,-6.2415,-6.2415,-6.2415,-6.2415,-6.2223,-6.1984,-6.1383,-6.0769,-5.9827,-5.876,-5.7559,-5.6603,-5.5948,-5.528,-5.528,-5.5209,-5.5209,-5.5209,-5.5209,-5.5209,-5.5209,-5.5209,-5.5209,-5.5209,-5.5209,-5.528,-5.528,-5.5581,-5.5849,-5.6439,-5.6988,-5.784,-5.8792,-5.9596,-6.8623,-6.848,-6.8321,-6.8121,-6.8055,-6.7915,-6.7794,-6.7741,-6.7687,-6.7687,-6.7687,-6.7687,-6.7687,-6.7687,-6.7524,-6.7247,-6.6845,-6.6668,-6.6269,-6.5832,-6.551,-6.5212,-6.4979,-6.4775,-6.4463,-6.4393,-6.4252,-6.4002,-6.3785,-6.3895,-6.4393,-6.5011,-6.5604,-6.611,-6.6572,-6.675,-6.6845,-6.6608,-6.6207,-6.5539,-6.4498,-6.3531,-6.277,-6.2459,-6.2415,-6.2313,-6.2144,-6.1772,-6.14,-6.1061,-6.0655,-6.025,-6.0148,-6.025,-6.0351,-6.0419,-6.1003,-6.168,-6.2144,-6.2381,-6.2415,-6.2415,-6.2415,-6.2415,-6.2415,-6.2415,-6.2415,-6.2415,-6.2415,-6.2415,-6.2415,-6.2415,-6.2415,-6.2415,-6.2415,-6.2415,-6.2415,-6.2415,-6.2415,-6.2415,-6.2415,-6.2415,-6.2415,-6.2415,-6.2415,-6.2223,-6.1984,-6.1317,-6.0619,-5.9707,-5.8669,-5.7275,-5.6342,-5.5681,-5.528,-5.5179,-5.5209,-5.5209,-5.5209,-5.5209,-5.5209,-5.5209,-5.5209,-5.5209,-5.5209,-5.5179,-5.528,-5.5481,-5.5651,-5.6145,-5.673,-5.7464,-5.8243,-5.8972,-5.9684,-6.8272,-6.8121,-6.7967,-6.7915,-6.7899,-6.7794,-6.7741,-6.7687,-6.7687,-6.7687,-6.7687,-6.7687,-6.7687,-6.7687,-6.7579,-6.7359,-6.7097,-6.6845,-6.6488,-6.6083,-6.5832,-6.5575,-6.5349,-6.5145,-6.5043,-6.4976,-6.5011,-6.4671,-6.4428,-6.4568,-6.4908,-6.5604,-6.611,-6.6536,-6.6867,-6.6983,-6.6925,-6.6572,-6.5949,-6.4941,-6.375,-6.3076,-6.2727,-6.2493,-6.2415,-6.2415,-6.2415,-6.2178,-6.1941,-6.14,-6.1264,-6.0791,-6.0351,-6.0825,-6.1095,-6.1163,-6.1332,-6.1603,-6.2245,-6.2415,-6.2415,-6.2415,-6.2415,-6.2415,-6.2415,-6.2381,-6.2381,-6.2415,-6.2415,-6.2415,-6.2459,-6.2381,-6.2381,-6.2415,-6.2415,-6.2415,-6.2415,-6.2415,-6.2415,-6.2415,-6.2415,-6.2415,-6.2415,-6.2415,-6.2415,-6.2223,-6.1951,-6.1283,-6.0417,-5.9411,-5.8363,-5.6988,-5.6145,-5.5581,-5.528,-5.5179,-5.5209,-5.5209,-5.5209,-5.5209,-5.5209,-5.5209,-5.5209,-5.5209,-5.5209,-5.5209,-5.531,-5.5481,-5.575,-5.6342,-5.6892,-5.7559,-5.8427,-5.9152,-5.9772,-6.7952,-6.7863,-6.7847,-6.7794,-6.7794,-6.7741,-6.7687,-6.7687,-6.7687,-6.7687,-6.7687,-6.7687,-6.7687,-6.7687,-6.7633,-6.7524,-6.7322,-6.7076,-6.6786,-6.6391,-6.6243,-6.5994,-6.5895,-6.5732,-6.5668,-6.5668,-6.5604,-6.5581,-6.5384,-6.5379,-6.5732,-6.6172,-6.6595,-6.6889,-6.704,-6.6983,-6.6655,-6.6012,-6.5207,-6.4218,-6.3417,-6.2923,-6.2649,-6.2381,-6.2415,-6.2415,-6.2415,-6.2381,-6.2279,-6.1941,-6.1907,-6.1772,-6.1535,-6.1738,-6.1907,-6.1941,-6.1907,-6.2076,-6.2347,-6.2381,-6.2415,-6.2415,-6.2415,-6.2415,-6.2415,-6.2381,-6.2459,-6.2571,-6.2571,-6.2571,-6.2537,-6.2537,-6.2459,-6.2459,-6.2459,-6.2381,-6.2381,-6.2415,-6.2415,-6.2415,-6.2415,-6.2415,-6.2415,-6.2415,-6.2381,-6.2302,-6.1951,-6.135,-6.0279,-5.8998,-5.7808,-5.6603,-5.5948,-5.5481,-5.528,-5.5209,-5.5209,-5.5209,-5.5209,-5.5209,-5.5209,-5.5209,-5.5209,-5.5209,-5.5209,-5.5209,-5.5209,-5.5481,-5.575,-5.6342,-5.6892,-5.7653,-5.8427,-5.8972,-5.9508,-6.7687,-6.7687,-6.7687,-6.7687,-6.7687,-6.7687,-6.7687,-6.7687,-6.7687,-6.7687,-6.7687,-6.7687,-6.7687,-6.7687,-6.7687,-6.7579,-6.747,-6.7247,-6.7019,-6.6786,-6.6548,-6.633,-6.6269,-6.6146,-6.6207,-6.6172,-6.6294,-6.6305,-6.6377,-6.6438,-6.6512,-6.6691,-6.6983,-6.7154,-6.704,-6.6772,-6.6355,-6.5439,-6.4358,-6.3639,-6.3152,-6.277,-6.2537,-6.2459,-6.2415,-6.2415,-6.2415,-6.2415,-6.2381,-6.2347,-6.2313,-6.2245,-6.2245,-6.2245,-6.2279,-6.2279,-6.2279,-6.2313,-6.2381,-6.2415,-6.2415,-6.2415,-6.2415,-6.2415,-6.2381,-6.2459,-6.2537,-6.2649,-6.2804,-6.2804,-6.2804,-6.277,-6.2693,-6.2537,-6.2459,-6.2459,-6.2381,-6.2381,-6.2415,-6.2415,-6.2415,-6.2415,-6.2415,-6.2415,-6.2381,-6.2302,-6.1951,-6.1465,-6.0226,-5.8818,-5.7715,-5.6603,-5.5948,-5.5481,-5.528,-5.5209,-5.5209,-5.5209,-5.5209,-5.5209,-5.5209,-5.5209,-5.5209,-5.5209,-5.5209,-5.5209,-5.5209,-5.5481,-5.578,-5.6342,-5.6892,-5.7653,-5.8335,-5.8792,-5.8972,-6.7687,-6.7687,-6.7687,-6.7687,-6.7687,-6.7687,-6.7687,-6.7687,-6.7687,-6.7687,-6.7687,-6.7687,-6.7687,-6.7687,-6.7687,-6.7633,-6.747,-6.7506,-6.719,-6.6903,-6.6727,-6.6608,-6.6512,-6.6608,-6.6727,-6.675,-6.6867,-6.6983,-6.7134,-6.7113,-6.717,-6.7206,-6.719,-6.7097,-6.6867,-6.6416,-6.5633,-6.4704,-6.3712,-6.3227,-6.2847,-6.2537,-6.2459,-6.2381,-6.2415,-6.2415,-6.2415,-6.2415,-6.2415,-6.2415,-6.2415,-6.2415,-6.2415,-6.2415,-6.2415,-6.2415,-6.2415,-6.2415,-6.2415,-6.2415,-6.2415,-6.2415,-6.2415,-6.2415,-6.2381,-6.2571,-6.2727,-6.277,-6.2923,-6.3076,-6.3,-6.3,-6.2923,-6.277,-6.2615,-6.2537,-6.2459,-6.2381,-6.2415,-6.2415,-6.2415,-6.2415,-6.2415,-6.2415,-6.2415,-6.2381,-6.1951,-6.1383,-6.0345,-5.8998,-5.7902,-5.6892,-5.6047,-5.5581,-5.528,-5.5209,-5.5209,-5.5209,-5.5209,-5.5209,-5.5209,-5.5209,-5.5209,-5.5209,-5.5209,-5.5209,-5.5179,-5.5381,-5.5681,-5.6244,-5.6892,-5.737,-5.784,-5.8303,-5.8335,-6.7687,-6.7687,-6.7687,-6.7687,-6.7687,-6.7687,-6.7687,-6.7687,-6.7687,-6.7687,-6.7687,-6.7687,-6.7687,-6.7687,-6.7687,-6.7687,-6.7579,-6.7561,-6.7359,-6.7247,-6.7134,-6.6983,-6.6925,-6.6925,-6.704,-6.7097,-6.7303,-6.7359,-6.7395,-6.7414,-6.7339,-6.7227,-6.7134,-6.6983,-6.6595,-6.576,-6.4773,-6.4039,-6.3343,-6.2847,-6.2693,-6.2537,-6.2415,-6.2415,-6.2415,-6.2415,-6.2415,-6.2415,-6.2415,-6.2415,-6.2415,-6.2415,-6.2415,-6.2415,-6.2415,-6.2415,-6.2415,-6.2415,-6.2415,-6.2415,-6.2415,-6.2415,-6.2415,-6.2415,-6.2415,-6.2615,-6.2881,-6.3,-6.3227,-6.3452,-6.36,-6.3452,-6.3302,-6.3,-6.277,-6.2615,-6.2459,-6.2415,-6.2415,-6.2415,-6.2415,-6.2415,-6.2415,-6.2415,-6.2415,-6.2381,-6.187,-6.1268,-6.0312,-5.9387,-5.8272,-5.737,-5.6506,-5.5849,-5.5581,-5.5381,-5.5179,-5.5209,-5.5209,-5.5209,-5.5209,-5.5209,-5.5209,-5.5209,-5.5209,-5.5209,-5.5179,-5.528,-5.5581,-5.5948,-5.6439,-5.6892,-5.737,-5.784,-5.7653,-6.7633,-6.7633,-6.7579,-6.7633,-6.7687,-6.7687,-6.7687,-6.7633,-6.7687,-6.7687,-6.7687,-6.7687,-6.7687,-6.7687,-6.7687,-6.7687,-6.7687,-6.7579,-6.7561,-6.7414,-6.7359,-6.7266,-6.7266,-6.7266,-6.7303,-6.7359,-6.747,-6.7524,-6.7451,-6.7414,-6.719,-6.7019,-6.6809,-6.6476,-6.6012,-6.4976,-6.3967,-6.3417,-6.3,-6.2615,-6.2615,-6.2459,-6.2415,-6.2415,-6.2415,-6.2415,-6.2415,-6.2415,-6.2415,-6.2415,-6.2415,-6.2415,-6.2415,-6.2415,-6.2415,-6.2415,-6.2415,-6.2415,-6.2415,-6.2415,-6.2415,-6.2415,-6.2415,-6.2493,-6.2537,-6.2693,-6.3076,-6.3417,-6.3639,-6.393,-6.4074,-6.393,-6.3565,-6.3268,-6.2923,-6.277,-6.2537,-6.2415,-6.2415,-6.2415,-6.2415,-6.2415,-6.2415,-6.2415,-6.2415,-6.2381,-6.203,-6.1595,-6.0936,-5.9914,-5.903,-5.8026,-5.7084,-5.6409,-5.575,-5.5551,-5.5381,-5.5209,-5.5209,-5.5209,-5.5209,-5.5209,-5.5209,-5.5209,-5.5209,-5.5209,-5.5179,-5.528,-5.5381,-5.5581,-5.6145,-5.67,-5.7084,-5.7559,-5.7084,-6.747,-6.7506,-6.7266,-6.7378,-6.7633,-6.7687,-6.7633,-6.7524,-6.7633,-6.7687,-6.7596,-6.765,-6.7687,-6.7687,-6.7633,-6.7596,-6.7633,-6.7633,-6.7579,-6.747,-6.7414,-6.7359,-6.7322,-6.7414,-6.747,-6.7524,-6.7579,-6.7524,-6.747,-6.721,-6.6925,-6.6416,-6.5985,-6.5633,-6.5568,-6.4498,-6.3604,-6.3076,-6.277,-6.2615,-6.2459,-6.2381,-6.2415,-6.2415,-6.2415,-6.2415,-6.2415,-6.2415,-6.2415,-6.2415,-6.2415,-6.2415,-6.2415,-6.2415,-6.2415,-6.2415,-6.2415,-6.2415,-6.2415,-6.2415,-6.2415,-6.2415,-6.2415,-6.2493,-6.2727,-6.3,-6.3452,-6.3785,-6.4111,-6.4393,-6.4463,-6.4323,-6.3967,-6.3531,-6.3193,-6.2847,-6.2615,-6.2415,-6.2415,-6.2415,-6.2415,-6.2415,-6.2415,-6.2415,-6.2415,-6.2302,-6.2189,-6.1756,-6.1219,-6.0515,-5.9564,-5.8669,-5.7746,-5.6988,-5.6311,-5.5849,-5.5581,-5.5381,-5.5179,-5.528,-5.5179,-5.5209,-5.5209,-5.5209,-5.5209,-5.5209,-5.5209,-5.5179,-5.5381,-5.5581,-5.6047,-5.6603,-5.6988,-5.7115,-5.673,-6.7247,-6.7134,-6.6867,-6.6809,-6.6946,-6.7266,-6.7322,-6.7359,-6.7322,-6.7378,-6.7341,-6.7396,-6.7341,-6.7396,-6.7378,-6.7378,-6.7378,-6.7378,-6.7322,-6.7322,-6.7414,-6.7506,-6.747,-6.7524,-6.7633,-6.7579,-6.7579,-6.747,-6.7266,-6.6889,-6.6476,-6.5887,-6.5043,-6.4498,-6.4288,-6.3677,-6.3227,-6.2847,-6.2615,-6.2459,-6.2415,-6.2415,-6.2415,-6.2415,-6.2415,-6.2415,-6.2415,-6.2415,-6.2415,-6.2415,-6.2415,-6.2415,-6.2415,-6.2415,-6.2415,-6.2415,-6.2415,-6.2415,-6.2415,-6.2415,-6.2415,-6.2415,-6.2415,-6.2571,-6.2693,-6.3076,-6.3565,-6.4111,-6.4602,-6.4911,-6.5114,-6.4911,-6.4498,-6.3895,-6.3565,-6.3076,-6.277,-6.2537,-6.2415,-6.2415,-6.2415,-6.2415,-6.2415,-6.2415,-6.2415,-6.2381,-6.2189,-6.187,-6.1383,-6.0886,-6.0087,-5.9209,-5.8395,-5.7527,-5.6892,-5.6409,-5.5849,-5.5581,-5.5381,-5.5381,-5.5381,-5.5179,-5.5209,-5.5209,-5.5209,-5.5209,-5.5209,-5.5179,-5.5381,-5.5681,-5.5948,-5.6244,-5.6439,-5.6439,-5.6176,-6.6925,-6.6691,-6.6294,-6.611,-6.6172,-6.6714,-6.6946,-6.704,-6.6946,-6.6983,-6.7024,-6.703,-6.703,-6.7024,-6.7055,-6.7076,-6.7134,-6.7154,-6.721,-6.721,-6.7414,-6.747,-6.7561,-6.7633,-6.7633,-6.7579,-6.747,-6.7266,-6.6889,-6.6476,-6.576,-6.4976,-6.4147,-6.375,-6.3491,-6.3117,-6.2923,-6.2649,-6.2459,-6.2415,-6.2415,-6.2415,-6.2415,-6.2415,-6.2415,-6.2415,-6.2415,-6.2415,-6.2415,-6.2415,-6.2415,-6.2415,-6.2415,-6.2415,-6.2415,-6.2415,-6.2415,-6.2415,-6.2415,-6.2415,-6.2415,-6.2415,-6.2459,-6.2615,-6.2923,-6.3343,-6.3967,-6.4533,-6.4979,-6.5379,-6.564,-6.5379,-6.4911,-6.4323,-6.3712,-6.3227,-6.277,-6.2537,-6.2415,-6.2415,-6.2415,-6.2415,-6.2415,-6.2415,-6.2415,-6.2302,-6.2268,-6.1951,-6.1628,-6.1219,-6.0717,-5.9914,-5.903,-5.8303,-5.7621,-5.6988,-5.6409,-5.575,-5.5681,-5.5581,-5.5381,-5.5209,-5.5209,-5.5209,-5.5209,-5.5209,-5.5209,-5.528,-5.528,-5.5381,-5.5481,-5.5681,-5.5979,-5.588,-5.578,-6.65,-6.6136,-6.5633,-6.5344,-6.5308,-6.5949,-6.6416,-6.6655,-6.6512,-6.6572,-6.6618,-6.6634,-6.6555,-6.6595,-6.6607,-6.6692,-6.6845,-6.6867,-6.704,-6.7154,-6.7359,-6.7414,-6.7524,-6.7579,-6.7579,-6.747,-6.721,-6.6831,-6.6476,-6.5697,-6.4873,-6.4111,-6.3491,-6.3117,-6.2923,-6.277,-6.2649,-6.2459,-6.2493,-6.2415,-6.2415,-6.2415,-6.2415,-6.2415,-6.2415,-6.2415,-6.2415,-6.2415,-6.2415,-6.2415,-6.2415,-6.2415,-6.2415,-6.2415,-6.2415,-6.2415,-6.2415,-6.2415,-6.2415,-6.2415,-6.2459,-6.2459,-6.2615,-6.2923,-6.3227,-6.3639,-6.4252,-6.4944,-6.5474,-6.5832,-6.6182,-6.5604,-6.5145,-6.4428,-6.3785,-6.3268,-6.2847,-6.2615,-6.2493,-6.2415,-6.2415,-6.2415,-6.2415,-6.2415,-6.2415,-6.2381,-6.2302,-6.2189,-6.1951,-6.1709,-6.1136,-6.0633,-5.9827,-5.903,-5.8395,-5.7559,-5.6796,-5.6145,-5.578,-5.5581,-5.5381,-5.5209,-5.5209,-5.5209,-5.5209,-5.5209,-5.5209,-5.5209,-5.5179,-5.528,-5.528,-5.5381,-5.5681,-5.5681,-5.5481,-6.6197,-6.5668,-6.4976,-6.4602,-6.4463,-6.4704,-6.5176,-6.5796,-6.5958,-6.6021,-6.6083,-6.5887,-6.5851,-6.5832,-6.5853,-6.5975,-6.6155,-6.6391,-6.6668,-6.6903,-6.7247,-6.7359,-6.747,-6.7524,-6.747,-6.721,-6.6831,-6.6416,-6.576,-6.5043,-6.4076,-6.3343,-6.3,-6.2693,-6.2615,-6.2493,-6.2493,-6.2415,-6.2415,-6.2415,-6.2415,-6.2415,-6.2415,-6.2415,-6.2415,-6.2415,-6.2415,-6.2415,-6.2415,-6.2415,-6.2415,-6.2415,-6.2415,-6.2415,-6.2415,-6.2415,-6.2415,-6.2415,-6.2415,-6.2415,-6.2493,-6.2615,-6.2923,-6.3076,-6.3452,-6.393,-6.4498,-6.5242,-6.5796,-6.6207,-6.6269,-6.5895,-6.5374,-6.4773,-6.4039,-6.3343,-6.2923,-6.2615,-6.2459,-6.2415,-6.2415,-6.2415,-6.2415,-6.2415,-6.2415,-6.2415,-6.2381,-6.2302,-6.2189,-6.1951,-6.1628,-6.1053,-6.0463,-5.9652,-5.885,-5.8119,-5.7275,-5.6506,-5.6047,-5.5681,-5.5381,-5.5209,-5.5209,-5.5209,-5.5209,-5.5209,-5.5209,-5.5209,-5.5209,-5.5209,-5.528,-5.528,-5.5381,-5.5381,-5.528,-6.5859,-6.511,-6.4463,-6.4002,-6.3712,-6.3785,-6.4111,-6.4671,-6.518,-6.5379,-6.5313,-6.5114,-6.5149,-6.5216,-6.5223,-6.5357,-6.5704,-6.6048,-6.6391,-6.6845,-6.704,-6.721,-6.7359,-6.7359,-6.7154,-6.6831,-6.6416,-6.5922,-6.5212,-6.4218,-6.3343,-6.2923,-6.2693,-6.2537,-6.2459,-6.2415,-6.2415,-6.2415,-6.2415,-6.2415,-6.2415,-6.2415,-6.2415,-6.2415,-6.2415,-6.2415,-6.2415,-6.2415,-6.2415,-6.2415,-6.2415,-6.2415,-6.2415,-6.2415,-6.2415,-6.2415,-6.2415,-6.2415,-6.2415,-6.2493,-6.2571,-6.2804,-6.3152,-6.3452,-6.3858,-6.4252,-6.4908,-6.5604,-6.6048,-6.6355,-6.633,-6.6207,-6.5604,-6.5043,-6.4252,-6.3417,-6.3076,-6.2615,-6.2459,-6.2415,-6.2415,-6.2415,-6.2415,-6.2415,-6.2415,-6.2415,-6.2415,-6.2381,-6.2268,-6.2076,-6.179,-6.1383,-6.0802,-6.012,-5.9298,-5.8395,-5.7464,-5.67,-5.6145,-5.578,-5.5381,-5.5209,-5.5209,-5.5209,-5.5209,-5.5209,-5.5209,-5.5209,-5.5209,-5.5209,-5.5209,-5.528,-5.528,-5.528,-5.5078,-6.5439,-6.4532,-6.3967,-6.3417,-6.2966,-6.3152,-6.3302,-6.3377,-6.4217,-6.4568,-6.4568,-6.4393,-6.4393,-6.4533,-6.4638,-6.4984,-6.5379,-6.5832,-6.6269,-6.6786,-6.704,-6.7154,-6.7154,-6.7117,-6.6831,-6.6416,-6.5824,-6.5242,-6.4602,-6.3785,-6.3076,-6.2727,-6.2537,-6.2381,-6.2415,-6.2415,-6.2415,-6.2415,-6.2415,-6.2415,-6.2415,-6.2415,-6.2415,-6.2415,-6.2415,-6.2415,-6.2415,-6.2415,-6.2415,-6.2415,-6.2415,-6.2415,-6.2415,-6.2415,-6.2415,-6.2415,-6.2415,-6.2415,-6.2459,-6.2537,-6.2693,-6.2923,-6.3302,-6.3712,-6.4217,-6.4602,-6.5278,-6.5859,-6.6294,-6.6536,-6.6536,-6.6172,-6.5668,-6.4976,-6.4252,-6.3565,-6.3076,-6.2693,-6.2459,-6.2415,-6.2415,-6.2415,-6.2415,-6.2415,-6.2415,-6.2415,-6.2415,-6.2415,-6.2302,-6.2189,-6.187,-6.1547,-6.0969,-6.0206,-5.9387,-5.8487,-5.7653,-5.6892,-5.6342,-5.578,-5.528,-5.5209,-5.5209,-5.5209,-5.5209,-5.5209,-5.5209,-5.5209,-5.5209,-5.5209,-5.5209,-5.5209,-5.5179,-5.5179,-5.4875,-6.5242,-6.4358,-6.3417,-6.277,-6.2615,-6.277,-6.2847,-6.2847,-6.3227,-6.3565,-6.3785,-6.3673,-6.3673,-6.3892,-6.4072,-6.4393,-6.4911,-6.5575,-6.6083,-6.6512,-6.6867,-6.6983,-6.6983,-6.6714,-6.6355,-6.5824,-6.5176,-6.4428,-6.3677,-6.3076,-6.277,-6.2493,-6.2381,-6.2415,-6.2415,-6.2415,-6.2415,-6.2415,-6.2415,-6.2415,-6.2415,-6.2415,-6.2415,-6.2415,-6.2415,-6.2415,-6.2415,-6.2415,-6.2415,-6.2415,-6.2415,-6.2415,-6.2415,-6.2415,-6.2415,-6.2415,-6.2415,-6.2415,-6.2493,-6.2537,-6.2693,-6.3076,-6.3452,-6.4002,-6.4498,-6.4944,-6.5474,-6.6048,-6.6416,-6.6618,-6.6618,-6.6136,-6.5668,-6.4908,-6.4182,-6.3604,-6.3076,-6.2693,-6.2415,-6.2415,-6.2415,-6.2415,-6.2415,-6.2415,-6.2415,-6.2415,-6.2415,-6.2381,-6.2302,-6.211,-6.1756,-6.1465,-6.0886,-6.012,-5.9331,-5.8395,-5.7559,-5.6796,-5.6047,-5.5681,-5.531,-5.5209,-5.5209,-5.5209,-5.5209,-5.5209,-5.5209,-5.5209,-5.5209,-5.5209,-5.5209,-5.5209,-5.5078,-5.5078,-5.4671,-6.4908,-6.4004,-6.2966,-6.2459,-6.2459,-6.2537,-6.2537,-6.2537,-6.2693,-6.2847,-6.3076,-6.3076,-6.3152,-6.3452,-6.3673,-6.4109,-6.4637,-6.5313,-6.5832,-6.6269,-6.6572,-6.6691,-6.6572,-6.6294,-6.5796,-6.5212,-6.4463,-6.3639,-6.2923,-6.277,-6.2615,-6.2493,-6.2415,-6.2415,-6.2415,-6.2415,-6.2415,-6.2415,-6.2415,-6.2415,-6.2415,-6.2415,-6.2415,-6.2415,-6.2415,-6.2415,-6.2415,-6.2415,-6.2415,-6.2415,-6.2415,-6.2415,-6.2415,-6.2415,-6.2415,-6.2415,-6.2415,-6.2415,-6.2493,-6.2615,-6.277,-6.3152,-6.36,-6.4074,-6.4637,-6.5114,-6.5732,-6.6269,-6.6572,-6.6809,-6.6595,-6.6207,-6.5604,-6.4908,-6.4111,-6.3417,-6.2923,-6.2537,-6.2381,-6.2415,-6.2415,-6.2415,-6.2415,-6.2415,-6.2415,-6.2415,-6.2415,-6.2415,-6.2302,-6.211,-6.1709,-6.1268,-6.0633,-6.0033,-5.9241,-5.8303,-5.7275,-5.6634,-5.5849,-5.5581,-5.528,-5.5179,-5.5209,-5.5209,-5.5209,-5.5209,-5.5209,-5.5209,-5.5209,-5.5209,-5.5209,-5.5209,-5.5078,-5.4875,-5.4466,-6.4393,-6.3604,-6.2736,-6.2415,-6.2415,-6.2415,-6.2415,-6.2381,-6.2415,-6.2415,-6.2459,-6.2649,-6.2881,-6.3186,-6.3452,-6.3965,-6.4463,-6.5114,-6.5575,-6.5958,-6.6207,-6.6172,-6.5949,-6.5633,-6.5043,-6.4393,-6.3639,-6.3193,-6.2693,-6.2615,-6.2537,-6.2415,-6.2415,-6.2415,-6.2415,-6.2415,-6.2415,-6.2415,-6.2415,-6.2415,-6.2415,-6.2415,-6.2415,-6.2415,-6.2415,-6.2415,-6.2415,-6.2415,-6.2415,-6.2415,-6.2415,-6.2415,-6.2415,-6.2415,-6.2415,-6.2415,-6.2415,-6.2415,-6.2493,-6.2615,-6.2847,-6.3076,-6.36,-6.4145,-6.4741,-6.5313,-6.5958,-6.6391,-6.6632,-6.6727,-6.6548,-6.6172,-6.5568,-6.4808,-6.4002,-6.3227,-6.277,-6.2381,-6.2381,-6.2415,-6.2415,-6.2415,-6.2415,-6.2415,-6.2415,-6.2415,-6.2415,-6.2415,-6.2302,-6.1951,-6.1628,-6.102,-6.043,-5.9772,-5.8972,-5.8026,-5.6988,-5.6439,-5.575,-5.5481,-5.528,-5.5179,-5.5209,-5.5209,-5.5209,-5.5209,-5.5209,-5.5209,-5.5209,-5.5209,-5.5209,-5.5179,-5.5078,-5.4875,-5.423,-6.375,-6.2923,-6.2537,-6.2415,-6.2415,-6.2415,-6.2415,-6.2415,-6.2415,-6.2415,-6.2415,-6.2459,-6.2649,-6.306,-6.3261,-6.3673,-6.4322,-6.4843,-6.5247,-6.5575,-6.5604,-6.5539,-6.5308,-6.4841,-6.4076,-6.3565,-6.3076,-6.277,-6.2537,-6.2459,-6.2459,-6.2415,-6.2415,-6.2415,-6.2415,-6.2415,-6.2415,-6.2415,-6.2415,-6.2415,-6.2415,-6.2415,-6.2415,-6.2415,-6.2415,-6.2415,-6.2415,-6.2415,-6.2415,-6.2415,-6.2415,-6.2415,-6.2415,-6.2415,-6.2415,-6.2415,-6.2415,-6.2415,-6.2459,-6.2693,-6.2847,-6.3076,-6.36,-6.4251,-6.481,-6.5415,-6.5958,-6.6512,-6.6691,-6.675,-6.6572,-6.61,-6.5497,-6.4498,-6.3555,-6.3034,-6.2537,-6.2381,-6.2415,-6.2415,-6.2415,-6.2415,-6.2415,-6.2415,-6.2415,-6.2415,-6.2415,-6.2415,-6.2302,-6.1951,-6.1547,-6.0853,-6.0173,-5.9298,-5.8487,-5.7559,-5.6603,-5.6145,-5.5681,-5.5381,-5.528,-5.5179,-5.5209,-5.5209,-5.5209,-5.5209,-5.5209,-5.5209,-5.5209,-5.5209,-5.5209,-5.5179,-5.5078,-5.4641,-5.4023]}]]